ftp/pub/palmer/observations_modified/2019/April/original_files/AR190407_BASE.txt
Download
Sample DateTime Unit Id WS Avg 2min WD Avg 2min WGS 10min WGD 10min Air Temp Rel Humidity Dew Point Pyranometer Quantum Air Pressure Snow Level Rainfall PW Current Visibility CBase 1 CBase 2 CBase 3 Vert Vis
2019/04/07 00:00:00 BASE 18.30 134 25.41 130 -1.0 49 -10.5 0 0 975.8 NA 0.0000 9999 0 0 0 0
2019/04/07 00:01:00 BASE 19.34 131 25.41 130 -1.0 48 -10.6 0 0 975.7 NA 0.0000 9999 0 0 0 0
2019/04/07 00:02:00 BASE 18.48 131 25.41 130 -1.1 48 -10.7 0 0 975.8 NA 0.0000 9999 0 0 0 0
2019/04/07 00:03:00 BASE 18.01 134 25.41 130 -1.1 48 -10.8 0 0 975.8 NA 0.0000 9999 0 0 0 0
2019/04/07 00:04:00 BASE 18.11 133 24.28 133 -1.1 48 -10.8 0 0 975.8 NA 0.0000 9999 0 0 0 0
2019/04/07 00:05:00 BASE 17.98 132 23.56 131 -1.1 48 -10.7 0 0 975.8 NA 0.0000 9999 0 0 0 0
2019/04/07 00:06:00 BASE 19.27 131 23.56 131 -1.1 48 -10.6 0 0 975.8 NA 0.0000 9999 0 0 0 0
2019/04/07 00:07:00 BASE 20.00 127 23.56 131 -1.1 49 -10.5 0 0 975.8 NA 0.0000 9999 0 0 0 0
2019/04/07 00:08:00 BASE 21.38 128 24.18 127 -1.1 49 -10.4 0 0 975.7 NA 0.0000 9999 0 0 0 0
2019/04/07 00:09:00 BASE 21.58 131 24.18 127 -1.1 50 -10.3 0 0 975.8 NA 0.0000 9999 0 0 0 0
2019/04/07 00:10:00 BASE 20.63 133 24.74 139 -1.1 50 -10.2 0 0 975.8 NA 0.0000 9999 0 0 0 0
2019/04/07 00:11:00 BASE 22.75 132 27.01 132 -1.1 50 -10.3 0 0 975.6 NA 0.0000 9999 0 0 0 0
2019/04/07 00:12:00 BASE 24.15 129 27.01 132 -1.1 49 -10.5 0 0 975.8 NA 0.0000 9999 0 0 0 0
2019/04/07 00:13:00 BASE 22.60 127 27.01 132 -1.1 48 -10.7 0 0 975.8 NA 0.0000 9999 0 0 0 0
2019/04/07 00:14:00 BASE 21.64 129 27.01 132 -1.1 47 -10.9 0 0 975.8 NA 0.0000 9000 0 0 0 0
2019/04/07 00:15:00 BASE 21.61 132 27.01 132 -1.1 47 -11.1 0 0 975.7 NA 0.0000 HZ 9000 0 0 0 0
2019/04/07 00:16:00 BASE 21.00 137 27.01 132 -1.1 47 -11.1 0 0 975.8 NA 0.0000 HZ 9000 0 0 0 0
2019/04/07 00:17:00 BASE 18.91 138 27.01 132 -1.1 47 -10.9 0 0 975.9 NA 0.0000 HZ 9000 0 0 0 0
2019/04/07 00:18:00 BASE 19.03 132 27.01 132 -1.1 48 -10.8 0 0 975.8 NA 0.0000 HZ 9000 0 0 0 0
2019/04/07 00:19:00 BASE 20.95 130 27.01 132 -1.1 48 -10.7 0 0 975.8 NA 0.0000 HZ 9999 0 0 0 0
2019/04/07 00:20:00 BASE 22.26 131 27.01 132 -1.0 48 -10.8 0 0 975.7 NA 0.0000 HZ 9999 0 0 0 0
2019/04/07 00:21:00 BASE 21.16 129 26.55 128 -1.0 47 -10.9 0 0 975.8 NA 0.0000 HZ 9000 0 0 0 0
2019/04/07 00:22:00 BASE 19.50 129 24.64 132 -1.0 47 -11.0 0 0 975.9 NA 0.0000 HZ 9000 0 0 0 0
2019/04/07 00:23:00 BASE 20.97 132 25.00 137 -1.0 46 -11.1 0 0 975.7 NA 0.0000 HZ 9999 0 0 0 0
2019/04/07 00:24:00 BASE 21.06 134 25.00 137 -1.0 46 -11.1 0 0 975.8 NA 0.0000 HZ 9000 0 0 0 0
2019/04/07 00:25:00 BASE 20.49 133 25.10 137 -1.0 46 -11.2 0 0 975.8 NA 0.0000 HZ 9000 0 0 0 0
2019/04/07 00:26:00 BASE 20.91 132 25.10 137 -1.1 46 -11.2 0 0 975.8 NA 0.0000 HZ 9000 0 0 0 0
2019/04/07 00:27:00 BASE 21.24 133 25.10 137 -1.1 46 -11.2 0 0 975.8 NA 0.0000 HZ 9000 0 0 0 0
2019/04/07 00:28:00 BASE 21.05 133 25.10 137 -1.1 46 -11.2 0 0 975.8 NA 0.0000 HZ 9000 0 0 0 0
2019/04/07 00:29:00 BASE 19.02 133 25.10 137 -1.1 46 -11.2 0 0 975.9 NA 0.0000 HZ 9000 0 0 0 0
2019/04/07 00:30:00 BASE 19.80 130 25.10 137 -1.1 47 -11.1 0 0 975.9 NA 0.0000 HZ 9000 0 0 0 0
2019/04/07 00:31:00 BASE 20.95 129 25.10 137 -1.1 47 -11.0 0 0 975.9 NA 0.0000 HZ 9000 0 0 0 0
2019/04/07 00:32:00 BASE 19.60 129 25.10 137 -1.1 47 -11.0 0 0 976.0 NA 0.0000 HZ 9999 0 0 0 0
2019/04/07 00:33:00 BASE 19.83 130 25.10 137 -1.1 48 -10.8 0 0 976.0 NA 0.0000 HZ 9999 0 0 0 0
2019/04/07 00:34:00 BASE 19.72 129 25.10 137 -1.2 48 -10.8 0 0 976.0 NA 0.0000 HZ 9000 0 0 0 0
2019/04/07 00:35:00 BASE 20.08 130 24.33 141 -1.1 47 -10.9 0 0 975.9 NA 0.0000 HZ 9000 0 0 0 0
2019/04/07 00:36:00 BASE 20.35 135 24.33 141 -1.1 47 -11.0 0 0 976.0 NA 0.0000 HZ 9000 0 0 0 0
2019/04/07 00:37:00 BASE 18.47 135 23.00 129 -1.1 47 -10.9 0 0 976.0 NA 0.0000 HZ 9000 0 0 0 0
2019/04/07 00:38:00 BASE 18.35 131 23.00 129 -1.1 47 -11.0 0 0 976.0 NA 0.0000 HZ 9000 0 0 0 0
2019/04/07 00:39:00 BASE 19.84 130 23.00 129 -1.0 47 -11.1 0 0 976.0 NA 0.0000 HZ 9000 0 0 0 0
2019/04/07 00:40:00 BASE 19.63 130 23.00 129 -1.0 46 -11.1 0 0 976.0 NA 0.0000 HZ 9000 0 0 0 0
2019/04/07 00:41:00 BASE 17.71 128 23.00 129 -1.0 46 -11.1 0 0 976.0 NA 0.0000 HZ 9000 0 0 0 0
2019/04/07 00:42:00 BASE 17.77 130 23.00 129 -1.0 46 -11.2 0 0 976.0 NA 0.0000 HZ 9000 0 0 0 0
2019/04/07 00:43:00 BASE 17.45 134 23.00 129 -1.0 46 -11.3 0 0 976.1 NA 0.0000 HZ 9999 0 0 0 0
2019/04/07 00:44:00 BASE 17.74 131 23.00 129 -1.0 46 -11.1 0 0 976.0 NA 0.0000 HZ 9000 0 0 0 0
2019/04/07 00:45:00 BASE 20.28 130 23.36 136 -1.0 46 -11.1 0 0 976.0 NA 0.0000 HZ 9000 0 0 0 0
2019/04/07 00:46:00 BASE 19.70 130 23.36 136 -1.0 46 -11.1 0 0 976.1 NA 0.0000 HZ 9000 0 0 0 0
2019/04/07 00:47:00 BASE 17.51 127 23.36 136 -1.0 47 -11.0 0 0 976.2 NA 0.0000 HZ 9000 0 0 0 0
2019/04/07 00:48:00 BASE 17.11 126 23.36 136 -1.0 47 -11.0 0 0 976.2 NA 0.0000 HZ 9000 0 0 0 0
2019/04/07 00:49:00 BASE 16.86 126 23.36 136 -1.1 47 -11.0 0 0 976.2 NA 0.0000 HZ 9000 0 0 0 0
2019/04/07 00:50:00 BASE 15.05 126 23.36 136 -1.1 47 -11.0 0 0 976.3 NA 0.0000 HZ 9000 0 0 0 0
2019/04/07 00:51:00 BASE 14.21 128 23.36 136 -1.2 48 -10.8 0 0 976.3 NA 0.0000 HZ 9000 0 0 0 0
2019/04/07 00:52:00 BASE 16.34 130 23.36 136 -1.2 48 -10.7 0 0 976.3 NA 0.0000 HZ 8000 0 0 0 0
2019/04/07 00:53:00 BASE 17.02 130 23.36 136 -1.2 49 -10.7 0 0 976.3 NA 0.0000 HZ 9000 0 0 0 0
2019/04/07 00:54:00 BASE 16.74 130 23.36 136 -1.2 49 -10.6 0 0 976.3 NA 0.0000 HZ 9000 0 0 0 0
2019/04/07 00:55:00 BASE 18.50 131 21.40 135 -1.2 49 -10.6 0 0 976.3 NA 0.0000 HZ 9000 0 0 0 0
2019/04/07 00:56:00 BASE 18.25 130 21.35 135 -1.1 48 -10.8 0 0 976.4 NA 0.0000 HZ 9000 0 0 0 0
2019/04/07 00:57:00 BASE 18.01 130 21.35 135 -1.1 48 -10.8 0 0 976.3 NA 0.0000 HZ 9000 0 0 0 0
2019/04/07 00:58:00 BASE 19.87 131 22.38 129 -1.1 47 -11.0 0 0 976.2 NA 0.0000 HZ 9000 0 0 0 0
2019/04/07 00:59:00 BASE 21.33 130 24.33 126 -1.1 46 -11.2 0 0 976.2 NA 0.0000 HZ 9000 0 0 0 0
2019/04/07 01:00:00 BASE 22.07 129 24.33 126 -1.1 46 -11.3 0 0 976.3 NA 0.0000 HZ 9000 0 0 0 0
2019/04/07 01:01:00 BASE 21.17 129 24.33 126 -1.0 45 -11.4 0 0 976.3 NA 0.0000 HZ 9000 0 0 0 0
2019/04/07 01:02:00 BASE 19.99 127 24.33 126 -1.0 45 -11.6 0 0 976.3 NA 0.0000 HZ 8000 0 0 0 0
2019/04/07 01:03:00 BASE 17.98 127 24.33 126 -1.0 45 -11.5 0 0 976.4 NA 0.0000 HZ 8000 0 0 0 0
2019/04/07 01:04:00 BASE 17.28 127 24.33 126 -1.1 45 -11.4 0 0 976.4 NA 0.0000 HZ 8000 0 0 0 0
2019/04/07 01:05:00 BASE 18.13 127 24.33 126 -1.1 46 -11.2 0 0 976.4 NA 0.0000 HZ 8000 0 0 0 0
2019/04/07 01:06:00 BASE 17.91 130 24.33 126 -1.1 47 -11.0 0 0 976.4 NA 0.0000 HZ 9000 0 0 0 0
2019/04/07 01:07:00 BASE 17.78 132 24.33 126 -1.1 47 -10.9 0 0 976.4 NA 0.0000 HZ 9000 0 0 0 0
2019/04/07 01:08:00 BASE 17.78 132 24.33 126 -1.1 47 -10.9 0 0 976.5 NA 0.0000 HZ 9000 0 0 0 0
2019/04/07 01:09:00 BASE 16.59 130 23.72 128 -1.1 47 -10.9 0 0 976.5 NA 0.0000 HZ 9000 0 0 0 0
2019/04/07 01:10:00 BASE 15.35 129 23.72 128 -1.1 47 -10.9 0 0 976.6 NA 0.0000 HZ 9000 0 0 0 0
2019/04/07 01:11:00 BASE 15.38 129 22.22 131 -1.1 47 -10.9 0 0 976.6 NA 0.0000 HZ 9000 0 0 0 0
2019/04/07 01:12:00 BASE 15.46 130 21.20 120 -1.1 48 -10.8 0 0 976.6 NA 0.0000 HZ 9000 0 0 0 0
2019/04/07 01:13:00 BASE 16.70 133 21.20 120 -1.1 48 -10.8 0 0 976.6 NA 0.0000 HZ 9000 0 0 0 0
2019/04/07 01:14:00 BASE 16.53 133 19.70 131 -1.1 48 -10.8 0 0 976.6 NA 0.0000 HZ 9000 0 0 0 0
2019/04/07 01:15:00 BASE 16.40 132 19.91 141 -1.1 48 -10.8 0 0 976.6 NA 0.0000 HZ 9000 0 0 0 0
2019/04/07 01:16:00 BASE 17.84 133 20.63 137 -1.1 47 -10.9 0 0 976.6 NA 0.0000 HZ 9000 0 0 0 0
2019/04/07 01:17:00 BASE 17.49 132 20.63 137 -1.1 47 -11.0 0 0 976.6 NA 0.0000 HZ 9000 0 0 0 0
2019/04/07 01:18:00 BASE 16.15 130 20.63 137 -1.1 47 -11.0 0 0 976.7 NA 0.0000 HZ 9000 0 0 0 0
2019/04/07 01:19:00 BASE 15.95 130 20.63 137 -1.1 48 -10.8 0 0 976.7 NA 0.0000 HZ 9000 0 0 0 0
2019/04/07 01:20:00 BASE 16.30 128 20.63 137 -1.1 48 -10.8 0 0 976.6 NA 0.0000 HZ 8000 0 0 0 0
2019/04/07 01:21:00 BASE 16.08 127 20.63 137 -1.1 48 -10.7 0 0 976.7 NA 0.0000 HZ 8000 0 0 0 0
2019/04/07 01:22:00 BASE 15.21 128 20.63 137 -1.1 48 -10.7 0 0 976.8 NA 0.0000 HZ 8000 0 0 0 0
2019/04/07 01:23:00 BASE 14.17 128 20.63 137 -1.2 49 -10.5 0 0 976.8 NA 0.0000 HZ 8000 0 0 0 0
2019/04/07 01:24:00 BASE 14.93 129 20.63 137 -1.2 49 -10.6 0 0 976.8 NA 0.0000 HZ 8000 0 0 0 0
2019/04/07 01:25:00 BASE 14.94 130 20.63 137 -1.1 49 -10.5 0 0 976.8 NA 0.0000 HZ 8000 0 0 0 0
2019/04/07 01:26:00 BASE 14.08 129 18.78 125 -1.2 49 -10.4 0 0 976.8 NA 0.0000 HZ 9000 0 0 0 0
2019/04/07 01:27:00 BASE 13.69 122 18.37 133 -1.2 50 -10.3 0 0 976.9 NA 0.0000 HZ 9000 0 0 0 0
2019/04/07 01:28:00 BASE 12.74 115 18.37 133 -1.2 50 -10.3 0 0 977.0 NA 0.0000 HZ 9000 0 0 0 0
2019/04/07 01:29:00 BASE 11.84 117 18.37 133 -1.3 51 -10.2 0 0 977.0 NA 0.0000 HZ 9000 0 0 0 0
2019/04/07 01:30:00 BASE 11.61 120 17.29 125 -1.4 52 -10.1 0 0 977.0 NA 0.0000 HZ 9000 0 0 0 0
2019/04/07 01:31:00 BASE 12.45 123 17.13 132 -1.4 52 -10.0 0 0 977.0 NA 0.0000 HZ 8000 0 0 0 0
2019/04/07 01:32:00 BASE 13.81 124 17.13 132 -1.5 52 -10.0 0 0 977.0 NA 0.0000 HZ 9000 0 0 0 0
2019/04/07 01:33:00 BASE 14.77 127 17.13 132 -1.4 52 -10.0 0 0 976.9 NA 0.0000 HZ 9000 0 0 0 0
2019/04/07 01:34:00 BASE 14.08 127 16.77 131 -1.4 51 -10.1 0 0 977.0 NA 0.0000 HZ 9000 0 0 0 0
2019/04/07 01:35:00 BASE 13.76 124 16.77 131 -1.3 51 -10.1 0 0 977.0 NA 0.0000 HZ 9000 0 0 0 0
2019/04/07 01:36:00 BASE 14.81 124 17.13 131 -1.2 51 -10.1 0 0 977.0 NA 0.0000 HZ 9000 0 0 0 0
2019/04/07 01:37:00 BASE 14.08 124 17.13 131 -1.2 51 -10.1 0 0 977.1 NA 0.0000 HZ 8000 0 0 0 0
2019/04/07 01:38:00 BASE 12.37 122 17.13 131 -1.2 52 -9.9 0 0 977.1 NA 0.0000 HZ 8000 0 0 0 0
2019/04/07 01:39:00 BASE 13.45 120 17.13 131 -1.2 52 -9.8 0 0 977.1 NA 0.0000 HZ 9000 0 0 0 0
2019/04/07 01:40:00 BASE 13.97 117 17.13 131 -1.2 51 -10.0 0 0 977.1 NA 0.0000 HZ 8000 0 0 0 0
2019/04/07 01:41:00 BASE 11.86 113 17.13 131 -1.2 51 -10.0 0 0 977.2 NA 0.0000 HZ 9000 0 0 0 0
2019/04/07 01:42:00 BASE 10.45 107 17.13 131 -1.3 52 -10.0 0 0 977.2 NA 0.0000 HZ 9999 0 0 0 0
2019/04/07 01:43:00 BASE 10.29 108 17.13 131 -1.5 52 -10.1 0 0 977.2 NA 0.0000 HZ 9999 0 0 0 0
2019/04/07 01:44:00 BASE 11.00 111 17.13 131 -1.6 53 -10.1 0 0 977.3 NA 0.0000 HZ 9999 0 0 0 0
2019/04/07 01:45:00 BASE 12.22 116 17.13 131 -1.7 53 -10.0 0 0 977.3 NA 0.0000 HZ 9999 0 0 0 0
2019/04/07 01:46:00 BASE 13.57 121 16.98 111 -1.8 54 -10.0 0 0 977.3 NA 0.0000 HZ 9999 0 0 0 0
2019/04/07 01:47:00 BASE 13.58 128 16.98 111 -1.7 53 -10.0 0 0 977.3 NA 0.0000 9999 0 0 0 0
2019/04/07 01:48:00 BASE 11.96 125 16.98 111 -1.6 52 -10.1 0 0 977.3 NA 0.0000 9999 0 0 0 0
2019/04/07 01:49:00 BASE 13.02 120 17.54 130 -1.5 52 -10.2 0 0 977.3 NA 0.0000 9999 0 0 0 0
2019/04/07 01:50:00 BASE 15.77 124 17.80 126 -1.4 51 -10.2 0 0 977.3 NA 0.0000 9999 0 0 0 0
2019/04/07 01:51:00 BASE 15.12 126 17.80 126 -1.3 51 -10.3 0 0 977.3 NA 0.0000 9999 0 0 0 0
2019/04/07 01:52:00 BASE 13.13 122 17.80 126 -1.3 51 -10.2 0 0 977.4 NA 0.0000 9999 0 0 0 0
2019/04/07 01:53:00 BASE 11.76 118 17.80 126 -1.3 51 -10.2 0 0 977.4 NA 0.0000 9999 0 0 0 0
2019/04/07 01:54:00 BASE 11.55 118 17.80 126 -1.3 51 -10.1 0 0 977.4 NA 0.0000 9999 0 0 0 0
2019/04/07 01:55:00 BASE 12.14 118 17.80 126 -1.3 51 -10.1 0 0 977.4 NA 0.0000 9999 0 0 0 0
2019/04/07 01:56:00 BASE 12.07 117 17.80 126 -1.4 51 -10.1 0 0 977.4 NA 0.0000 9999 0 0 0 0
2019/04/07 01:57:00 BASE 11.30 117 17.80 126 -1.4 51 -10.3 0 0 977.5 NA 0.0000 9999 0 0 0 0
2019/04/07 01:58:00 BASE 10.79 117 17.80 126 -1.5 51 -10.4 0 0 977.5 NA 0.0000 9999 0 0 0 0
2019/04/07 01:59:00 BASE 10.75 114 17.80 126 -1.5 50 -10.5 0 0 977.6 NA 0.0000 9999 0 0 0 0
2019/04/07 02:00:00 BASE 11.13 117 16.77 125 -1.6 51 -10.5 0 0 977.6 NA 0.0000 9999 0 0 0 0
2019/04/07 02:01:00 BASE 11.34 125 13.48 137 -1.6 51 -10.5 0 0 977.6 NA 0.0000 9999 0 0 0 0
2019/04/07 02:02:00 BASE 10.54 125 13.48 137 -1.6 51 -10.4 0 0 977.6 NA 0.0000 9999 0 0 0 0
2019/04/07 02:03:00 BASE 10.10 119 13.48 137 -1.6 52 -10.3 0 0 977.6 NA 0.0000 9999 0 0 0 0
2019/04/07 02:04:00 BASE 10.95 116 13.48 137 -1.6 52 -10.2 0 0 977.6 NA 0.0000 9999 0 0 0 0
2019/04/07 02:05:00 BASE 11.73 115 13.58 116 -1.5 52 -10.2 0 0 977.6 NA 0.0000 9999 0 0 0 0
2019/04/07 02:06:00 BASE 11.87 117 13.58 116 -1.5 52 -10.1 0 0 977.6 NA 0.0000 9999 0 0 0 0
2019/04/07 02:07:00 BASE 11.71 117 13.58 116 -1.5 52 -10.1 0 0 977.7 NA 0.0000 9999 0 0 0 0
2019/04/07 02:08:00 BASE 11.12 113 13.58 116 -1.5 52 -10.1 0 0 977.8 NA 0.0000 9999 0 0 0 0
2019/04/07 02:09:00 BASE 10.87 110 13.58 116 -1.5 52 -10.1 0 0 977.8 NA 0.0000 9999 0 0 0 0
2019/04/07 02:10:00 BASE 11.24 112 13.58 116 -1.6 52 -10.1 0 0 977.8 NA 0.0000 9999 0 0 0 0
2019/04/07 02:11:00 BASE 12.27 115 13.63 118 -1.6 53 -10.1 0 0 977.8 NA 0.0000 9999 0 0 0 0
2019/04/07 02:12:00 BASE 12.83 116 13.63 118 -1.7 52 -10.2 0 0 977.7 NA 0.0000 9999 0 0 0 0
2019/04/07 02:13:00 BASE 11.95 115 13.63 118 -1.7 52 -10.4 0 0 977.8 NA 0.0000 9999 0 0 0 0
2019/04/07 02:14:00 BASE 10.99 114 13.63 118 -1.7 51 -10.6 0 0 977.8 NA 0.0000 9999 0 0 0 0
2019/04/07 02:15:00 BASE 11.04 115 13.63 118 -1.7 50 -10.7 0 0 977.8 NA 0.0000 9999 0 0 0 0
2019/04/07 02:16:00 BASE 11.60 119 13.63 118 -1.6 50 -10.7 0 0 977.8 NA 0.0000 9999 0 0 0 0
2019/04/07 02:17:00 BASE 13.10 125 15.95 140 -1.6 50 -10.6 0 0 977.7 NA 0.0000 9999 0 0 0 0
2019/04/07 02:18:00 BASE 14.47 124 16.20 123 -1.5 51 -10.4 0 0 977.8 NA 0.0000 9999 0 0 0 0
2019/04/07 02:19:00 BASE 13.75 115 16.20 123 -1.5 51 -10.2 0 0 977.9 NA 0.0000 9999 0 0 0 0
2019/04/07 02:20:00 BASE 13.35 110 16.20 123 -1.5 51 -10.2 0 0 977.9 NA 0.0000 9999 0 0 0 0
2019/04/07 02:21:00 BASE 13.84 110 16.20 123 -1.5 51 -10.2 0 0 977.9 NA 0.0000 9999 0 0 0 0
2019/04/07 02:22:00 BASE 13.83 113 16.20 123 -1.5 51 -10.4 0 0 977.9 NA 0.0000 9999 0 0 0 0
2019/04/07 02:23:00 BASE 13.53 114 16.20 123 -1.6 51 -10.5 0 0 977.9 NA 0.0000 9999 0 0 0 0
2019/04/07 02:24:00 BASE 12.40 112 16.20 123 -1.7 50 -10.6 0 0 977.9 NA 0.0000 9999 0 0 0 0
2019/04/07 02:25:00 BASE 11.51 110 16.20 123 -1.7 50 -10.7 0 0 978.0 NA 0.0000 9999 0 0 0 0
2019/04/07 02:26:00 BASE 11.63 108 16.20 123 -1.8 51 -10.7 0 0 978.0 NA 0.0000 9999 0 0 0 0
2019/04/07 02:27:00 BASE 11.73 109 16.20 123 -1.9 51 -10.6 0 0 978.1 NA 0.0000 9999 0 0 0 0
2019/04/07 02:28:00 BASE 11.44 111 15.33 112 -2.0 52 -10.6 0 0 978.1 NA 0.0000 9999 0 0 0 0
2019/04/07 02:29:00 BASE 11.38 113 15.33 112 -2.0 53 -10.5 0 0 978.1 NA 0.0000 9999 0 0 0 0
2019/04/07 02:30:00 BASE 12.48 113 14.71 115 -2.1 53 -10.3 0 0 978.1 NA 0.0000 9999 0 0 0 0
2019/04/07 02:31:00 BASE 13.24 118 14.56 118 -2.0 53 -10.3 0 0 978.1 NA 0.0000 9999 0 0 0 0
2019/04/07 02:32:00 BASE 12.51 120 14.30 123 -1.9 53 -10.2 0 0 978.1 NA 0.0000 9999 0 0 0 0
2019/04/07 02:33:00 BASE 11.37 116 14.30 123 -1.8 53 -10.1 0 0 978.2 NA 0.0000 9999 0 0 0 0
2019/04/07 02:34:00 BASE 10.41 115 14.30 123 -1.7 53 -10.0 0 0 978.2 NA 0.0000 9999 0 0 0 0
2019/04/07 02:35:00 BASE 10.54 119 14.30 123 -1.6 53 -9.9 0 0 978.2 NA 0.0000 9999 0 0 0 0
2019/04/07 02:36:00 BASE 12.05 123 14.97 125 -1.5 53 -9.9 0 0 978.1 NA 0.0000 9999 0 0 0 0
2019/04/07 02:37:00 BASE 14.81 126 17.54 125 -1.5 53 -9.9 0 0 978.1 NA 0.0000 9999 0 0 0 0
2019/04/07 02:38:00 BASE 15.07 126 17.54 125 -1.4 52 -10.0 0 0 978.2 NA 0.0000 9999 0 0 0 0
2019/04/07 02:39:00 BASE 12.74 123 17.54 125 -1.4 52 -10.1 0 0 978.2 NA 0.0000 9999 0 0 0 0
2019/04/07 02:40:00 BASE 11.73 122 17.54 125 -1.4 51 -10.3 0 0 978.3 NA 0.0000 9999 0 0 0 0
2019/04/07 02:41:00 BASE 11.62 125 17.54 125 -1.4 51 -10.3 0 0 978.3 NA 0.0000 9999 0 0 0 0
2019/04/07 02:42:00 BASE 12.53 131 17.54 125 -1.4 51 -10.3 0 0 978.3 NA 0.0000 9999 0 0 0 0
2019/04/07 02:43:00 BASE 13.20 131 17.54 125 -1.4 51 -10.2 0 0 978.3 NA 0.0000 9999 0 0 0 0
2019/04/07 02:44:00 BASE 12.81 127 17.54 125 -1.4 51 -10.1 0 0 978.3 NA 0.0000 9999 0 0 0 0
2019/04/07 02:45:00 BASE 11.91 126 17.54 125 -1.4 52 -10.1 0 0 978.3 NA 0.0000 9999 0 0 0 0
2019/04/07 02:46:00 BASE 11.59 126 17.54 125 -1.4 52 -10.1 0 0 978.4 NA 0.0000 9999 0 0 0 0
2019/04/07 02:47:00 BASE 11.20 125 14.92 123 -1.4 51 -10.1 0 0 978.4 NA 0.0000 9999 0 0 0 0
2019/04/07 02:48:00 BASE 10.43 123 14.71 136 -1.4 52 -10.1 0 0 978.4 NA 0.0000 9999 0 0 0 0
2019/04/07 02:49:00 BASE 10.64 118 14.71 136 -1.4 52 -10.1 0 0 978.5 NA 0.0000 9999 0 0 0 0
2019/04/07 02:50:00 BASE 11.30 113 14.71 136 -1.5 52 -10.0 0 0 978.5 NA 0.0000 9999 0 0 0 0
2019/04/07 02:51:00 BASE 11.76 112 14.71 136 -1.6 53 -10.0 0 1 978.5 NA 0.0000 9999 0 0 0 0
2019/04/07 02:52:00 BASE 11.59 113 13.94 125 -1.7 54 -9.9 0 0 978.5 NA 0.0000 9999 0 0 0 0
2019/04/07 02:53:00 BASE 11.39 112 13.89 130 -1.8 54 -9.9 0 0 978.5 NA 0.0000 9999 0 0 0 0
2019/04/07 02:54:00 BASE 11.09 112 13.89 130 -1.8 54 -9.8 0 0 978.5 NA 0.0000 9999 0 0 0 0
2019/04/07 02:55:00 BASE 10.71 113 13.68 128 -1.8 54 -9.9 0 0 978.5 NA 0.0000 9999 0 0 0 0
2019/04/07 02:56:00 BASE 10.97 116 12.45 113 -1.8 53 -10.1 0 0 978.5 NA 0.0000 9999 0 0 0 0
2019/04/07 02:57:00 BASE 11.30 117 12.45 113 -1.7 53 -10.1 0 0 978.5 NA 0.0000 9999 0 0 0 0
2019/04/07 02:58:00 BASE 11.69 116 13.74 117 -1.7 52 -10.2 0 0 978.5 NA 0.0000 9999 0 0 0 0
2019/04/07 02:59:00 BASE 11.39 117 13.74 117 -1.6 52 -10.3 0 0 978.5 NA 0.0000 9999 0 0 0 0
2019/04/07 03:00:00 BASE 10.99 117 13.74 117 -1.6 52 -10.3 0 0 978.5 NA 0.0000 9999 0 0 0 0
2019/04/07 03:01:00 BASE 11.11 113 13.74 117 -1.6 52 -10.3 0 0 978.6 NA 0.0000 9999 0 0 0 0
2019/04/07 03:02:00 BASE 11.12 115 13.74 117 -1.6 52 -10.3 0 0 978.6 NA 0.0000 9999 0 0 0 0
2019/04/07 03:03:00 BASE 10.99 119 13.74 117 -1.6 52 -10.2 0 0 978.6 NA 0.0000 9999 0 0 0 0
2019/04/07 03:04:00 BASE 10.78 120 13.74 117 -1.7 52 -10.2 0 0 978.6 NA 0.0000 9999 0 0 0 0
2019/04/07 03:05:00 BASE 10.69 123 13.74 117 -1.7 52 -10.2 0 0 978.6 NA 0.0000 9999 0 0 0 0
2019/04/07 03:06:00 BASE 10.53 124 13.74 117 -1.7 53 -10.2 0 0 978.6 NA 0.0000 9999 0 0 0 0
2019/04/07 03:07:00 BASE 10.88 127 13.74 117 -1.7 53 -10.1 0 0 978.6 NA 0.0000 9999 0 0 0 0
2019/04/07 03:08:00 BASE 11.89 126 13.58 123 -1.6 52 -10.1 0 0 978.6 NA 0.0000 9999 0 0 0 0
2019/04/07 03:09:00 BASE 11.98 119 13.58 123 -1.6 52 -10.2 0 0 978.7 NA 0.0000 9999 0 0 0 0
2019/04/07 03:10:00 BASE 11.08 122 13.58 123 -1.5 52 -10.2 0 0 978.7 NA 0.0000 9999 0 0 0 0
2019/04/07 03:11:00 BASE 11.09 126 13.58 123 -1.4 52 -10.1 0 0 978.6 NA 0.0000 9999 0 0 0 0
2019/04/07 03:12:00 BASE 11.32 130 13.58 123 -1.4 52 -10.0 0 0 978.6 NA 0.0000 9999 0 0 0 0
2019/04/07 03:13:00 BASE 11.79 137 14.66 144 -1.3 52 -9.9 0 0 978.6 NA 0.0000 9999 0 0 0 0
2019/04/07 03:14:00 BASE 11.69 137 14.66 144 -1.3 53 -9.8 0 0 978.6 NA 0.0000 9999 0 0 0 0
2019/04/07 03:15:00 BASE 12.10 137 18.31 137 -1.3 53 -9.6 0 0 978.6 NA 0.0000 9999 0 0 0 0
2019/04/07 03:16:00 BASE 14.73 140 18.31 145 -1.2 53 -9.6 0 0 978.5 NA 0.0000 9999 0 0 0 0
2019/04/07 03:17:00 BASE 16.37 140 18.31 145 -1.1 51 -10.0 0 0 978.5 NA 0.0000 9999 0 0 0 0
2019/04/07 03:18:00 BASE 15.25 139 18.31 145 -1.1 50 -10.3 0 0 978.6 NA 0.0000 9999 0 0 0 0
2019/04/07 03:19:00 BASE 13.35 139 18.31 145 -1.0 49 -10.4 0 0 978.6 NA 0.0000 9999 0 0 0 0
2019/04/07 03:20:00 BASE 13.50 137 18.31 145 -0.9 48 -10.6 0 0 978.6 NA 0.0000 9999 0 0 0 0
2019/04/07 03:21:00 BASE 14.54 139 18.31 145 -0.9 48 -10.7 0 0 978.6 NA 0.0000 9999 0 0 0 0
2019/04/07 03:22:00 BASE 14.42 140 18.31 145 -0.9 48 -10.6 0 0 978.6 NA 0.0000 9999 0 0 0 0
2019/04/07 03:23:00 BASE 13.73 136 18.31 145 -0.9 48 -10.4 0 0 978.7 NA 0.0000 9999 0 0 0 0
2019/04/07 03:24:00 BASE 14.05 132 18.31 145 -0.9 48 -10.4 0 0 978.7 NA 0.0000 9999 0 0 0 0
2019/04/07 03:25:00 BASE 14.03 129 18.31 145 -0.9 48 -10.5 0 0 978.7 NA 0.0000 9999 0 0 0 0
2019/04/07 03:26:00 BASE 13.63 128 18.11 136 -0.9 48 -10.4 0 0 978.7 NA 0.0000 9999 0 0 0 0
2019/04/07 03:27:00 BASE 14.52 128 17.34 137 -0.9 49 -10.4 0 0 978.7 NA 0.0000 9999 0 0 0 0
2019/04/07 03:28:00 BASE 15.54 125 18.31 116 -1.0 49 -10.4 0 0 978.8 NA 0.0000 9999 0 0 0 0
2019/04/07 03:29:00 BASE 15.79 127 18.31 116 -1.0 49 -10.4 0 0 978.8 NA 0.0000 9999 0 0 0 0
2019/04/07 03:30:00 BASE 16.12 131 18.93 129 -1.0 49 -10.4 0 0 978.7 NA 0.0000 9999 0 0 0 0
2019/04/07 03:31:00 BASE 16.44 132 18.93 129 -1.0 48 -10.5 0 0 978.7 NA 0.0000 9999 0 0 0 0
2019/04/07 03:32:00 BASE 16.50 134 18.93 129 -0.9 48 -10.6 0 0 978.7 NA 0.0000 9999 0 0 0 0
2019/04/07 03:33:00 BASE 16.01 137 18.93 129 -0.9 47 -10.7 0 0 978.8 NA 0.0000 9999 0 0 0 0
2019/04/07 03:34:00 BASE 15.08 137 18.93 129 -0.8 47 -10.8 0 0 978.8 NA 0.0000 9999 0 0 0 0
2019/04/07 03:35:00 BASE 15.13 134 18.93 129 -0.8 47 -10.8 0 0 978.8 NA 0.0000 9999 0 0 0 0
2019/04/07 03:36:00 BASE 14.97 133 18.93 129 -0.8 47 -10.7 0 0 978.8 NA 0.0000 9999 0 0 0 0
2019/04/07 03:37:00 BASE 14.82 136 18.93 129 -0.8 48 -10.5 0 0 978.8 NA 0.0000 9999 0 0 0 0
2019/04/07 03:38:00 BASE 14.59 135 18.93 129 -0.8 48 -10.4 0 0 978.8 NA 0.0000 9999 0 0 0 0
2019/04/07 03:39:00 BASE 14.70 133 18.93 129 -0.8 49 -10.2 0 0 978.8 NA 0.0000 9999 0 0 0 0
2019/04/07 03:40:00 BASE 17.06 132 20.83 129 -0.8 49 -10.2 0 0 978.8 NA 0.0000 9999 0 0 0 0
2019/04/07 03:41:00 BASE 17.39 127 20.83 129 -0.8 49 -10.3 0 0 978.9 NA 0.0000 9999 0 0 0 0
2019/04/07 03:42:00 BASE 14.75 125 20.83 129 -0.8 49 -10.2 0 0 979.0 NA 0.0000 9999 0 0 0 0
2019/04/07 03:43:00 BASE 13.81 124 20.83 129 -0.9 50 -10.1 0 0 979.0 NA 0.0000 9999 0 0 0 0
2019/04/07 03:44:00 BASE 13.84 120 20.83 129 -1.0 50 -10.1 0 0 979.0 NA 0.0000 9999 0 0 0 0
2019/04/07 03:45:00 BASE 11.67 107 20.83 129 -1.0 51 -10.0 0 0 979.1 NA 0.0000 9999 0 0 0 0
2019/04/07 03:46:00 BASE 9.69 97 20.83 129 -1.2 53 -9.7 0 1 979.1 NA 0.0000 9999 0 0 0 0
2019/04/07 03:47:00 BASE 9.52 99 20.83 129 -1.4 54 -9.6 0 0 979.1 NA 0.0000 9999 0 0 0 0
2019/04/07 03:48:00 BASE 9.82 105 20.83 129 -1.6 54 -9.6 0 0 979.2 NA 0.0000 9999 0 0 0 0
2019/04/07 03:49:00 BASE 11.20 111 20.83 129 -1.7 55 -9.7 0 0 979.2 NA 0.0000 9999 0 0 0 0
2019/04/07 03:50:00 BASE 11.71 109 19.03 137 -1.8 55 -9.7 0 0 979.2 NA 0.0000 9999 0 0 0 0
2019/04/07 03:51:00 BASE 11.42 107 15.90 138 -1.8 54 -9.8 0 0 979.2 NA 0.0000 9999 0 0 0 0
2019/04/07 03:52:00 BASE 11.98 107 15.90 138 -1.8 54 -9.9 0 0 979.2 NA 0.0000 9999 0 0 0 0
2019/04/07 03:53:00 BASE 12.03 107 15.59 121 -1.8 54 -10.0 0 0 979.2 NA 0.0000 9999 0 0 0 0
2019/04/07 03:54:00 BASE 11.70 110 13.58 111 -1.8 54 -9.9 0 0 979.2 NA 0.0000 9999 0 0 0 0
2019/04/07 03:55:00 BASE 12.67 112 14.46 117 -1.8 54 -9.9 0 0 979.1 NA 0.0000 9999 0 0 0 0
2019/04/07 03:56:00 BASE 13.14 111 14.46 117 -1.7 53 -10.0 0 0 979.1 NA 0.0000 9999 0 0 0 0
2019/04/07 03:57:00 BASE 12.22 116 14.46 117 -1.6 52 -10.1 0 0 979.2 NA 0.0000 9999 0 0 0 0
2019/04/07 03:58:00 BASE 12.56 117 14.82 117 -1.5 52 -10.2 0 0 979.2 NA 0.0000 9999 0 0 0 0
2019/04/07 03:59:00 BASE 12.65 113 14.82 117 -1.4 51 -10.3 0 0 979.2 NA 0.0000 9999 0 0 0 0
2019/04/07 04:00:00 BASE 11.61 109 14.82 117 -1.4 51 -10.3 0 0 979.2 NA 0.0000 9999 0 0 0 0
2019/04/07 04:01:00 BASE 11.28 105 14.82 117 -1.5 52 -10.1 0 0 979.3 NA 0.0000 9999 0 0 0 0
2019/04/07 04:02:00 BASE 10.85 105 14.82 117 -1.6 53 -10.0 0 0 979.2 NA 0.0000 9999 0 0 0 0
2019/04/07 04:03:00 BASE 10.70 106 14.82 117 -1.7 54 -9.8 0 0 979.2 NA 0.0000 9999 0 0 0 0
2019/04/07 04:04:00 BASE 10.52 108 14.82 117 -1.9 55 -9.8 0 0 979.2 NA 0.0000 9999 0 0 0 0
2019/04/07 04:05:00 BASE 9.91 111 14.82 117 -1.9 55 -9.7 0 0 979.3 NA 0.0000 9999 0 0 0 0
2019/04/07 04:06:00 BASE 9.95 113 14.82 117 -2.0 55 -9.8 0 0 979.3 NA 0.0000 9999 0 0 0 0
2019/04/07 04:07:00 BASE 10.13 110 14.82 117 -2.0 55 -9.9 0 0 979.3 NA 0.0000 9999 0 0 0 0
2019/04/07 04:08:00 BASE 10.68 108 13.12 111 -2.0 54 -10.0 0 0 979.4 NA 0.0000 9999 0 0 0 0
2019/04/07 04:09:00 BASE 10.83 107 13.12 111 -1.9 53 -10.2 0 0 979.4 NA 0.0000 9999 0 0 0 0
2019/04/07 04:10:00 BASE 10.69 107 13.12 111 -1.9 53 -10.3 0 0 979.4 NA 0.0000 9999 0 0 0 0
2019/04/07 04:11:00 BASE 11.29 109 13.27 124 -1.9 52 -10.4 0 0 979.4 NA 0.0000 9999 0 0 0 0
2019/04/07 04:12:00 BASE 11.18 112 13.27 124 -1.8 51 -10.5 0 0 979.4 NA 0.0000 9999 0 0 0 0
2019/04/07 04:13:00 BASE 10.62 112 13.27 124 -1.7 51 -10.6 0 0 979.4 NA 0.0000 9999 0 0 0 0
2019/04/07 04:14:00 BASE 10.46 114 13.27 124 -1.6 50 -10.7 0 0 979.4 NA 0.0000 9999 0 0 0 0
2019/04/07 04:15:00 BASE 10.28 116 13.27 124 -1.5 50 -10.7 0 0 979.4 NA 0.0000 9999 0 0 0 0
2019/04/07 04:16:00 BASE 10.11 116 13.27 124 -1.5 49 -10.9 0 0 979.5 NA 0.0000 9999 0 0 0 0
2019/04/07 04:17:00 BASE 9.73 118 13.27 124 -1.4 48 -11.0 0 0 979.5 NA 0.0000 9999 0 0 0 0
2019/04/07 04:18:00 BASE 9.48 118 13.27 124 -1.4 48 -11.1 0 0 979.5 NA 0.0000 9999 0 0 0 0
2019/04/07 04:19:00 BASE 9.26 120 13.27 124 -1.4 47 -11.3 0 0 979.5 NA 0.0000 9999 0 0 0 0
2019/04/07 04:20:00 BASE 9.07 121 13.27 124 -1.4 46 -11.4 0 0 979.5 NA 0.0000 9999 0 0 0 0
2019/04/07 04:21:00 BASE 9.39 119 12.66 130 -1.4 47 -11.3 0 0 979.6 NA 0.0000 9999 0 0 0 0
2019/04/07 04:22:00 BASE 9.19 117 12.66 130 -1.4 47 -11.3 0 0 979.6 NA 0.0000 9999 0 0 0 0
2019/04/07 04:23:00 BASE 9.15 113 12.66 130 -1.4 48 -11.1 0 0 979.6 NA 0.0000 9999 0 0 0 0
2019/04/07 04:24:00 BASE 9.40 109 10.70 122 -1.5 49 -10.9 0 0 979.6 NA 0.0000 9999 0 0 0 0
2019/04/07 04:25:00 BASE 9.77 107 10.75 106 -1.6 50 -10.8 0 0 979.7 NA 0.0000 9999 0 0 0 0
2019/04/07 04:26:00 BASE 10.12 107 10.75 106 -1.8 51 -10.6 0 0 979.7 NA 0.0000 9999 0 0 0 0
2019/04/07 04:27:00 BASE 9.88 108 10.75 106 -1.9 52 -10.4 0 0 979.7 NA 0.0000 9999 0 0 0 0
2019/04/07 04:28:00 BASE 9.46 108 10.75 106 -2.1 53 -10.3 0 0 979.7 NA 0.0000 9999 0 0 0 0
2019/04/07 04:29:00 BASE 9.31 108 10.75 106 -2.1 54 -10.3 0 0 979.7 NA 0.0000 9999 0 0 0 0
2019/04/07 04:30:00 BASE 9.64 107 10.75 106 -2.2 54 -10.3 0 0 979.8 NA 0.0000 9999 0 0 0 0
2019/04/07 04:31:00 BASE 9.80 107 10.75 106 -2.1 53 -10.4 0 0 979.8 NA 0.0000 9999 0 0 0 0
2019/04/07 04:32:00 BASE 9.39 104 10.75 106 -2.1 53 -10.4 0 0 979.8 NA 0.0000 9999 0 0 0 0
2019/04/07 04:33:00 BASE 8.95 102 10.75 106 -2.1 53 -10.4 0 0 979.8 NA 0.0000 9999 0 0 0 0
2019/04/07 04:34:00 BASE 9.71 109 11.47 120 -2.1 53 -10.4 0 0 979.8 NA 0.0000 9999 0 0 0 0
2019/04/07 04:35:00 BASE 10.48 117 11.47 120 -2.0 52 -10.5 0 0 979.8 NA 0.0000 9999 0 0 0 0
2019/04/07 04:36:00 BASE 10.08 120 11.47 120 -1.9 51 -10.7 0 0 979.8 NA 0.0000 9999 0 0 0 0
2019/04/07 04:37:00 BASE 9.31 115 11.47 120 -1.7 50 -10.8 0 0 979.8 NA 0.0000 9999 0 0 0 0
2019/04/07 04:38:00 BASE 9.17 116 11.47 120 -1.6 49 -11.0 0 0 979.8 NA 0.0000 9999 0 0 0 0
2019/04/07 04:39:00 BASE 9.43 121 11.47 120 -1.5 48 -11.1 0 0 979.8 NA 0.0000 9999 0 0 0 0
2019/04/07 04:40:00 BASE 8.55 121 11.47 120 -1.4 47 -11.2 0 0 979.8 NA 0.0000 9999 0 0 0 0
2019/04/07 04:41:00 BASE 8.26 123 11.47 120 -1.4 47 -11.2 0 0 979.8 NA 0.0000 9999 0 0 0 0
2019/04/07 04:42:00 BASE 8.19 120 11.47 120 -1.3 47 -11.3 0 0 979.9 NA 0.0000 9999 0 0 0 0
2019/04/07 04:43:00 BASE 7.54 111 11.47 120 -1.3 47 -11.3 0 0 979.9 NA 0.0000 9999 0 0 0 0
2019/04/07 04:44:00 BASE 7.46 109 11.42 122 -1.3 47 -11.2 0 0 979.9 NA 0.0000 9999 0 0 0 0
2019/04/07 04:45:00 BASE 7.52 108 10.65 123 -1.4 47 -11.2 0 0 979.9 NA 0.0000 9999 0 0 0 0
2019/04/07 04:46:00 BASE 7.34 110 10.29 121 -1.4 48 -11.1 0 0 979.9 NA 0.0000 9999 0 0 0 0
2019/04/07 04:47:00 BASE 7.53 113 10.29 121 -1.6 49 -11.0 0 0 979.9 NA 0.0000 9999 0 0 0 0
2019/04/07 04:48:00 BASE 7.67 110 9.98 118 -1.6 49 -10.9 0 0 980.0 NA 0.0000 9999 0 0 0 0
2019/04/07 04:49:00 BASE 6.87 106 9.62 124 -1.6 49 -11.0 0 0 979.9 NA 0.0000 9999 0 0 0 0
2019/04/07 04:50:00 BASE 6.39 105 9.62 124 -1.5 48 -11.0 0 0 979.9 NA 0.0000 9999 0 0 0 0
2019/04/07 04:51:00 BASE 6.75 109 8.49 105 -1.5 48 -11.0 0 0 979.9 NA 0.0000 9999 0 0 0 0
2019/04/07 04:52:00 BASE 6.98 109 8.49 105 -1.4 48 -11.0 0 0 979.9 NA 0.0000 9999 0 0 0 0
2019/04/07 04:53:00 BASE 7.05 105 9.11 116 -1.4 48 -11.1 0 0 980.0 NA 0.0000 9999 0 0 0 0
2019/04/07 04:54:00 BASE 7.90 116 9.41 119 -1.4 48 -11.0 0 0 980.0 NA 0.0000 9999 0 0 0 0
2019/04/07 04:55:00 BASE 7.64 122 9.41 119 -1.3 48 -11.0 0 0 980.1 NA 0.0000 9999 0 0 0 0
2019/04/07 04:56:00 BASE 6.89 115 9.41 119 -1.3 48 -11.0 0 0 980.1 NA 0.0000 9999 0 0 0 0
2019/04/07 04:57:00 BASE 7.23 109 9.41 119 -1.4 48 -11.0 0 0 980.1 NA 0.0000 9999 0 0 0 0
2019/04/07 04:58:00 BASE 7.17 102 9.41 119 -1.4 48 -10.9 0 0 980.1 NA 0.0000 9999 0 0 0 0
2019/04/07 04:59:00 BASE 6.52 97 9.41 119 -1.5 49 -11.0 0 0 980.1 NA 0.0000 9999 0 0 0 0
2019/04/07 05:00:00 BASE 5.76 102 9.41 119 -1.7 50 -10.9 0 0 980.1 NA 0.0000 9999 0 0 0 0
2019/04/07 05:01:00 BASE 5.59 113 9.41 119 -1.9 51 -10.8 0 0 980.1 NA 0.0000 9999 0 0 0 0
2019/04/07 05:02:00 BASE 5.97 118 9.41 119 -2.0 51 -10.8 0 0 980.1 NA 0.0000 9999 0 0 0 0
2019/04/07 05:03:00 BASE 6.28 120 9.41 119 -2.0 51 -10.8 0 0 980.1 NA 0.0000 9999 0 0 0 0
2019/04/07 05:04:00 BASE 6.40 122 7.87 105 -2.0 51 -10.8 0 0 980.1 NA 0.0000 9999 0 0 0 0
2019/04/07 05:05:00 BASE 6.13 122 7.87 105 -1.9 50 -10.9 0 0 980.1 NA 0.0000 9999 0 0 0 0
2019/04/07 05:06:00 BASE 6.12 121 7.87 105 -1.8 49 -11.1 0 0 980.2 NA 0.0000 9999 0 0 0 0
2019/04/07 05:07:00 BASE 6.49 124 7.51 96 -1.7 48 -11.2 0 0 980.2 NA 0.0000 9999 0 0 0 0
2019/04/07 05:08:00 BASE 6.81 125 7.31 135 -1.6 47 -11.4 0 0 980.2 NA 0.0000 9999 0 0 0 0
2019/04/07 05:09:00 BASE 7.07 125 8.03 127 -1.5 47 -11.5 0 0 980.2 NA 0.0000 9999 0 0 0 0
2019/04/07 05:10:00 BASE 7.39 127 8.18 122 -1.4 46 -11.6 0 0 980.2 NA 0.0000 9999 0 0 0 0
2019/04/07 05:11:00 BASE 7.07 124 8.18 122 -1.3 46 -11.6 0 0 980.2 NA 0.0000 9999 0 0 0 0
2019/04/07 05:12:00 BASE 6.39 119 8.18 122 -1.3 45 -11.7 0 0 980.2 NA 0.0000 9999 0 0 0 0
2019/04/07 05:13:00 BASE 6.55 120 8.18 122 -1.3 45 -11.6 0 0 980.2 NA 0.0000 9999 0 0 0 0
2019/04/07 05:14:00 BASE 6.69 121 8.18 122 -1.4 46 -11.5 0 0 980.2 NA 0.0000 9999 0 0 0 0
2019/04/07 05:15:00 BASE 6.89 118 8.18 122 -1.5 47 -11.4 0 0 980.3 NA 0.0000 9999 0 0 0 0
2019/04/07 05:16:00 BASE 7.40 118 8.18 122 -1.6 47 -11.4 0 0 980.3 NA 0.0000 9999 0 0 0 0
2019/04/07 05:17:00 BASE 7.30 118 8.18 122 -1.7 48 -11.3 0 0 980.3 NA 0.0000 9999 0 0 0 0
2019/04/07 05:18:00 BASE 7.04 117 8.18 122 -1.7 48 -11.2 0 0 980.3 NA 0.0000 9999 0 0 0 0
2019/04/07 05:19:00 BASE 7.13 116 8.18 122 -1.8 49 -11.2 0 0 980.3 NA 0.0000 9999 0 0 0 0
2019/04/07 05:20:00 BASE 7.09 114 8.13 120 -1.8 49 -11.1 0 0 980.3 NA 0.0000 9999 0 0 0 0
2019/04/07 05:21:00 BASE 7.07 116 8.13 120 -1.9 49 -11.1 0 0 980.3 NA 0.0000 9999 0 0 0 0
2019/04/07 05:22:00 BASE 7.16 120 8.13 120 -1.9 50 -11.0 0 0 980.3 NA 0.0000 9999 0 0 0 0
2019/04/07 05:23:00 BASE 6.92 121 8.13 120 -1.8 49 -11.1 0 0 980.3 NA 0.0000 9999 0 0 0 0
2019/04/07 05:24:00 BASE 6.48 121 8.13 120 -1.7 48 -11.3 0 0 980.4 NA 0.0000 9999 0 0 0 0
2019/04/07 05:25:00 BASE 5.96 119 8.13 120 -1.6 47 -11.4 0 0 980.4 NA 0.0000 9999 0 0 0 0
2019/04/07 05:26:00 BASE 5.81 118 8.03 120 -1.5 46 -11.6 0 0 980.4 NA 0.0000 9999 0 0 0 0
2019/04/07 05:27:00 BASE 6.16 120 8.03 120 -1.5 46 -11.7 0 0 980.4 NA 0.0000 9999 0 0 0 0
2019/04/07 05:28:00 BASE 6.38 120 8.03 120 -1.5 46 -11.7 0 0 980.4 NA 0.0000 9999 0 0 0 0
2019/04/07 05:29:00 BASE 6.47 121 7.82 122 -1.5 46 -11.7 0 0 980.4 NA 0.0000 9999 0 0 0 0
2019/04/07 05:30:00 BASE 6.42 124 7.82 122 -1.5 46 -11.7 0 0 980.4 NA 0.0000 9999 0 0 0 0
2019/04/07 05:31:00 BASE 6.21 125 7.82 122 -1.5 46 -11.7 0 0 980.4 NA 0.0000 9999 0 0 0 0
2019/04/07 05:32:00 BASE 6.05 123 7.31 123 -1.3 45 -11.8 0 0 980.4 NA 0.0000 9999 0 0 0 0
2019/04/07 05:33:00 BASE 6.04 125 7.10 120 -1.2 44 -11.9 0 0 980.5 NA 0.0000 9999 0 0 0 0
2019/04/07 05:34:00 BASE 5.87 125 7.10 120 -1.2 44 -12.0 0 0 980.6 NA 0.0000 9999 0 0 0 0
2019/04/07 05:35:00 BASE 5.58 123 7.10 120 -1.1 43 -12.0 0 0 980.6 NA 0.0000 9999 0 0 0 0
2019/04/07 05:36:00 BASE 5.93 122 7.15 127 -1.1 44 -12.0 0 0 980.6 NA 0.0000 9999 0 0 0 0
2019/04/07 05:37:00 BASE 6.39 125 7.15 127 -1.2 44 -11.9 0 0 980.6 NA 0.0000 9999 0 0 0 0
2019/04/07 05:38:00 BASE 6.35 130 7.15 127 -1.2 44 -11.8 0 0 980.7 NA 0.0000 9999 0 0 0 0
2019/04/07 05:39:00 BASE 5.98 134 7.15 127 -1.2 45 -11.8 0 0 980.7 NA 0.0000 9999 0 0 0 0
2019/04/07 05:40:00 BASE 5.47 131 7.15 127 -1.3 45 -11.7 0 0 980.7 NA 0.0000 9999 0 0 0 0
2019/04/07 05:41:00 BASE 5.18 123 7.15 127 -1.2 44 -11.8 0 0 980.7 NA 0.0000 9999 0 0 0 0
2019/04/07 05:42:00 BASE 5.14 121 7.15 127 -1.2 44 -11.9 0 0 980.7 NA 0.0000 9999 0 0 0 0
2019/04/07 05:43:00 BASE 5.26 121 7.15 127 -1.2 44 -11.9 0 0 980.7 NA 0.0000 9999 0 0 0 0
2019/04/07 05:44:00 BASE 5.24 115 7.15 127 -1.4 45 -11.8 0 0 980.7 NA 0.0000 9999 0 0 0 0
2019/04/07 05:45:00 BASE 5.02 113 7.15 127 -1.6 46 -11.8 0 0 980.8 NA 0.0000 9999 0 0 0 0
2019/04/07 05:46:00 BASE 4.99 117 6.79 132 -1.8 47 -11.6 0 0 980.8 NA 0.0000 9999 0 0 0 0
2019/04/07 05:47:00 BASE 5.02 120 6.79 132 -2.0 48 -11.5 0 0 980.8 NA 0.0000 9999 0 0 0 0
2019/04/07 05:48:00 BASE 5.06 120 6.12 138 -2.1 49 -11.4 0 0 980.8 NA 0.0000 9999 0 0 0 0
2019/04/07 05:49:00 BASE 5.30 120 5.81 124 -2.2 50 -11.3 0 0 980.8 NA 0.0000 9999 0 0 0 0
2019/04/07 05:50:00 BASE 5.42 123 5.92 124 -2.3 50 -11.3 0 0 980.8 NA 0.0000 9999 0 0 0 0
2019/04/07 05:51:00 BASE 5.41 125 5.92 124 -2.3 50 -11.2 0 0 980.8 NA 0.0000 9999 0 0 0 0
2019/04/07 05:52:00 BASE 5.43 126 5.92 124 -2.4 51 -11.2 0 0 980.9 NA 0.0000 9999 0 0 0 0
2019/04/07 05:53:00 BASE 5.26 127 5.92 124 -2.3 50 -11.3 0 0 980.8 NA 0.0000 9999 0 0 0 0
2019/04/07 05:54:00 BASE 4.98 124 5.92 124 -2.2 50 -11.4 0 0 980.8 NA 0.0000 9999 0 0 0 0
2019/04/07 05:55:00 BASE 4.65 122 5.92 124 -2.1 49 -11.5 0 0 980.8 NA 0.0000 9999 0 0 0 0
2019/04/07 05:56:00 BASE 4.57 123 5.92 124 -2.1 48 -11.5 0 0 980.9 NA 0.0000 9999 0 0 0 0
2019/04/07 05:57:00 BASE 4.57 124 5.92 124 -2.1 48 -11.6 0 0 980.9 NA 0.0000 9999 0 0 0 0
2019/04/07 05:58:00 BASE 4.39 123 5.92 124 -2.1 48 -11.6 0 0 980.9 NA 0.0000 9999 0 0 0 0
2019/04/07 05:59:00 BASE 4.56 120 5.92 124 -2.2 49 -11.6 0 0 980.9 NA 0.0000 9999 0 0 0 0
2019/04/07 06:00:00 BASE 4.73 121 5.81 130 -2.2 49 -11.5 0 0 980.9 NA 0.0000 9999 0 0 0 0
2019/04/07 06:01:00 BASE 4.56 123 5.81 130 -2.2 49 -11.5 0 0 981.0 NA 0.0000 9999 0 0 0 0
2019/04/07 06:02:00 BASE 4.29 120 5.35 129 -2.2 49 -11.5 0 0 981.0 NA 0.0000 9999 0 0 0 0
2019/04/07 06:03:00 BASE 4.09 119 5.14 119 -2.1 49 -11.5 0 0 981.0 NA 0.0000 9999 0 0 0 0
2019/04/07 06:04:00 BASE 3.84 122 4.99 122 -2.1 48 -11.6 0 0 981.0 NA 0.0000 9999 0 0 0 0
2019/04/07 06:05:00 BASE 3.50 123 4.99 122 -1.9 47 -11.7 0 0 981.0 NA 0.0000 9999 0 0 0 0
2019/04/07 06:06:00 BASE 3.32 123 4.99 122 -1.8 47 -11.8 0 0 981.0 NA 0.0000 9999 0 0 0 0
2019/04/07 06:07:00 BASE 3.25 121 4.99 122 -1.7 46 -11.8 0 0 981.0 NA 0.0000 9999 0 0 0 0
2019/04/07 06:08:00 BASE 3.11 120 4.99 122 -1.6 45 -11.9 0 0 981.0 NA 0.0000 9999 0 0 0 0
2019/04/07 06:09:00 BASE 2.85 124 4.99 122 -1.5 45 -12.1 0 0 981.0 NA 0.0000 9999 0 0 0 0
2019/04/07 06:10:00 BASE 2.70 124 4.84 119 -1.5 44 -12.1 0 0 981.0 NA 0.0000 9999 0 0 0 0
2019/04/07 06:11:00 BASE 2.69 121 4.42 116 -1.6 44 -12.1 0 0 981.0 NA 0.0000 9999 0 0 0 0
2019/04/07 06:12:00 BASE 2.69 121 4.37 118 -1.6 44 -12.2 0 0 981.0 NA 0.0000 9999 0 0 0 0
2019/04/07 06:13:00 BASE 2.41 122 3.76 127 -1.5 44 -12.2 0 0 981.0 NA 0.0000 9999 0 0 0 0
2019/04/07 06:14:00 BASE 2.34 120 3.76 127 -1.5 44 -12.3 0 0 981.0 NA 0.0000 9999 0 0 0 0
2019/04/07 06:15:00 BASE 2.36 121 3.45 121 -1.4 43 -12.3 0 0 981.1 NA 0.0000 9999 0 0 0 0
2019/04/07 06:16:00 BASE 1.88 123 3.40 121 -1.3 43 -12.3 0 0 981.2 NA 0.0000 9999 0 0 0 0
2019/04/07 06:17:00 BASE 1.66 115 3.19 119 -1.3 43 -12.3 0 0 981.2 NA 0.0000 9999 0 0 0 0
2019/04/07 06:18:00 BASE 1.84 110 2.98 118 -1.3 43 -12.2 0 0 981.2 NA 0.0000 9999 0 0 0 0
2019/04/07 06:19:00 BASE 1.51 112 2.98 118 -1.3 44 -12.0 0 0 981.2 NA 0.0000 9999 0 0 0 0
2019/04/07 06:20:00 BASE 1.66 102 2.88 122 -1.4 45 -11.9 0 0 981.2 NA 0.0000 9999 0 0 0 0
2019/04/07 06:21:00 BASE 2.05 95 2.98 93 -1.4 45 -11.8 0 0 981.2 NA 0.0000 9999 0 0 0 0
2019/04/07 06:22:00 BASE 2.22 102 2.98 107 -1.5 45 -11.9 0 0 981.2 NA 0.0000 9999 0 0 0 0
2019/04/07 06:23:00 BASE 2.36 99 2.98 107 -1.5 45 -12.0 0 0 981.2 NA 0.0000 9999 0 0 0 0
2019/04/07 06:24:00 BASE 2.24 87 2.98 107 -1.5 44 -12.1 0 0 981.2 NA 0.0000 9999 0 0 0 0
2019/04/07 06:25:00 BASE 2.08 83 2.98 107 -1.5 44 -12.3 0 0 981.2 NA 0.0000 9999 0 0 0 0
2019/04/07 06:26:00 BASE 1.84 85 2.98 107 -1.4 43 -12.4 0 0 981.2 NA 0.0000 9999 0 0 0 0
2019/04/07 06:27:00 BASE 1.91 92 2.98 107 -1.4 43 -12.5 0 0 981.3 NA 0.0000 9999 0 0 0 0
2019/04/07 06:28:00 BASE 1.98 104 2.98 107 -1.5 43 -12.4 0 0 981.4 NA 0.0000 9999 0 0 0 0
2019/04/07 06:29:00 BASE 1.80 107 2.98 107 -1.5 43 -12.4 0 0 981.4 NA 0.0000 9999 0 0 0 0
2019/04/07 06:30:00 BASE 1.79 114 2.98 107 -1.5 44 -12.3 0 0 981.4 NA 0.0000 9999 0 0 0 0
2019/04/07 06:31:00 BASE 1.71 121 2.98 107 -1.5 44 -12.2 0 0 981.4 NA 0.0000 9999 0 0 0 0
2019/04/07 06:32:00 BASE 0.80 133 2.73 96 -1.5 44 -12.1 0 0 981.4 NA 0.0000 9999 0 0 0 0
2019/04/07 06:33:00 BASE 0.27 152 2.62 120 -1.5 45 -12.0 0 0 981.4 NA 0.0000 9999 0 0 0 0
2019/04/07 06:34:00 BASE 0.39 174 2.62 120 -1.4 45 -11.8 0 0 981.4 NA 0.0000 9999 0 0 0 0
2019/04/07 06:35:00 BASE 0.68 188 2.62 120 -1.3 45 -11.6 0 0 981.4 NA 0.0000 9999 0 0 0 0
2019/04/07 06:36:00 BASE 1.01 195 2.62 120 -1.2 46 -11.4 0 0 981.4 NA 0.0000 9999 0 0 0 0
2019/04/07 06:37:00 BASE 1.12 192 2.21 136 -1.1 46 -11.3 0 0 981.4 NA 0.0000 9999 0 0 0 0
2019/04/07 06:38:00 BASE 1.29 184 2.21 136 -1.0 46 -11.3 0 0 981.5 NA 0.0000 9999 0 0 0 0
2019/04/07 06:39:00 BASE 1.44 185 2.21 136 -0.9 45 -11.2 0 0 981.5 NA 0.0000 9999 0 0 0 0
2019/04/07 06:40:00 BASE 1.66 190 2.11 100 -0.9 45 -11.2 0 0 981.5 NA 0.0000 9999 0 0 0 0
2019/04/07 06:41:00 BASE 1.76 194 1.90 194 -0.9 45 -11.2 0 0 981.5 NA 0.0000 9999 0 0 0 0
2019/04/07 06:42:00 BASE 1.99 193 2.78 193 -0.9 46 -11.2 0 0 981.5 NA 0.0000 9999 0 0 0 0
2019/04/07 06:43:00 BASE 2.35 193 3.09 178 -1.1 46 -11.1 0 0 981.6 NA 0.0000 9999 0 0 0 0
2019/04/07 06:44:00 BASE 2.19 189 3.09 178 -1.2 47 -11.0 0 0 981.6 NA 0.0000 9999 0 0 0 0
2019/04/07 06:45:00 BASE 2.00 186 3.09 178 -1.3 48 -10.9 0 0 981.6 NA 0.0000 9999 0 0 0 0
2019/04/07 06:46:00 BASE 2.07 173 3.09 178 -1.4 49 -10.8 0 0 981.6 NA 0.0000 9999 0 0 0 0
2019/04/07 06:47:00 BASE 2.32 166 3.24 180 -1.6 50 -10.7 0 0 981.6 NA 0.0000 9999 0 0 0 0
2019/04/07 06:48:00 BASE 2.70 171 3.24 180 -1.6 50 -10.6 0 0 981.6 NA 0.0000 9999 0 0 0 0
2019/04/07 06:49:00 BASE 2.47 162 3.24 180 -1.7 51 -10.5 0 0 981.6 NA 0.0000 9999 0 0 0 0
2019/04/07 06:50:00 BASE 2.40 145 3.24 180 -1.7 51 -10.4 0 0 981.6 NA 0.0000 9999 0 0 0 0
2019/04/07 06:51:00 BASE 3.07 147 3.91 151 -1.7 52 -10.3 0 0 981.6 NA 0.0000 9999 0 0 0 0
2019/04/07 06:52:00 BASE 3.53 157 4.22 165 -1.6 52 -10.2 0 0 981.7 NA 0.0000 9999 0 0 0 0
2019/04/07 06:53:00 BASE 3.34 157 4.22 165 -1.6 52 -10.1 0 0 981.7 NA 0.0000 9999 0 0 0 0
2019/04/07 06:54:00 BASE 3.12 157 4.22 165 -1.7 53 -10.0 0 0 981.7 NA 0.0000 9999 0 0 0 0
2019/04/07 06:55:00 BASE 3.09 156 4.22 165 -1.7 53 -9.9 0 0 981.7 NA 0.0000 9999 0 0 0 0
2019/04/07 06:56:00 BASE 3.08 155 4.22 165 -1.7 54 -9.8 0 0 981.8 NA 0.0000 9999 0 0 0 0
2019/04/07 06:57:00 BASE 3.07 152 4.22 165 -1.8 55 -9.7 0 0 981.8 NA 0.0000 9999 0 0 0 0
2019/04/07 06:58:00 BASE 3.16 152 4.22 165 -1.8 56 -9.5 0 0 981.8 NA 0.0000 9999 0 0 0 0
2019/04/07 06:59:00 BASE 3.05 151 4.22 165 -1.8 56 -9.5 0 0 981.8 NA 0.0000 9999 0 0 0 0
2019/04/07 07:00:00 BASE 3.14 149 4.22 165 -1.8 56 -9.4 0 0 981.8 NA 0.0000 9999 0 0 0 0
2019/04/07 07:01:00 BASE 3.52 151 4.22 165 -1.7 56 -9.3 0 0 981.8 NA 0.0000 9999 0 0 0 0
2019/04/07 07:02:00 BASE 3.66 156 4.01 163 -1.6 56 -9.3 0 0 981.8 NA 0.0000 9999 0 0 0 0
2019/04/07 07:03:00 BASE 3.66 159 4.01 163 -1.6 56 -9.2 0 0 981.9 NA 0.0000 9999 0 0 0 0
2019/04/07 07:04:00 BASE 3.46 158 4.01 163 -1.6 57 -9.0 0 0 982.0 NA 0.0000 9999 0 0 0 0
2019/04/07 07:05:00 BASE 3.38 154 4.01 163 -1.6 58 -8.9 0 0 982.0 NA 0.0000 9999 0 0 0 0
2019/04/07 07:06:00 BASE 3.29 156 4.01 157 -1.7 58 -8.8 0 0 982.0 NA 0.0000 9999 0 0 0 0
2019/04/07 07:07:00 BASE 3.10 163 4.01 157 -1.8 59 -8.7 0 0 982.0 NA 0.0000 9999 0 0 0 0
2019/04/07 07:08:00 BASE 2.96 157 4.01 157 -1.8 60 -8.6 0 0 982.0 NA 0.0000 9999 0 0 0 0
2019/04/07 07:09:00 BASE 2.91 145 4.01 157 -1.8 60 -8.5 0 0 982.0 NA 0.0000 9999 0 0 0 0
2019/04/07 07:10:00 BASE 3.04 142 4.01 157 -1.8 60 -8.5 0 0 982.0 NA 0.0000 9999 0 0 0 0
2019/04/07 07:11:00 BASE 3.43 143 4.12 148 -1.7 60 -8.4 0 0 982.1 NA 0.0000 9999 0 0 0 0
2019/04/07 07:12:00 BASE 3.76 143 4.12 142 -1.7 60 -8.4 0 0 982.1 NA 0.0000 9999 0 0 0 0
2019/04/07 07:13:00 BASE 3.76 144 4.12 145 -1.7 60 -8.3 0 0 982.1 NA 0.0000 9999 0 0 0 0
2019/04/07 07:14:00 BASE 3.57 148 4.12 145 -1.6 60 -8.3 0 0 982.1 NA 0.0000 9999 0 0 0 0
2019/04/07 07:15:00 BASE 3.44 150 4.12 145 -1.6 61 -8.1 0 0 982.1 NA 0.0000 9999 0 0 0 0
2019/04/07 07:16:00 BASE 3.46 150 4.12 145 -1.5 61 -8.0 0 0 982.1 NA 0.0000 9999 0 0 0 0
2019/04/07 07:17:00 BASE 3.54 149 4.12 145 -1.5 62 -8.0 0 0 982.1 NA 0.0000 9999 0 0 0 0
2019/04/07 07:18:00 BASE 3.51 149 4.12 145 -1.5 62 -7.9 0 0 982.1 NA 0.0000 9999 0 0 0 0
2019/04/07 07:19:00 BASE 3.46 147 4.12 145 -1.5 62 -7.9 0 0 982.2 NA 0.0000 9999 0 0 0 0
2019/04/07 07:20:00 BASE 3.64 148 4.27 147 -1.5 61 -7.9 0 0 982.1 NA 0.0000 9999 0 0 0 0
2019/04/07 07:21:00 BASE 3.61 147 4.27 147 -1.4 61 -8.0 0 0 982.2 NA 0.0000 9999 0 0 0 0
2019/04/07 07:22:00 BASE 3.52 144 4.27 147 -1.4 61 -8.0 0 0 982.2 NA 0.0000 9999 0 0 0 0
2019/04/07 07:23:00 BASE 3.62 142 4.27 147 -1.4 61 -8.0 0 0 982.2 NA 0.0000 9999 0 0 0 0
2019/04/07 07:24:00 BASE 3.69 138 4.27 147 -1.4 61 -8.0 0 0 982.2 NA 0.0000 9999 0 0 0 0
2019/04/07 07:25:00 BASE 3.77 138 4.27 147 -1.4 61 -8.0 0 0 982.2 NA 0.0000 9999 0 0 0 0
2019/04/07 07:26:00 BASE 3.89 143 4.27 147 -1.4 61 -7.9 0 0 982.3 NA 0.0000 9999 0 0 0 0
2019/04/07 07:27:00 BASE 3.95 146 4.27 147 -1.4 62 -7.8 0 0 982.3 NA 0.0000 9999 0 0 0 0
2019/04/07 07:28:00 BASE 3.84 146 4.27 147 -1.4 62 -7.7 0 0 982.3 NA 0.0000 9999 0 0 0 0
2019/04/07 07:29:00 BASE 3.65 148 4.27 147 -1.4 63 -7.6 0 0 982.3 NA 0.0000 9999 0 0 0 0
2019/04/07 07:30:00 BASE 3.29 150 4.17 147 -1.4 63 -7.5 0 0 982.3 NA 0.0000 9999 0 0 0 0
2019/04/07 07:31:00 BASE 3.10 153 4.17 147 -1.5 64 -7.5 0 0 982.3 NA 0.0000 9999 0 0 0 0
2019/04/07 07:32:00 BASE 3.00 151 4.17 147 -1.5 64 -7.4 0 0 982.3 NA 0.0000 9999 0 0 0 0
2019/04/07 07:33:00 BASE 2.81 143 4.17 147 -1.5 64 -7.4 0 0 982.3 NA 0.0000 9999 0 0 0 0
2019/04/07 07:34:00 BASE 2.79 137 4.17 147 -1.5 64 -7.4 0 0 982.3 NA 0.0000 9999 0 0 0 0
2019/04/07 07:35:00 BASE 2.90 137 4.17 147 -1.5 64 -7.3 0 0 982.4 NA 0.0000 9999 0 0 0 0
2019/04/07 07:36:00 BASE 3.08 141 4.12 144 -1.4 64 -7.3 0 0 982.4 NA 0.0000 9999 0 0 0 0
2019/04/07 07:37:00 BASE 3.25 139 4.01 152 -1.4 64 -7.3 0 0 982.4 NA 0.0000 9999 0 0 0 0
2019/04/07 07:38:00 BASE 3.40 139 3.76 148 -1.4 64 -7.3 0 0 982.4 NA 0.0000 9999 0 0 0 0
2019/04/07 07:39:00 BASE 3.20 141 3.65 142 -1.3 64 -7.2 0 0 982.4 NA 0.0000 9999 0 0 0 0
2019/04/07 07:40:00 BASE 3.05 136 3.65 142 -1.3 64 -7.2 0 0 982.4 NA 0.0000 9999 0 0 0 0
2019/04/07 07:41:00 BASE 3.05 133 3.65 142 -1.4 64 -7.3 0 0 982.5 NA 0.0000 9999 0 0 0 0
2019/04/07 07:42:00 BASE 2.88 132 3.65 142 -1.5 64 -7.4 0 0 982.5 NA 0.0000 9999 0 0 0 0
2019/04/07 07:43:00 BASE 2.74 131 3.65 142 -1.5 63 -7.6 0 0 982.6 NA 0.0000 9999 0 0 0 0
2019/04/07 07:44:00 BASE 2.57 129 3.65 142 -1.6 63 -7.6 0 0 982.6 NA 0.0000 9999 0 0 0 0
2019/04/07 07:45:00 BASE 2.42 128 3.65 142 -1.5 63 -7.7 0 0 982.6 NA 0.0000 9999 0 0 0 0
2019/04/07 07:46:00 BASE 2.24 132 3.65 142 -1.5 63 -7.6 0 0 982.6 NA 0.0000 9999 0 0 0 0
2019/04/07 07:47:00 BASE 1.99 132 3.65 142 -1.4 63 -7.5 0 0 982.6 NA 0.0000 9999 0 0 0 0
2019/04/07 07:48:00 BASE 1.32 131 3.24 136 -1.3 63 -7.4 0 0 982.7 NA 0.0000 9999 0 0 0 0
2019/04/07 07:49:00 BASE 0.77 156 3.24 136 -1.3 63 -7.4 0 0 982.7 NA 0.0000 9999 0 0 0 0
2019/04/07 07:50:00 BASE 1.37 286 3.19 134 -1.3 64 -7.3 0 0 982.7 NA 0.0000 9999 0 0 0 0
2019/04/07 07:51:00 BASE 1.97 300 2.98 136 -1.4 65 -7.2 0 0 982.7 NA 0.0000 9999 0 0 0 0
2019/04/07 07:52:00 BASE 1.62 298 2.88 131 -1.5 66 -7.1 0 0 982.7 NA 0.0000 9999 0 0 0 0
2019/04/07 07:53:00 BASE 0.92 301 2.68 128 -1.5 66 -7.0 0 0 982.7 NA 0.0000 9999 0 0 0 0
2019/04/07 07:54:00 BASE 0.37 294 2.68 128 -1.6 67 -6.9 0 0 982.7 NA 0.0000 9999 0 0 0 0
2019/04/07 07:55:00 BASE 0.19 304 2.26 135 -1.5 67 -7.0 0 0 982.7 NA 0.0000 9999 0 0 0 0
2019/04/07 07:56:00 BASE 0.54 336 2.21 293 -1.5 66 -7.1 0 0 982.7 NA 0.0000 9999 0 0 0 0
2019/04/07 07:57:00 BASE 0.64 330 2.21 293 -1.5 65 -7.2 0 0 982.8 NA 0.0000 9999 0 0 0 0
2019/04/07 07:58:00 BASE 0.20 312 2.21 293 -1.5 65 -7.2 0 0 982.8 NA 0.0000 9999 0 0 0 0
2019/04/07 07:59:00 BASE 0.00 326 2.21 293 -1.5 65 -7.1 0 0 982.8 NA 0.0000 9999 0 0 0 0
2019/04/07 08:00:01 BASE 0.28 356 2.06 303 -1.5 66 -7.1 0 0 982.8 NA 0.0000 9999 0 0 0 0
2019/04/07 08:01:00 BASE 0.97 2 1.85 304 -1.5 66 -7.0 0 0 982.8 NA 0.0000 9999 0 0 0 0
2019/04/07 08:02:00 BASE 1.69 357 2.37 352 -1.5 66 -7.0 0 0 982.8 NA 0.0000 9999 0 0 0 0
2019/04/07 08:03:00 BASE 2.20 350 2.78 339 -1.5 66 -7.0 0 0 982.8 NA 0.0000 9999 0 0 0 0
2019/04/07 08:04:00 BASE 2.51 341 2.88 339 -1.5 66 -7.0 0 0 982.9 NA 0.0000 9999 0 0 0 0
2019/04/07 08:05:00 BASE 2.57 338 2.88 339 -1.5 67 -6.9 0 0 982.8 NA 0.0000 9999 0 0 0 0
2019/04/07 08:06:00 BASE 2.58 348 2.88 339 -1.6 67 -6.9 0 0 982.9 NA 0.0000 9999 0 0 0 0
2019/04/07 08:07:00 BASE 2.68 359 2.98 3 -1.6 67 -6.8 0 0 982.9 NA 0.0000 9999 0 0 0 0
2019/04/07 08:08:00 BASE 2.78 1 2.98 3 -1.6 68 -6.8 0 0 982.9 NA 0.0000 9999 0 0 0 0
2019/04/07 08:09:00 BASE 2.89 1 3.24 360 -1.6 68 -6.8 0 0 982.9 NA 0.0000 9999 0 0 0 0
2019/04/07 08:10:00 BASE 2.99 1 3.24 360 -1.6 68 -6.8 0 0 982.9 NA 0.0000 9999 0 0 0 0
2019/04/07 08:11:00 BASE 3.07 1 3.24 2 -1.6 68 -6.7 0 0 982.9 NA 0.0000 9999 0 0 0 0
2019/04/07 08:12:00 BASE 2.93 6 3.24 2 -1.6 69 -6.6 0 0 982.9 NA 0.0000 9999 0 0 0 0
2019/04/07 08:13:00 BASE 2.68 11 3.24 2 -1.6 70 -6.4 0 0 982.9 NA 0.0000 9999 0 0 0 0
2019/04/07 08:14:00 BASE 2.43 16 3.24 2 -1.6 71 -6.2 0 0 982.9 NA 0.0000 9999 0 0 0 0
2019/04/07 08:15:00 BASE 2.06 21 3.24 2 -1.6 72 -6.1 0 0 983.0 NA 0.0000 9999 0 0 0 0
2019/04/07 08:16:00 BASE 1.77 20 3.24 2 -1.6 73 -5.9 0 0 983.0 NA 0.0000 9999 0 0 0 0
2019/04/07 08:17:00 BASE 1.46 17 3.24 2 -1.6 73 -5.8 0 0 983.1 NA 0.0000 9999 0 0 0 0
2019/04/07 08:18:00 BASE 1.35 31 3.24 2 -1.6 74 -5.7 0 0 983.1 NA 0.0000 9999 0 0 0 0
2019/04/07 08:19:00 BASE 1.59 50 3.24 2 -1.6 74 -5.6 0 0 983.1 NA 0.0000 9999 0 0 0 0
2019/04/07 08:20:00 BASE 1.81 54 3.24 2 -1.6 75 -5.5 0 0 983.1 NA 0.0000 9999 0 0 0 0
2019/04/07 08:21:00 BASE 2.11 57 3.09 5 -1.6 75 -5.5 0 0 983.1 NA 0.0000 9999 0 0 0 0
2019/04/07 08:22:00 BASE 2.30 63 3.09 5 -1.6 75 -5.5 0 0 983.1 NA 0.0000 9999 0 0 0 0
2019/04/07 08:23:00 BASE 1.68 72 2.57 66 -1.6 74 -5.6 0 0 983.1 NA 0.0000 9999 0 0 0 0
2019/04/07 08:24:00 BASE 1.16 71 2.57 66 -1.5 73 -5.7 0 0 983.1 NA 0.0000 9999 0 0 0 0
2019/04/07 08:25:00 BASE 1.04 63 2.57 66 -1.4 72 -5.8 0 0 983.1 NA 0.0000 9999 0 0 0 0
2019/04/07 08:26:00 BASE 0.58 65 2.57 66 -1.3 71 -5.9 0 0 983.2 NA 0.0000 9999 0 0 0 0
2019/04/07 08:27:00 BASE 0.76 67 2.57 66 -1.3 70 -6.0 0 0 983.2 NA 0.0000 9999 0 0 0 0
2019/04/07 08:28:00 BASE 1.36 65 2.57 66 -1.2 70 -6.0 0 0 983.2 NA 0.0000 9999 0 0 0 0
2019/04/07 08:29:00 BASE 1.56 66 2.57 66 -1.1 69 -6.1 0 0 983.2 NA 0.0000 9999 0 0 0 0
2019/04/07 08:30:00 BASE 1.79 65 2.57 66 -1.1 69 -6.1 0 0 983.2 NA 0.0000 9999 0 0 0 0
2019/04/07 08:31:00 BASE 2.04 66 2.57 66 -1.1 68 -6.1 0 0 983.2 NA 0.0000 9999 0 0 0 0
2019/04/07 08:32:00 BASE 2.37 64 2.98 60 -1.0 68 -6.1 0 0 983.3 NA 0.0000 9999 0 0 0 0
2019/04/07 08:33:00 BASE 2.74 60 2.98 60 -1.0 68 -6.2 0 0 983.3 NA 0.0000 9999 0 0 0 0
2019/04/07 08:34:00 BASE 2.84 58 3.04 57 -1.0 68 -6.2 0 0 983.3 NA 0.0000 9999 0 0 0 0
2019/04/07 08:35:00 BASE 3.05 54 3.60 53 -1.1 68 -6.3 0 0 983.3 NA 0.0000 9999 0 0 0 0
2019/04/07 08:36:00 BASE 3.47 48 3.81 45 -1.2 68 -6.3 0 0 983.3 NA 0.0000 9999 0 0 0 0
2019/04/07 08:37:00 BASE 3.54 43 3.81 45 -1.3 69 -6.4 0 0 983.3 NA 0.0000 9999 0 0 0 0
2019/04/07 08:38:00 BASE 3.24 41 3.81 45 -1.5 69 -6.4 0 0 983.3 NA 0.0000 9999 0 0 0 0
2019/04/07 08:39:00 BASE 2.91 40 3.81 45 -1.5 70 -6.3 0 0 983.3 NA 0.0000 9999 0 0 0 0
2019/04/07 08:40:00 BASE 2.64 39 3.81 45 -1.6 71 -6.2 0 0 983.4 NA 0.0000 9999 0 0 0 0
2019/04/07 08:41:00 BASE 2.42 35 3.81 45 -1.6 72 -6.1 0 0 983.4 NA 0.0000 9999 0 0 0 0
2019/04/07 08:42:00 BASE 2.34 33 3.81 45 -1.7 72 -6.0 0 0 983.4 NA 0.0000 9999 0 0 0 0
2019/04/07 08:43:00 BASE 2.28 31 3.81 45 -1.7 73 -5.9 0 0 983.4 NA 0.0000 9999 0 0 0 0
2019/04/07 08:44:00 BASE 2.11 27 3.81 45 -1.7 73 -5.9 0 0 983.4 NA 0.0000 9999 0 0 0 0
2019/04/07 08:45:00 BASE 2.10 23 3.81 45 -1.8 74 -5.8 0 0 983.4 NA 0.0000 9999 0 0 0 0
2019/04/07 08:46:00 BASE 2.12 20 3.55 49 -1.7 74 -5.8 0 0 983.4 NA 0.0000 9999 0 0 0 0
2019/04/07 08:47:00 BASE 2.17 21 3.24 42 -1.7 74 -5.7 0 0 983.5 NA 0.0000 9999 0 0 0 0
2019/04/07 08:48:00 BASE 2.21 20 2.93 30 -1.7 74 -5.6 0 0 983.5 NA 0.0000 9999 0 0 0 0
2019/04/07 08:49:00 BASE 2.09 18 2.78 38 -1.6 75 -5.6 0 0 983.5 NA 0.0000 9999 0 0 0 0
2019/04/07 08:50:00 BASE 2.11 16 2.57 21 -1.6 75 -5.5 0 0 983.5 NA 0.0000 9999 0 0 0 0
2019/04/07 08:51:00 BASE 2.02 16 2.57 21 -1.6 75 -5.5 0 0 983.5 NA 0.0000 9999 0 0 0 0
2019/04/07 08:52:00 BASE 1.82 16 2.57 21 -1.6 75 -5.4 0 0 983.5 NA 0.0000 9999 0 0 0 0
2019/04/07 08:53:00 BASE 1.70 13 2.57 21 -1.6 75 -5.4 0 0 983.5 NA 0.0000 9999 0 0 0 0
2019/04/07 08:54:00 BASE 1.70 12 2.57 21 -1.6 75 -5.4 0 0 983.5 NA 0.0000 9999 0 0 0 0
2019/04/07 08:55:00 BASE 1.83 15 2.57 21 -1.6 75 -5.5 0 0 983.5 NA 0.0000 9999 0 0 0 0
2019/04/07 08:56:00 BASE 2.26 18 3.29 17 -1.7 75 -5.6 0 0 983.5 NA 0.0000 9999 0 0 0 0
2019/04/07 08:57:00 BASE 2.80 18 3.29 17 -1.7 75 -5.6 0 0 983.6 NA 0.0000 9999 0 0 0 0
2019/04/07 08:58:00 BASE 3.01 19 3.29 17 -1.8 75 -5.6 0 0 983.7 NA 0.0000 9999 0 0 0 0
2019/04/07 08:59:00 BASE 3.04 21 3.29 17 -1.8 75 -5.6 0 0 983.6 NA 0.0000 9999 0 0 0 0
2019/04/07 09:00:00 BASE 3.07 22 3.29 17 -1.8 75 -5.6 0 0 983.6 NA 0.0000 9999 0 0 0 0
2019/04/07 09:01:00 BASE 3.15 18 3.34 12 -1.8 76 -5.5 0 0 983.7 NA 0.0000 9999 0 0 0 0
2019/04/07 09:02:00 BASE 3.27 14 3.60 11 -1.8 76 -5.4 0 0 983.7 NA 0.0000 9999 0 0 0 0
2019/04/07 09:03:00 BASE 3.51 19 4.01 38 -1.8 77 -5.4 0 0 983.7 NA 0.0000 9999 0 0 0 0
2019/04/07 09:04:00 BASE 3.85 28 4.48 31 -1.9 77 -5.4 0 0 983.7 NA 0.0000 9999 0 0 0 0
2019/04/07 09:05:00 BASE 4.31 29 5.50 28 -1.9 77 -5.4 0 0 983.7 NA 0.0000 9999 0 0 0 0
2019/04/07 09:06:00 BASE 4.61 29 5.50 28 -2.0 78 -5.4 0 0 983.7 NA 0.0000 9999 0 0 0 0
2019/04/07 09:07:00 BASE 4.67 31 5.50 28 -2.1 78 -5.4 0 0 983.7 NA 0.0000 9999 0 0 0 0
2019/04/07 09:08:00 BASE 4.25 37 5.50 28 -2.1 78 -5.4 0 0 983.7 NA 0.0000 9999 0 0 0 0
2019/04/07 09:09:00 BASE 3.54 43 5.50 28 -2.2 79 -5.4 0 0 983.7 NA 0.0000 9999 0 0 0 0
2019/04/07 09:10:00 BASE 3.29 42 5.50 28 -2.2 79 -5.4 0 0 983.7 NA 0.0000 9999 0 0 0 0
2019/04/07 09:11:00 BASE 3.46 44 5.50 28 -2.2 79 -5.3 0 0 983.7 NA 0.0000 9999 0 0 0 0
2019/04/07 09:12:00 BASE 4.01 47 5.50 28 -2.2 79 -5.3 0 0 983.7 NA 0.0000 9999 0 0 0 0
2019/04/07 09:13:00 BASE 4.21 46 5.50 28 -2.2 80 -5.2 0 0 983.8 NA 0.0000 9999 0 0 0 0
2019/04/07 09:14:00 BASE 3.91 44 5.50 28 -2.2 80 -5.2 0 0 983.9 NA 0.0000 9999 0 0 0 0
2019/04/07 09:15:00 BASE 3.70 45 5.35 32 -2.1 80 -5.1 0 0 983.9 NA 0.0000 9999 0 0 0 0
2019/04/07 09:16:00 BASE 3.77 48 5.04 37 -2.2 80 -5.2 0 0 983.9 NA 0.0000 9999 0 0 0 0
2019/04/07 09:17:00 BASE 3.76 46 4.89 49 -2.2 80 -5.2 0 0 983.9 NA 0.0000 9999 0 0 0 0
2019/04/07 09:18:00 BASE 3.58 36 4.89 49 -2.2 80 -5.2 0 0 983.9 NA 0.0000 9999 0 0 0 0
2019/04/07 09:19:00 BASE 3.37 27 4.89 49 -2.3 80 -5.3 0 0 984.0 NA 0.0000 9999 0 0 0 0
2019/04/07 09:20:00 BASE 3.15 26 4.89 49 -2.3 80 -5.2 0 0 984.0 NA 0.0000 9999 0 0 0 0
2019/04/07 09:21:00 BASE 3.01 25 4.89 49 -2.2 80 -5.2 0 0 984.0 NA 0.0000 9999 0 0 0 0
2019/04/07 09:22:00 BASE 2.97 22 4.42 48 -2.2 80 -5.2 0 0 984.0 NA 0.0000 9999 0 0 0 0
2019/04/07 09:23:00 BASE 3.13 24 4.42 48 -2.1 80 -5.1 0 0 984.0 NA 0.0000 9999 0 0 0 0
2019/04/07 09:24:00 BASE 3.29 26 4.42 48 -2.1 80 -5.1 0 0 984.0 NA 0.0000 9999 0 0 0 0
2019/04/07 09:25:00 BASE 3.55 27 4.42 48 -2.0 79 -5.1 0 0 984.1 NA 0.0000 9999 0 0 0 0
2019/04/07 09:26:00 BASE 3.81 28 4.37 31 -2.0 79 -5.1 0 0 984.1 NA 0.0000 9999 0 0 0 0
2019/04/07 09:27:00 BASE 3.73 26 4.37 31 -2.0 79 -5.2 0 0 984.1 NA 0.0000 9999 0 0 0 0
2019/04/07 09:28:00 BASE 3.59 26 4.37 31 -2.0 79 -5.2 0 0 984.1 NA 0.0000 9999 0 0 0 0
2019/04/07 09:29:00 BASE 3.65 28 4.37 31 -2.0 79 -5.2 0 0 984.1 NA 0.0000 9999 0 0 0 0
2019/04/07 09:30:00 BASE 3.79 26 4.37 31 -2.0 78 -5.3 0 0 984.1 NA 0.0000 9999 0 0 0 0
2019/04/07 09:31:00 BASE 3.71 24 4.37 31 -2.0 78 -5.3 0 0 984.1 NA 0.0000 9999 0 0 0 0
2019/04/07 09:32:00 BASE 3.59 25 4.37 31 -2.0 78 -5.3 0 0 984.1 NA 0.0000 9999 0 0 0 0
2019/04/07 09:33:00 BASE 3.63 30 4.37 31 -2.0 78 -5.3 0 0 984.1 NA 0.0000 9999 0 0 0 0
2019/04/07 09:34:00 BASE 3.61 33 4.37 31 -2.0 78 -5.2 0 0 984.1 NA 0.0000 9999 0 0 0 0
2019/04/07 09:35:00 BASE 3.54 30 4.32 25 -1.9 78 -5.2 0 0 984.1 NA 0.0000 9999 0 0 0 0
2019/04/07 09:36:00 BASE 3.40 29 4.32 25 -1.9 78 -5.2 0 0 984.1 NA 0.0000 9999 0 0 0 0
2019/04/07 09:37:00 BASE 3.18 40 4.32 25 -1.9 78 -5.3 0 0 984.1 NA 0.0000 9999 0 0 0 0
2019/04/07 09:38:00 BASE 3.01 48 4.32 25 -2.0 78 -5.3 0 0 984.1 NA 0.0000 9999 0 0 0 0
2019/04/07 09:39:00 BASE 3.01 47 4.32 25 -2.0 78 -5.3 0 0 984.1 NA 0.0000 9999 0 0 0 0
2019/04/07 09:40:00 BASE 2.96 48 4.22 17 -2.0 78 -5.3 0 0 984.2 NA 0.0000 9999 0 0 0 0
2019/04/07 09:41:00 BASE 2.84 52 4.01 28 -2.0 78 -5.3 0 0 984.2 NA 0.0000 9999 0 0 0 0
2019/04/07 09:42:00 BASE 3.06 54 3.86 31 -2.0 78 -5.3 0 0 984.2 NA 0.0000 9999 0 0 0 0
2019/04/07 09:43:00 BASE 3.28 56 3.81 32 -1.9 78 -5.3 0 0 984.2 NA 0.0000 9999 0 0 0 0
2019/04/07 09:44:00 BASE 3.33 55 3.70 27 -1.9 78 -5.2 0 0 984.2 NA 0.0000 9999 0 0 0 0
2019/04/07 09:45:00 BASE 3.37 55 3.55 60 -1.9 78 -5.3 0 0 984.2 NA 0.0000 9999 0 0 0 0
2019/04/07 09:46:00 BASE 3.33 56 3.55 60 -1.9 78 -5.3 0 0 984.2 NA 0.0000 9999 0 0 0 0
2019/04/07 09:47:00 BASE 3.26 54 3.55 60 -1.9 77 -5.3 0 0 984.2 NA 0.0000 9999 0 0 0 0
2019/04/07 09:48:00 BASE 3.05 50 3.55 60 -1.8 77 -5.3 0 0 984.2 NA 0.0000 9999 0 0 0 0
2019/04/07 09:49:00 BASE 2.77 47 3.55 60 -1.8 77 -5.3 0 0 984.2 NA 0.0000 9999 0 0 0 0
2019/04/07 09:50:00 BASE 2.46 48 3.55 60 -1.8 77 -5.3 0 0 984.2 NA 0.0000 9999 0 0 0 0
2019/04/07 09:51:00 BASE 2.05 48 3.55 60 -1.8 77 -5.3 0 0 984.2 NA 0.0000 9999 0 0 0 0
2019/04/07 09:52:00 BASE 1.74 44 3.55 60 -1.8 77 -5.3 0 0 984.2 NA 0.0000 9999 0 0 0 0
2019/04/07 09:53:00 BASE 1.58 38 3.55 60 -1.7 76 -5.4 0 0 984.2 NA 0.0000 9999 0 0 0 0
2019/04/07 09:54:00 BASE 1.47 36 3.55 60 -1.7 76 -5.4 0 0 984.2 NA 0.0000 9999 0 0 0 0
2019/04/07 09:55:00 BASE 1.53 38 3.45 55 -1.7 76 -5.4 0 0 984.2 NA 0.0000 9999 0 0 0 0
2019/04/07 09:56:00 BASE 1.59 41 3.45 55 -1.6 75 -5.4 0 0 984.2 NA 0.0000 9999 0 0 0 0
2019/04/07 09:57:00 BASE 1.59 46 2.98 47 -1.6 75 -5.4 0 0 984.2 NA 0.0000 9999 0 0 0 0
2019/04/07 09:58:00 BASE 1.51 47 2.93 46 -1.5 75 -5.4 0 0 984.2 NA 0.0000 9999 0 0 0 0
2019/04/07 09:59:00 BASE 1.46 43 2.42 45 -1.5 75 -5.5 0 0 984.3 NA 0.0000 9999 0 0 0 0
2019/04/07 10:00:00 BASE 1.59 33 2.01 53 -1.5 74 -5.5 0 0 984.3 NA 0.0000 9999 0 0 0 0
2019/04/07 10:01:00 BASE 1.66 26 1.85 44 -1.5 74 -5.5 0 0 984.3 NA 0.0000 9999 0 0 0 0
2019/04/07 10:02:00 BASE 1.65 26 1.80 25 -1.6 74 -5.6 0 0 984.3 NA 0.0000 9999 0 0 0 0
2019/04/07 10:03:00 BASE 1.66 26 1.80 25 -1.6 74 -5.6 0 0 984.3 NA 0.0000 9999 0 0 0 0
2019/04/07 10:04:00 BASE 1.62 26 1.80 25 -1.6 74 -5.6 0 0 984.3 NA 0.0000 9999 0 0 0 0
2019/04/07 10:05:00 BASE 1.49 31 1.80 25 -1.7 75 -5.6 0 0 984.3 NA 0.0000 9999 0 0 0 0
2019/04/07 10:06:00 BASE 1.57 36 1.85 37 -1.7 75 -5.6 0 0 984.3 NA 0.0000 9999 0 0 0 0
2019/04/07 10:07:00 BASE 1.71 34 1.85 31 -1.7 75 -5.5 0 0 984.3 NA 0.0000 9999 0 0 0 0
2019/04/07 10:08:00 BASE 1.72 32 1.85 31 -1.7 75 -5.6 0 0 984.4 NA 0.0000 9999 0 0 0 0
2019/04/07 10:09:00 BASE 1.71 34 1.85 31 -1.7 75 -5.6 0 0 984.4 NA 0.0000 9999 0 0 0 0
2019/04/07 10:10:00 BASE 1.68 38 1.85 31 -1.7 75 -5.6 0 0 984.5 NA 0.0000 9999 0 0 0 0
2019/04/07 10:11:00 BASE 1.70 38 1.85 31 -1.7 75 -5.6 0 0 984.4 NA 0.0000 9999 0 0 0 0
2019/04/07 10:12:00 BASE 1.70 37 1.85 31 -1.7 75 -5.6 0 0 984.5 NA 0.0000 9999 0 0 0 0
2019/04/07 10:13:00 BASE 1.63 39 1.85 31 -1.7 75 -5.6 0 0 984.5 NA 0.0000 9999 0 0 0 0
2019/04/07 10:14:00 BASE 1.54 39 1.85 31 -1.7 75 -5.5 0 0 984.5 NA 0.0000 9999 0 0 0 0
2019/04/07 10:15:00 BASE 1.57 37 1.85 31 -1.7 75 -5.5 0 0 984.5 NA 0.0000 9999 0 0 0 0
2019/04/07 10:16:00 BASE 1.67 36 1.85 39 -1.7 75 -5.5 0 0 984.5 NA 0.0000 9999 0 0 0 0
2019/04/07 10:17:00 BASE 1.62 36 1.85 39 -1.7 75 -5.5 0 0 984.5 NA 0.0000 9999 0 0 0 0
2019/04/07 10:18:00 BASE 1.59 36 1.85 39 -1.7 75 -5.5 0 0 984.5 NA 0.0000 9999 0 0 0 0
2019/04/07 10:19:00 BASE 1.79 38 2.06 40 -1.7 75 -5.5 0 0 984.5 NA 0.0000 9999 0 0 0 0
2019/04/07 10:20:00 BASE 1.89 37 2.06 40 -1.7 75 -5.6 0 0 984.6 NA 0.0000 9999 0 0 0 0
2019/04/07 10:21:00 BASE 1.88 34 2.06 40 -1.7 75 -5.6 0 0 984.6 NA 0.0000 9999 0 0 0 0
2019/04/07 10:22:00 BASE 1.90 32 2.06 40 -1.7 75 -5.6 0 0 984.6 NA 0.0000 9999 0 0 0 0
2019/04/07 10:23:00 BASE 1.98 32 2.21 32 -1.7 75 -5.6 0 0 984.6 NA 0.0000 9999 0 0 0 0
2019/04/07 10:24:00 BASE 2.07 32 2.21 32 -1.7 75 -5.6 0 0 984.6 NA 0.0000 9999 0 0 0 0
2019/04/07 10:25:00 BASE 2.11 29 2.31 27 -1.8 75 -5.6 0 0 984.6 NA 0.0000 9999 0 0 0 0
2019/04/07 10:26:00 BASE 2.12 25 2.31 27 -1.8 75 -5.6 0 0 984.6 NA 0.0000 9999 0 0 0 0
2019/04/07 10:27:00 BASE 2.15 22 2.68 19 -1.8 75 -5.5 0 0 984.6 NA 0.0000 9999 0 0 0 0
2019/04/07 10:28:00 BASE 2.27 21 2.68 19 -1.7 76 -5.5 0 0 984.6 NA 0.0000 9999 0 0 0 0
2019/04/07 10:29:00 BASE 2.17 20 2.68 19 -1.7 76 -5.5 0 0 984.6 NA 0.0000 9999 0 0 0 0
2019/04/07 10:30:00 BASE 2.02 22 2.68 19 -1.7 76 -5.5 0 0 984.6 NA 0.0000 9999 0 0 0 0
2019/04/07 10:31:00 BASE 2.04 23 2.68 19 -1.7 76 -5.5 0 0 984.7 NA 0.0000 9999 0 0 0 0
2019/04/07 10:32:00 BASE 2.07 22 2.68 19 -1.7 76 -5.5 0 0 984.7 NA 0.0000 9999 0 0 0 0
2019/04/07 10:33:00 BASE 2.15 22 2.68 19 -1.8 76 -5.5 0 0 984.7 NA 0.0000 9999 0 0 0 0
2019/04/07 10:34:00 BASE 2.27 22 2.68 19 -1.8 76 -5.5 0 0 984.7 NA 0.0000 9999 0 0 0 0
2019/04/07 10:35:00 BASE 2.42 20 2.68 19 -1.8 76 -5.5 0 0 984.7 NA 0.0000 9999 0 0 0 0
2019/04/07 10:36:00 BASE 2.43 18 2.68 19 -1.9 76 -5.5 0 0 984.7 NA 0.0000 9999 0 0 0 0
2019/04/07 10:37:00 BASE 2.47 20 2.78 24 -1.9 77 -5.4 0 0 984.7 NA 0.0000 9999 0 0 0 0
2019/04/07 10:38:00 BASE 2.68 18 3.14 19 -1.9 77 -5.4 0 0 984.7 NA 0.0000 9999 0 0 0 0
2019/04/07 10:39:00 BASE 2.71 12 3.14 19 -1.9 78 -5.3 0 0 984.7 NA 0.0000 9999 0 0 0 0
2019/04/07 10:40:00 BASE 2.60 12 3.14 19 -1.9 78 -5.3 0 0 984.8 NA 0.0000 9999 0 0 0 0
2019/04/07 10:41:00 BASE 2.64 10 3.14 19 -2.0 78 -5.3 0 0 984.8 NA 0.0000 9999 0 0 0 0
2019/04/07 10:42:00 BASE 2.92 3 3.65 3 -2.0 78 -5.3 0 0 984.7 NA 0.0000 9999 0 0 0 0
2019/04/07 10:43:00 BASE 3.15 3 3.65 3 -2.0 78 -5.3 0 0 984.7 NA 0.0000 9999 0 0 0 0
2019/04/07 10:44:00 BASE 3.17 5 3.65 3 -2.1 79 -5.3 0 0 984.8 NA 0.0000 9999 0 0 0 0
2019/04/07 10:45:00 BASE 3.09 1 3.65 3 -2.1 79 -5.2 0 0 984.8 NA 0.0000 9999 0 0 0 0
2019/04/07 10:46:00 BASE 3.04 0 3.65 3 -2.0 79 -5.2 0 0 984.8 NA 0.0000 9999 0 0 0 0
2019/04/07 10:47:00 BASE 3.04 1 3.65 3 -2.0 79 -5.1 1 0 984.8 NA 0.0000 9999 0 0 0 0
2019/04/07 10:48:00 BASE 3.22 10 3.65 3 -2.0 79 -5.1 1 0 984.8 NA 0.0000 9999 0 0 0 0
2019/04/07 10:49:00 BASE 3.50 19 3.76 21 -2.0 80 -5.1 1 0 984.8 NA 0.0000 9999 0 0 0 0
2019/04/07 10:50:00 BASE 3.62 19 3.91 19 -2.1 80 -5.1 1 0 984.8 NA 0.0000 9999 0 0 0 0
2019/04/07 10:51:00 BASE 3.78 15 4.37 15 -2.1 80 -5.1 1 0 984.8 NA 0.0000 9999 0 0 0 0
2019/04/07 10:52:00 BASE 3.84 13 4.37 15 -2.2 80 -5.2 1 0 984.8 NA 0.0000 9999 0 0 0 0
2019/04/07 10:53:00 BASE 3.87 17 4.37 15 -2.2 80 -5.2 1 0 984.8 NA 0.0000 9999 0 0 0 0
2019/04/07 10:54:00 BASE 3.89 22 4.37 15 -2.2 80 -5.2 1 0 984.9 NA 0.0000 9999 0 0 0 0
2019/04/07 10:55:00 BASE 3.70 26 4.37 15 -2.3 80 -5.2 2 0 984.9 NA 0.0000 9999 0 0 0 0
2019/04/07 10:56:00 BASE 3.62 26 4.37 15 -2.3 80 -5.3 2 0 984.9 NA 0.0000 9999 0 0 0 0
2019/04/07 10:57:00 BASE 3.75 26 4.37 15 -2.3 80 -5.3 2 0 984.9 NA 0.0000 9999 0 0 0 0
2019/04/07 10:58:00 BASE 3.71 29 4.37 15 -2.3 80 -5.3 2 0 984.9 NA 0.0000 9999 0 0 0 0
2019/04/07 10:59:00 BASE 3.37 31 4.37 15 -2.3 80 -5.3 2 0 984.9 NA 0.0000 9999 0 0 0 0
2019/04/07 11:00:00 BASE 3.30 32 4.37 15 -2.3 80 -5.3 2 0 985.0 NA 0.0000 9999 0 0 0 0
2019/04/07 11:01:00 BASE 3.61 35 4.32 19 -2.4 80 -5.3 2 0 985.0 NA 0.0000 9999 0 0 0 0
2019/04/07 11:02:00 BASE 3.75 36 4.32 19 -2.4 80 -5.4 3 0 984.9 NA 0.0000 9999 0 0 0 0
2019/04/07 11:03:00 BASE 3.60 33 4.27 34 -2.4 80 -5.4 3 0 985.0 NA 0.0000 9999 0 0 0 0
2019/04/07 11:04:00 BASE 3.55 35 4.27 34 -2.4 80 -5.4 3 0 985.0 NA 0.0000 9999 0 0 0 0
2019/04/07 11:05:00 BASE 3.48 39 4.27 34 -2.5 80 -5.4 4 0 985.0 NA 0.0000 9999 0 0 0 0
2019/04/07 11:06:00 BASE 3.22 44 4.17 26 -2.5 80 -5.4 4 0 985.1 NA 0.0000 9999 0 0 0 0
2019/04/07 11:07:00 BASE 3.45 48 4.17 37 -2.4 80 -5.3 4 0 985.1 NA 0.0000 9999 0 0 0 0
2019/04/07 11:08:00 BASE 3.72 45 4.17 37 -2.4 80 -5.3 3 0 985.1 NA 0.0000 9999 0 0 0 0
2019/04/07 11:09:00 BASE 3.69 44 4.58 49 -2.4 81 -5.3 3 0 985.1 NA 0.0000 9999 0 0 0 0
2019/04/07 11:10:00 BASE 3.89 44 4.63 33 -2.4 81 -5.2 3 0 985.1 NA 0.0000 9999 0 0 0 0
2019/04/07 11:11:00 BASE 3.45 39 4.63 33 -2.4 81 -5.2 3 0 985.1 NA 0.0000 9999 0 0 0 0
2019/04/07 11:12:00 BASE 3.14 38 4.63 33 -2.4 81 -5.3 3 0 985.1 NA 0.0000 9999 0 0 0 0
2019/04/07 11:13:00 BASE 3.25 39 4.63 33 -2.4 81 -5.2 3 0 985.1 NA 0.0000 9999 0 0 0 0
2019/04/07 11:14:00 BASE 3.03 39 4.63 33 -2.4 81 -5.2 4 0 985.1 NA 0.0000 9999 0 0 0 0
2019/04/07 11:15:00 BASE 3.04 39 4.63 33 -2.3 81 -5.2 4 0 985.2 NA 0.0000 9999 0 0 0 0
2019/04/07 11:16:00 BASE 2.98 36 4.63 33 -2.3 81 -5.2 4 0 985.2 NA 0.0000 9999 0 0 0 0
2019/04/07 11:17:00 BASE 2.90 32 4.63 33 -2.2 80 -5.1 4 0 985.2 NA 0.0000 9999 0 0 0 0
2019/04/07 11:18:00 BASE 2.87 32 4.63 33 -2.2 80 -5.2 5 0 985.2 NA 0.0000 9999 0 0 0 0
2019/04/07 11:19:00 BASE 2.45 31 4.63 33 -2.2 80 -5.2 5 0 985.2 NA 0.0000 9999 0 0 0 0
2019/04/07 11:20:00 BASE 2.66 30 3.91 48 -2.1 79 -5.2 6 0 985.2 NA 0.0000 9999 0 0 0 0
2019/04/07 11:21:00 BASE 2.70 23 3.91 48 -2.1 79 -5.2 6 0 985.2 NA 0.0000 9999 0 0 0 0
2019/04/07 11:22:00 BASE 2.46 23 3.76 21 -2.0 79 -5.2 6 0 985.3 NA 0.0000 9999 0 0 0 0
2019/04/07 11:23:00 BASE 2.36 26 3.76 21 -2.0 79 -5.2 7 0 985.3 NA 0.0000 9999 0 0 0 0
2019/04/07 11:24:00 BASE 2.02 20 3.76 21 -2.0 79 -5.2 7 0 985.3 NA 0.0000 9999 0 0 0 0
2019/04/07 11:25:00 BASE 1.57 352 3.76 21 -2.0 78 -5.3 8 0 985.4 NA 0.0000 9999 0 0 0 0
2019/04/07 11:26:00 BASE 2.08 325 3.76 21 -2.0 78 -5.3 8 0 985.4 NA 0.0000 9999 0 0 0 0
2019/04/07 11:27:00 BASE 2.95 321 3.76 21 -2.1 78 -5.3 9 0 985.4 NA 0.0000 9999 0 0 0 0
2019/04/07 11:28:00 BASE 2.47 329 3.76 21 -2.1 79 -5.3 9 0 985.4 NA 0.0000 9999 0 0 0 0
2019/04/07 11:29:00 BASE 1.82 347 3.76 21 -2.0 79 -5.2 10 0 985.4 NA 0.0000 9999 0 0 0 0
2019/04/07 11:30:00 BASE 1.48 350 3.76 21 -2.0 80 -5.0 10 0 985.4 NA 0.0000 9999 0 0 0 0
2019/04/07 11:31:00 BASE 1.91 338 3.76 21 -2.0 80 -5.0 11 0 985.4 NA 0.0000 9999 0 0 0 0
2019/04/07 11:32:00 BASE 2.86 331 3.60 326 -1.9 80 -4.9 12 0 985.4 NA 0.0000 9999 0 0 0 0
2019/04/07 11:33:00 BASE 3.53 331 4.06 337 -1.9 80 -4.9 12 0 985.4 NA 0.0000 9999 0 0 0 0
2019/04/07 11:34:00 BASE 3.58 333 4.06 337 -2.0 80 -4.9 13 0 985.4 NA 0.0000 9999 0 0 0 0
2019/04/07 11:35:00 BASE 3.60 344 4.89 342 -2.0 80 -5.0 13 0 985.4 NA 0.0000 9999 0 0 0 0
2019/04/07 11:36:00 BASE 3.63 345 4.89 342 -2.0 80 -4.9 14 0 985.5 NA 0.0000 9999 0 0 0 0
2019/04/07 11:37:00 BASE 3.69 338 4.89 342 -2.0 80 -4.9 15 0 985.6 NA 0.0000 9999 0 0 0 0
2019/04/07 11:38:00 BASE 4.02 339 4.89 342 -2.0 81 -4.9 15 0 985.6 NA 0.0000 9999 0 0 0 0
2019/04/07 11:39:00 BASE 3.91 342 4.89 342 -2.0 81 -4.8 16 0 985.6 NA 0.0000 9999 0 0 0 0
2019/04/07 11:40:00 BASE 3.42 341 4.89 342 -2.0 81 -4.8 17 0 985.6 NA 0.0000 9999 0 0 0 0
2019/04/07 11:41:00 BASE 3.37 341 4.89 342 -1.9 81 -4.7 17 0 985.6 NA 0.0000 9999 0 0 0 0
2019/04/07 11:42:00 BASE 3.73 350 4.89 342 -1.9 81 -4.7 18 0 985.7 NA 0.0000 9999 0 0 0 0
2019/04/07 11:43:00 BASE 3.56 355 4.89 342 -1.9 81 -4.7 19 0 985.7 NA 0.0000 9999 0 0 0 0
2019/04/07 11:44:00 BASE 3.14 6 4.89 342 -1.8 81 -4.7 19 0 985.7 NA 0.0000 9999 0 0 0 0
2019/04/07 11:45:00 BASE 3.47 9 4.53 336 -1.9 81 -4.7 20 0 985.7 NA 0.0000 9999 0 0 0 0
2019/04/07 11:46:00 BASE 3.45 4 4.53 336 -1.9 81 -4.7 21 0 985.7 NA 0.0000 9999 0 0 0 0
2019/04/07 11:47:00 BASE 2.83 9 4.42 2 -2.0 81 -4.7 21 0 985.7 NA 0.0000 9999 0 0 0 0
2019/04/07 11:48:00 BASE 2.49 15 4.42 2 -2.0 82 -4.7 22 0 985.7 NA 0.0000 9999 0 0 0 0
2019/04/07 11:49:00 BASE 2.15 18 4.42 2 -1.9 82 -4.6 23 0 985.7 NA 0.0000 9999 0 0 0 0
2019/04/07 11:50:00 BASE 1.98 14 4.42 2 -1.9 82 -4.6 24 0 985.7 NA 0.0000 9999 0 0 0 0
2019/04/07 11:51:00 BASE 2.19 14 4.42 2 -1.9 82 -4.5 25 0 985.7 NA 0.0000 9999 0 0 0 0
2019/04/07 11:52:00 BASE 2.30 33 4.27 1 -1.9 82 -4.6 26 0 985.7 NA 0.0000 9999 0 0 0 0
2019/04/07 11:53:00 BASE 2.50 44 4.27 1 -1.9 82 -4.6 27 0 985.7 NA 0.0000 9999 0 0 0 0
2019/04/07 11:54:00 BASE 2.86 46 4.27 1 -1.9 82 -4.5 28 0 985.7 NA 0.0000 9999 0 0 0 0
2019/04/07 11:55:00 BASE 2.77 45 3.50 46 -1.9 82 -4.5 29 0 985.7 NA 0.0000 9999 0 0 0 0
2019/04/07 11:56:00 BASE 2.30 45 3.50 46 -1.9 83 -4.5 30 0 985.7 NA 0.0000 9999 0 0 0 0
2019/04/07 11:57:00 BASE 2.88 53 4.32 59 -1.9 83 -4.4 31 0 985.7 NA 0.0000 9999 0 0 0 0
2019/04/07 11:58:00 BASE 3.88 57 4.32 58 -1.8 83 -4.3 32 0 985.8 NA 0.0000 9999 0 0 0 0
2019/04/07 11:59:00 BASE 4.16 54 4.68 57 -1.8 83 -4.3 33 0 985.7 NA 0.0000 9999 0 0 0 0
2019/04/07 12:00:00 BASE 3.78 44 4.68 57 -1.8 83 -4.3 33 0 985.8 NA 0.0000 9999 0 0 0 0
2019/04/07 12:01:00 BASE 3.29 36 4.68 57 -1.8 83 -4.3 34 0 985.8 NA 0.0000 9999 0 0 0 0
2019/04/07 12:02:00 BASE 3.21 23 4.68 57 -1.8 83 -4.3 34 0 985.8 NA 0.0000 9999 0 0 0 0
2019/04/07 12:03:00 BASE 2.83 18 4.68 57 -1.7 83 -4.3 35 0 985.8 NA 0.0000 9999 0 0 0 0
2019/04/07 12:04:00 BASE 2.56 26 4.68 57 -1.7 83 -4.3 36 0 985.8 NA 0.0000 9999 0 0 0 0
2019/04/07 12:05:00 BASE 1.90 32 4.68 57 -1.7 83 -4.2 36 0 985.8 NA 0.0000 9999 0 0 0 0
2019/04/07 12:06:00 BASE 1.86 31 4.68 57 -1.7 83 -4.3 34 0 985.8 NA 0.0000 9999 0 0 0 0
2019/04/07 12:07:00 BASE 2.53 22 4.68 57 -1.7 83 -4.2 34 0 985.8 NA 0.0000 9999 0 0 0 0
2019/04/07 12:08:00 BASE 2.37 23 4.68 57 -1.7 82 -4.3 35 0 985.8 NA 0.0000 9999 0 0 0 0
2019/04/07 12:09:00 BASE 2.33 34 3.91 16 -1.7 82 -4.3 36 0 985.8 NA 0.0000 9999 0 0 0 0
2019/04/07 12:10:00 BASE 2.52 38 3.91 16 -1.7 82 -4.4 36 0 985.9 NA 0.0000 9999 0 0 0 0
2019/04/07 12:11:00 BASE 2.63 43 3.91 16 -1.8 82 -4.5 37 0 985.9 NA 0.0000 9999 0 0 0 0
2019/04/07 12:12:00 BASE 3.03 40 3.91 35 -1.8 82 -4.5 38 0 985.9 NA 0.0000 9999 0 0 0 0
2019/04/07 12:13:00 BASE 3.25 31 3.91 35 -1.9 82 -4.6 38 0 985.9 NA 0.0000 9999 0 0 0 0
2019/04/07 12:14:00 BASE 3.18 26 3.91 35 -2.0 82 -4.7 39 0 986.0 NA 0.0000 9999 0 0 0 0
2019/04/07 12:15:00 BASE 3.14 29 3.91 35 -2.0 82 -4.7 40 0 986.0 NA 0.0000 9999 0 0 0 0
2019/04/07 12:16:00 BASE 2.97 37 3.91 35 -2.1 82 -4.7 40 0 986.0 NA 0.0000 9999 0 0 0 0
2019/04/07 12:17:00 BASE 2.87 42 3.91 35 -2.1 82 -4.7 41 0 986.0 NA 0.0000 9999 0 0 0 0
2019/04/07 12:18:00 BASE 2.84 45 3.91 35 -2.1 82 -4.7 42 0 986.0 NA 0.0000 9999 0 0 0 0
2019/04/07 12:19:00 BASE 2.93 43 3.91 35 -2.1 83 -4.7 42 0 986.0 NA 0.0000 9999 0 0 0 0
2019/04/07 12:20:00 BASE 2.80 39 3.91 35 -2.1 83 -4.7 43 0 986.0 NA 0.0000 9999 0 0 0 0
2019/04/07 12:21:00 BASE 2.65 42 3.91 35 -2.1 83 -4.6 44 0 986.0 NA 0.0000 9999 0 0 0 0
2019/04/07 12:22:00 BASE 2.88 49 3.65 30 -2.1 83 -4.6 45 0 986.0 NA 0.0000 9999 0 0 0 0
2019/04/07 12:23:00 BASE 3.16 51 3.70 56 -2.1 83 -4.6 45 0 986.0 NA 0.0000 9999 0 0 0 0
2019/04/07 12:24:00 BASE 3.16 48 3.70 56 -2.1 83 -4.6 46 0 986.0 NA 0.0000 9999 0 0 0 0
2019/04/07 12:25:00 BASE 3.16 51 3.70 56 -2.1 83 -4.6 47 0 986.0 NA 0.0000 9999 0 0 0 0
2019/04/07 12:26:00 BASE 3.42 56 3.96 44 -2.1 83 -4.6 48 0 986.1 NA 0.0000 9999 0 0 0 0
2019/04/07 12:27:00 BASE 3.95 57 5.25 59 -2.1 83 -4.6 49 0 986.2 NA 0.0000 9999 0 0 0 0
2019/04/07 12:28:00 BASE 3.94 58 5.25 59 -2.1 83 -4.5 50 0 986.2 NA 0.0000 9999 0 0 0 0
2019/04/07 12:29:00 BASE 3.81 50 5.25 59 -2.1 84 -4.5 50 0 986.2 NA 0.0000 9999 0 0 0 0
2019/04/07 12:30:00 BASE 3.83 37 5.25 59 -2.1 84 -4.5 51 0 986.2 NA 0.0000 9999 0 0 0 0
2019/04/07 12:31:00 BASE 3.58 39 5.25 59 -2.1 84 -4.5 52 0 986.3 NA 0.0000 9999 0 0 0 0
2019/04/07 12:32:00 BASE 3.30 42 5.25 59 -2.2 84 -4.5 53 0 986.3 NA 0.0000 9999 0 0 0 0
2019/04/07 12:33:00 BASE 2.97 46 5.25 59 -2.2 84 -4.6 54 0 986.3 NA 0.0000 9999 0 0 0 0
2019/04/07 12:34:00 BASE 2.97 44 5.25 59 -2.3 84 -4.6 54 0 986.3 NA 0.0000 9999 0 0 0 0
2019/04/07 12:35:00 BASE 3.42 30 5.25 59 -2.3 84 -4.7 55 0 986.3 NA 0.0000 9999 0 0 0 0
2019/04/07 12:36:00 BASE 3.61 26 5.25 59 -2.3 84 -4.6 56 0 986.4 NA 0.0000 9999 0 0 0 0
2019/04/07 12:37:00 BASE 3.62 33 4.73 26 -2.3 84 -4.5 56 0 986.4 NA 0.0000 9999 0 0 0 0
2019/04/07 12:38:00 BASE 3.59 31 4.73 26 -2.2 85 -4.4 57 0 986.4 NA 0.0000 9999 0 0 0 0
2019/04/07 12:39:00 BASE 3.10 36 4.73 26 -2.1 85 -4.3 58 0 986.4 NA 0.0000 9999 0 0 0 0
2019/04/07 12:40:00 BASE 2.96 47 4.73 26 -2.1 85 -4.4 58 0 986.4 NA 0.0000 9999 0 0 0 0
2019/04/07 12:41:00 BASE 3.33 41 4.73 26 -2.2 85 -4.4 59 0 986.4 NA 0.0000 9999 0 0 0 0
2019/04/07 12:42:00 BASE 3.64 36 4.73 26 -2.3 85 -4.5 59 0 986.4 NA 0.0000 9999 0 0 0 0
2019/04/07 12:43:00 BASE 3.91 36 4.73 26 -2.3 85 -4.5 60 0 986.4 NA 0.0000 9999 0 0 0 0
2019/04/07 12:44:00 BASE 3.94 37 4.73 26 -2.3 85 -4.5 61 0 986.4 NA 0.0000 9999 0 0 0 0
2019/04/07 12:45:00 BASE 3.48 46 4.37 37 -2.3 85 -4.5 62 0 986.4 NA 0.0000 9999 0 0 0 0
2019/04/07 12:46:00 BASE 3.38 57 4.37 37 -2.3 85 -4.5 63 0 986.4 NA 0.0000 9999 0 0 0 0
2019/04/07 12:47:00 BASE 3.48 61 4.37 37 -2.3 85 -4.5 63 0 986.5 NA 0.0000 9999 0 0 0 0
2019/04/07 12:48:00 BASE 3.51 65 4.37 37 -2.4 85 -4.6 64 0 986.5 NA 0.0000 9999 0 0 0 0
2019/04/07 12:49:00 BASE 3.70 69 4.37 37 -2.5 85 -4.6 65 0 986.5 NA 0.0000 9999 0 0 0 0
2019/04/07 12:50:00 BASE 3.82 74 4.37 37 -2.5 85 -4.7 67 0 986.5 NA 0.0000 9999 0 0 0 0
2019/04/07 12:51:00 BASE 3.76 74 4.37 37 -2.5 85 -4.7 68 0 986.5 NA 0.0000 9999 0 0 0 0
2019/04/07 12:52:00 BASE 3.65 68 4.37 37 -2.5 85 -4.7 69 0 986.5 NA 0.0000 9999 0 0 0 0
2019/04/07 12:53:00 BASE 3.63 67 4.32 84 -2.5 85 -4.7 70 0 986.5 NA 0.0000 9999 0 0 0 0
2019/04/07 12:54:00 BASE 3.35 52 4.32 84 -2.5 85 -4.7 71 0 986.6 NA 0.0000 9999 0 0 0 0
2019/04/07 12:55:00 BASE 2.96 36 4.32 84 -2.4 85 -4.6 72 0 986.6 NA 0.0000 9999 0 0 0 0
2019/04/07 12:56:00 BASE 2.31 24 4.32 84 -2.4 85 -4.6 73 0 986.6 NA 0.0000 9999 0 0 0 0
2019/04/07 12:57:00 BASE 2.38 8 4.32 84 -2.3 85 -4.5 75 0 986.6 NA 0.0000 9999 0 0 0 0
2019/04/07 12:58:00 BASE 2.95 10 4.32 84 -2.2 85 -4.3 76 0 986.6 NA 0.0000 9999 0 0 0 0
2019/04/07 12:59:00 BASE 3.05 20 4.32 84 -2.1 86 -4.2 77 0 986.6 NA 0.0000 9999 0 0 0 0
2019/04/07 13:00:00 BASE 3.15 23 4.12 79 -2.0 86 -4.1 79 0 986.6 NA 0.0000 9999 0 0 0 0
2019/04/07 13:01:00 BASE 2.88 23 4.01 16 -1.9 86 -4.0 80 0 986.6 NA 0.0000 9999 0 0 0 0
2019/04/07 13:02:00 BASE 2.52 33 4.01 16 -1.9 86 -4.0 81 0 986.7 NA 0.0000 9999 0 0 0 0
2019/04/07 13:03:00 BASE 2.58 42 4.01 16 -1.9 85 -4.0 82 0 986.7 NA 0.0000 9999 0 0 0 0
2019/04/07 13:04:00 BASE 2.51 37 4.01 16 -2.0 85 -4.1 84 0 986.7 NA 0.0000 9999 0 0 0 0
2019/04/07 13:05:00 BASE 2.38 29 4.01 16 -2.0 86 -4.1 85 0 986.7 NA 0.0000 9999 21850 0 0 0
2019/04/07 13:06:00 BASE 2.77 20 4.27 7 -2.0 86 -4.0 86 0 986.7 NA 0.0000 9999 0 0 0 0
2019/04/07 13:07:00 BASE 3.43 15 4.53 21 -2.0 86 -4.0 87 0 986.7 NA 0.0000 9999 0 0 0 0
2019/04/07 13:08:00 BASE 4.09 15 4.84 15 -1.9 86 -4.0 89 0 986.7 NA 0.0000 9999 0 0 0 0
2019/04/07 13:09:00 BASE 4.33 12 5.35 14 -1.9 86 -3.9 90 0 986.7 NA 0.0000 9999 0 0 0 0
2019/04/07 13:10:00 BASE 4.52 12 5.35 14 -1.8 86 -3.9 91 0 986.7 NA 0.0000 9999 0 0 0 0
2019/04/07 13:11:00 BASE 4.79 12 5.35 14 -1.8 86 -3.8 92 0 986.7 NA 0.0000 9999 0 0 0 0
2019/04/07 13:12:00 BASE 4.73 11 5.35 14 -1.7 86 -3.8 93 0 986.7 NA 0.0000 9999 0 0 0 0
2019/04/07 13:13:00 BASE 4.72 9 5.35 14 -1.7 86 -3.7 94 0 986.8 NA 0.0000 9999 0 0 0 0
2019/04/07 13:14:00 BASE 4.74 9 5.35 14 -1.7 86 -3.7 96 0 986.8 NA 0.0000 9999 0 0 0 0
2019/04/07 13:15:00 BASE 4.68 12 5.35 14 -1.6 86 -3.7 97 0 986.8 NA 0.0000 9999 0 0 0 0
2019/04/07 13:16:00 BASE 4.50 15 5.35 14 -1.6 86 -3.6 98 0 986.8 NA 0.0000 9999 0 0 0 0
2019/04/07 13:17:00 BASE 4.21 20 5.35 14 -1.6 86 -3.7 99 0 986.8 NA 0.0000 9999 0 0 0 0
2019/04/07 13:18:00 BASE 4.47 24 5.35 14 -1.6 86 -3.7 100 0 986.8 NA 0.0000 9999 0 0 0 0
2019/04/07 13:19:00 BASE 4.69 26 5.20 28 -1.6 86 -3.7 101 0 986.8 NA 0.0000 9999 0 0 0 0
2019/04/07 13:20:00 BASE 4.45 29 5.20 28 -1.7 86 -3.7 102 0 986.8 NA 0.0000 9999 0 0 0 0
2019/04/07 13:21:00 BASE 4.47 28 5.20 28 -1.7 86 -3.8 103 0 986.9 NA 0.0000 9999 0 0 0 0
2019/04/07 13:22:00 BASE 4.56 27 5.20 28 -1.8 86 -3.8 104 0 987.0 NA 0.0000 9999 0 0 0 0
2019/04/07 13:23:00 BASE 4.52 27 5.20 28 -1.8 86 -3.8 105 0 987.0 NA 0.0000 9999 0 0 0 0
2019/04/07 13:24:00 BASE 4.18 24 5.20 28 -1.8 86 -3.9 105 0 987.0 NA 0.0000 9999 0 0 0 0
2019/04/07 13:25:00 BASE 4.36 25 5.35 29 -1.8 85 -3.9 106 0 986.9 NA 0.0000 9999 16110 0 0 0
2019/04/07 13:26:00 BASE 4.66 25 5.35 29 -1.8 85 -3.9 108 0 986.9 NA 0.0000 9999 16140 0 0 0
2019/04/07 13:27:00 BASE 4.34 19 5.35 29 -1.8 85 -4.0 109 0 987.0 NA 0.0000 9999 0 0 0 0
2019/04/07 13:28:00 BASE 4.06 19 5.35 29 -1.7 85 -3.9 110 0 986.9 NA 0.0000 9000 0 0 0 0
2019/04/07 13:29:00 BASE 4.03 23 5.35 29 -1.7 85 -3.8 111 0 987.0 NA 0.0000 9999 16210 0 0 0
2019/04/07 13:30:00 BASE 3.96 25 5.35 29 -1.7 86 -3.8 112 0 987.0 NA 0.0000 9999 0 0 0 0
2019/04/07 13:31:00 BASE 3.63 28 5.35 29 -1.7 86 -3.8 113 0 987.0 NA 0.0000 9999 0 0 0 0
2019/04/07 13:32:00 BASE 3.84 28 5.35 29 -1.7 86 -3.8 114 0 987.0 NA 0.0000 9999 0 0 0 0
2019/04/07 13:33:00 BASE 4.13 30 5.35 29 -1.7 86 -3.8 115 0 987.1 NA 0.0000 9999 16270 0 0 0
2019/04/07 13:34:00 BASE 3.90 30 5.35 29 -1.7 85 -3.8 116 0 987.1 NA 0.0000 9999 16210 0 0 0
2019/04/07 13:35:00 BASE 3.72 29 4.89 26 -1.7 85 -3.8 117 0 987.1 NA 0.0000 9999 16310 0 0 0
2019/04/07 13:36:00 BASE 3.91 30 4.89 26 -1.7 85 -3.8 117 0 987.1 NA 0.0000 9999 16270 0 0 0
2019/04/07 13:37:00 BASE 4.22 28 4.89 26 -1.6 85 -3.8 118 1 987.1 NA 0.0000 9999 0 0 0 0
2019/04/07 13:38:00 BASE 4.28 28 4.89 26 -1.6 85 -3.8 118 0 987.1 NA 0.0000 9999 8600 16270 0 0
2019/04/07 13:39:00 BASE 3.93 31 4.89 26 -1.6 85 -3.9 118 0 987.1 NA 0.0000 9999 0 0 0 0
2019/04/07 13:40:00 BASE 3.73 32 4.89 26 -1.6 84 -3.9 119 1 987.1 NA 0.0000 9999 0 0 0 0
2019/04/07 13:41:00 BASE 3.85 31 4.89 26 -1.6 84 -3.9 120 0 987.1 NA 0.0000 9999 0 0 0 0
2019/04/07 13:42:00 BASE 4.05 28 4.89 26 -1.6 84 -3.9 121 0 987.1 NA 0.0000 9999 16370 0 0 0
2019/04/07 13:43:00 BASE 4.45 25 5.25 25 -1.6 84 -3.9 122 0 987.2 NA 0.0000 9999 16340 0 0 0
2019/04/07 13:44:01 BASE 4.50 23 5.25 25 -1.5 84 -3.9 122 0 987.2 NA 0.0000 9999 16270 0 0 0
2019/04/07 13:45:00 BASE 4.60 21 5.25 25 -1.5 84 -3.9 122 0 987.1 NA 0.0000 9999 16310 0 0 0
2019/04/07 13:46:00 BASE 4.80 22 5.25 25 -1.5 84 -3.9 123 0 987.2 NA 0.0000 9999 16240 0 0 0
2019/04/07 13:47:00 BASE 4.89 22 5.25 17 -1.6 84 -4.0 123 0 987.2 NA 0.0000 9999 0 0 0 0
2019/04/07 13:48:00 BASE 5.10 22 5.56 17 -1.6 83 -4.0 124 0 987.2 NA 0.0000 9999 16240 0 0 0
2019/04/07 13:49:00 BASE 5.17 22 5.56 17 -1.6 83 -4.1 125 1 987.2 NA 0.0000 9000 16310 0 0 0
2019/04/07 13:50:00 BASE 4.93 22 5.56 17 -1.5 83 -4.1 126 0 987.2 NA 0.0000 9999 16310 0 0 0
2019/04/07 13:51:00 BASE 4.85 24 5.56 17 -1.5 82 -4.1 126 0 987.2 NA 0.0000 9999 16340 0 0 0
2019/04/07 13:52:00 BASE 4.89 24 5.61 12 -1.5 82 -4.2 127 0 987.3 NA 0.0000 9999 16310 0 0 0
2019/04/07 13:53:00 BASE 4.86 24 5.61 12 -1.5 82 -4.2 129 0 987.3 NA 0.0000 9999 16310 0 0 0
2019/04/07 13:54:00 BASE 4.74 24 5.61 12 -1.5 82 -4.2 129 0 987.3 NA 0.0000 9999 16370 0 0 0
2019/04/07 13:55:00 BASE 4.77 24 5.61 12 -1.5 81 -4.2 130 0 987.3 NA 0.0000 9999 16210 0 0 0
2019/04/07 13:56:00 BASE 4.94 22 5.61 12 -1.5 81 -4.3 132 0 987.3 NA 0.0000 9000 16310 0 0 0
2019/04/07 13:57:00 BASE 4.78 21 5.61 12 -1.4 81 -4.3 133 0 987.3 NA 0.0000 9000 0 0 0 0
2019/04/07 13:58:00 BASE 4.97 21 5.61 20 -1.4 81 -4.3 134 0 987.3 NA 0.0000 9999 16210 0 0 0
2019/04/07 13:59:00 BASE 5.13 22 5.61 20 -1.4 81 -4.3 135 1 987.3 NA 0.0000 9999 0 0 0 0
2019/04/07 14:00:00 BASE 5.15 24 5.92 23 -1.4 80 -4.4 135 1 987.3 NA 0.0000 9999 16310 0 0 0
2019/04/07 14:01:00 BASE 5.10 24 5.92 23 -1.5 80 -4.4 136 0 987.3 NA 0.0000 9999 8530 16310 0 0
2019/04/07 14:02:00 BASE 4.97 23 5.92 23 -1.5 80 -4.5 136 0 987.3 NA 0.0000 9999 8600 0 0 0
2019/04/07 14:03:00 BASE 5.08 23 5.92 23 -1.5 80 -4.5 136 0 987.3 NA 0.0000 9999 8600 0 0 0
2019/04/07 14:04:00 BASE 5.11 19 5.92 23 -1.5 80 -4.5 135 0 987.3 NA 0.0000 9999 8630 0 0 0
2019/04/07 14:05:00 BASE 5.56 17 6.28 14 -1.5 80 -4.5 135 0 987.3 NA 0.0000 9999 8630 16010 0 0
2019/04/07 14:06:00 BASE 5.75 19 6.28 14 -1.5 80 -4.5 133 0 987.3 NA 0.0000 9999 8630 16140 0 0
2019/04/07 14:07:00 BASE 5.49 17 6.28 14 -1.5 81 -4.4 132 0 987.4 NA 0.0000 9999 0 0 0 0
2019/04/07 14:08:00 BASE 5.56 13 7.46 8 -1.5 81 -4.4 132 0 987.4 NA 0.0000 9999 0 0 0 0
2019/04/07 14:09:00 BASE 6.47 8 7.51 6 -1.5 81 -4.3 133 0 987.4 NA 0.0000 9999 0 0 0 0
2019/04/07 14:10:00 BASE 7.21 7 7.51 5 -1.5 81 -4.3 128 0 987.4 NA 0.0000 9999 0 0 0 0
2019/04/07 14:11:00 BASE 7.30 8 7.72 6 -1.5 81 -4.3 126 0 987.4 NA 0.0000 9999 7640 0 0 0
2019/04/07 14:12:00 BASE 7.44 7 7.92 9 -1.4 81 -4.2 124 0 987.4 NA 0.0000 9999 7580 0 0 0
2019/04/07 14:13:00 BASE 7.52 7 8.28 7 -1.4 81 -4.2 123 0 987.4 NA 0.0000 9999 7610 0 0 0
2019/04/07 14:14:00 BASE 7.64 6 8.28 7 -1.3 81 -4.2 121 0 987.4 NA 0.0000 9999 7550 0 0 0
2019/04/07 14:15:00 BASE 7.87 8 8.59 11 -1.3 81 -4.2 119 0 987.4 NA 0.0000 9999 7610 0 0 0
2019/04/07 14:16:00 BASE 8.10 9 8.59 2 -1.3 81 -4.2 118 0 987.5 NA 0.0000 9999 7380 0 0 0
2019/04/07 14:17:00 BASE 8.06 6 8.59 2 -1.3 80 -4.2 117 0 987.5 NA 0.0000 9999 7480 0 0 0
2019/04/07 14:18:00 BASE 7.86 5 8.64 9 -1.3 80 -4.3 116 0 987.6 NA 0.0000 9999 7450 0 0 0
2019/04/07 14:19:00 BASE 7.73 7 8.64 9 -1.3 80 -4.4 116 0 987.6 NA 0.0000 9999 7420 0 0 0
2019/04/07 14:20:00 BASE 7.81 5 8.64 9 -1.3 79 -4.5 117 0 987.6 NA 0.0000 9999 7450 0 0 0
2019/04/07 14:21:00 BASE 7.89 3 8.64 9 -1.3 78 -4.6 118 0 987.6 NA 0.0000 9999 7480 0 0 0
2019/04/07 14:22:00 BASE 7.81 3 8.64 9 -1.3 78 -4.7 120 0 987.6 NA 0.0000 9999 7480 0 0 0
2019/04/07 14:23:00 BASE 7.75 1 8.64 9 -1.3 77 -4.8 121 0 987.6 NA 0.0000 9999 7450 0 0 0
2019/04/07 14:24:01 BASE 7.77 0 8.64 9 -1.3 77 -4.8 121 0 987.7 NA 0.0000 9999 7450 0 0 0
2019/04/07 14:25:00 BASE 7.61 2 8.64 9 -1.3 77 -4.8 122 0 987.7 NA 0.0000 9999 7450 0 0 0
2019/04/07 14:26:00 BASE 7.11 2 8.64 9 -1.3 77 -4.8 122 0 987.7 NA 0.0000 9999 7420 0 0 0
2019/04/07 14:27:00 BASE 7.01 4 8.64 9 -1.4 77 -4.8 123 0 987.7 NA 0.0000 9999 7550 0 0 0
2019/04/07 14:28:00 BASE 7.07 3 8.49 1 -1.4 77 -4.8 124 0 987.7 NA 0.0000 9999 7550 0 0 0
2019/04/07 14:29:00 BASE 7.02 1 8.49 1 -1.4 77 -4.8 125 0 987.7 NA 0.0000 9999 7580 0 0 0
2019/04/07 14:30:00 BASE 6.92 360 8.39 360 -1.3 77 -4.8 128 0 987.8 NA 0.0000 9999 7510 0 0 0
2019/04/07 14:31:00 BASE 6.93 359 8.33 354 -1.3 77 -4.8 131 0 987.8 NA 0.0000 9000 7580 0 0 0
2019/04/07 14:32:00 BASE 6.49 1 8.33 354 -1.3 78 -4.7 134 0 987.8 NA 0.0000 HZ 9000 7610 0 0 0
2019/04/07 14:33:00 BASE 6.46 4 8.18 3 -1.3 78 -4.7 137 0 987.8 NA 0.0000 HZ 9000 7580 0 0 0
2019/04/07 14:34:00 BASE 7.02 7 8.08 355 -1.3 78 -4.7 141 0 987.8 NA 0.0000 HZ 9000 7550 0 0 0
2019/04/07 14:35:00 BASE 6.60 0 8.08 355 -1.3 77 -4.7 146 0 987.8 NA 0.0000 HZ 9000 7550 0 0 0
2019/04/07 14:36:00 BASE 6.36 359 8.08 355 -1.3 77 -4.8 155 0 987.8 NA 0.0000 HZ 9000 7580 0 0 0
2019/04/07 14:37:00 BASE 6.29 359 7.92 2 -1.3 77 -4.8 167 0 987.8 NA 0.0000 HZ 9000 7610 0 0 0
2019/04/07 14:38:00 BASE 6.36 2 7.92 2 -1.3 77 -4.7 171 0 987.8 NA 0.0000 HZ 9999 7580 0 0 0
2019/04/07 14:39:00 BASE 7.03 8 7.92 2 -1.3 77 -4.7 174 0 987.8 NA 0.0000 HZ 9000 7550 18210 0 0
2019/04/07 14:40:00 BASE 7.17 7 7.92 2 -1.3 78 -4.7 177 0 987.9 NA 0.0000 HZ 9000 7550 0 0 0
2019/04/07 14:41:00 BASE 6.84 4 7.92 2 -1.3 78 -4.7 179 0 987.9 NA 0.0000 HZ 9000 7580 0 0 0
2019/04/07 14:42:00 BASE 6.48 2 7.92 2 -1.3 78 -4.7 179 0 987.9 NA 0.0000 HZ 9000 7610 0 0 0
2019/04/07 14:43:00 BASE 6.49 3 7.82 1 -1.3 78 -4.7 177 0 987.9 NA 0.0000 HZ 9000 7610 0 0 0
2019/04/07 14:44:00 BASE 6.64 6 7.82 1 -1.3 78 -4.6 179 1 987.9 NA 0.0000 HZ 9000 7640 0 0 0
2019/04/07 14:45:00 BASE 6.82 5 7.82 1 -1.3 78 -4.6 180 1 987.9 NA 0.0000 HZ 9000 7680 0 0 0
2019/04/07 14:46:00 BASE 7.03 4 7.82 1 -1.3 78 -4.6 180 1 987.9 NA 0.0000 HZ 9000 7710 0 0 0
2019/04/07 14:47:00 BASE 7.14 6 7.92 5 -1.3 78 -4.6 180 0 987.9 NA 0.0000 HZ 9999 0 0 0 0
2019/04/07 14:48:00 BASE 7.35 5 8.08 7 -1.3 78 -4.6 181 0 987.9 NA 0.0000 HZ 9999 12340 0 0 0
2019/04/07 14:49:00 BASE 7.28 5 8.08 7 -1.3 78 -4.6 183 0 987.9 NA 0.0000 HZ 9000 12270 0 0 0
2019/04/07 14:50:00 BASE 7.26 4 8.08 7 -1.3 78 -4.6 185 0 987.9 NA 0.0000 HZ 9000 0 0 0 0
2019/04/07 14:51:00 BASE 7.28 2 8.08 7 -1.3 78 -4.6 185 0 987.9 NA 0.0000 HZ 9000 0 0 0 0
2019/04/07 14:52:00 BASE 7.08 354 8.08 7 -1.3 78 -4.6 183 0 988.0 NA 0.0000 HZ 9999 21060 0 0 0
2019/04/07 14:53:00 BASE 6.68 352 8.08 7 -1.3 78 -4.6 185 0 988.0 NA 0.0000 HZ 9999 0 0 0 0
2019/04/07 14:54:00 BASE 6.39 358 8.08 7 -1.3 78 -4.6 185 0 988.0 NA 0.0000 HZ 9000 0 0 0 0
2019/04/07 14:55:00 BASE 6.53 358 8.08 7 -1.3 78 -4.6 184 0 988.0 NA 0.0000 HZ 8000 0 0 0 0
2019/04/07 14:56:00 BASE 6.88 359 8.08 7 -1.3 78 -4.6 184 1 988.0 NA 0.0000 HZ 9000 0 0 0 0
2019/04/07 14:57:00 BASE 7.00 1 8.08 7 -1.3 79 -4.6 181 0 988.0 NA 0.0000 HZ 9000 2620 0 0 0
2019/04/07 14:58:00 BASE 6.65 360 7.87 1 -1.3 79 -4.5 179 1 988.1 NA 0.0000 HZ 9000 0 0 0 0
2019/04/07 14:59:00 BASE 6.21 359 7.87 1 -1.3 79 -4.5 177 0 988.1 NA 0.0000 HZ 9000 0 0 0 0
2019/04/07 15:00:00 BASE 6.12 359 7.61 2 -1.3 79 -4.5 178 0 988.2 NA 0.0000 HZ 8000 0 0 0 0
2019/04/07 15:01:00 BASE 6.45 1 7.56 4 -1.3 79 -4.5 181 0 988.2 NA 0.0000 HZ 8000 0 0 0 0
2019/04/07 15:02:00 BASE 6.70 2 7.56 4 -1.3 79 -4.5 181 0 988.2 NA 0.0000 HZ 9000 0 0 0 0
2019/04/07 15:03:00 BASE 6.75 359 7.56 4 -1.3 79 -4.5 181 0 988.2 NA 0.0000 HZ 9000 2360 0 0 0
2019/04/07 15:04:00 BASE 6.55 0 7.56 4 -1.3 79 -4.5 179 0 988.2 NA 0.0000 HZ 9000 2300 0 0 0
2019/04/07 15:05:00 BASE 6.29 5 8.08 351 -1.3 79 -4.4 177 0 988.2 NA 0.0000 HZ 9000 0 0 0 0
2019/04/07 15:06:00 BASE 6.91 1 8.08 351 -1.3 79 -4.4 177 0 988.1 NA 0.0000 HZ 9999 2460 0 0 0
2019/04/07 15:07:00 BASE 7.16 353 8.08 351 -1.2 80 -4.3 176 0 988.2 NA 0.0000 HZ 9999 2400 0 0 0
2019/04/07 15:08:00 BASE 6.69 349 8.08 351 -1.2 80 -4.3 176 0 988.2 NA 0.0000 HZ 9000 13090 0 0 0
2019/04/07 15:09:00 BASE 6.40 355 8.08 351 -1.2 80 -4.3 175 0 988.2 NA 0.0000 HZ 9000 0 0 0 0
2019/04/07 15:10:00 BASE 5.78 359 8.08 351 -1.2 79 -4.3 174 0 988.3 NA 0.0000 HZ 9000 0 0 0 0
2019/04/07 15:11:00 BASE 5.47 0 8.08 351 -1.2 79 -4.4 173 1 988.3 NA 0.0000 HZ 9000 0 0 0 0
2019/04/07 15:12:00 BASE 5.90 359 8.08 351 -1.2 79 -4.4 173 0 988.3 NA 0.0000 HZ 9000 0 0 0 0
2019/04/07 15:13:00 BASE 6.20 359 8.08 351 -1.2 79 -4.4 173 0 988.3 NA 0.0000 HZ 9000 0 0 0 0
2019/04/07 15:14:00 BASE 6.27 5 8.08 351 -1.3 79 -4.4 173 0 988.3 NA 0.0000 HZ 9000 0 0 0 0
2019/04/07 15:15:00 BASE 6.14 6 7.97 8 -1.3 80 -4.3 173 0 988.3 NA 0.0000 HZ 9000 0 0 0 0
2019/04/07 15:16:00 BASE 6.09 4 7.56 352 -1.2 80 -4.3 175 0 988.3 NA 0.0000 HZ 9000 0 0 0 0
2019/04/07 15:17:00 BASE 6.38 4 7.31 3 -1.2 80 -4.3 176 0 988.3 NA 0.0000 HZ 9000 0 0 0 0
2019/04/07 15:18:00 BASE 6.44 359 7.31 349 -1.2 80 -4.2 178 0 988.3 NA 0.0000 HZ 8000 0 0 0 0
2019/04/07 15:19:00 BASE 6.54 356 7.31 349 -1.2 80 -4.2 179 0 988.3 NA 0.0000 HZ 8000 0 0 0 0
2019/04/07 15:20:00 BASE 6.40 1 7.31 349 -1.2 80 -4.2 177 0 988.4 NA 0.0000 HZ 8000 0 0 0 0
2019/04/07 15:21:00 BASE 6.38 3 7.31 349 -1.2 80 -4.2 184 0 988.4 NA 0.0000 HZ 9000 0 0 0 0
2019/04/07 15:22:00 BASE 6.53 3 7.36 3 -1.2 80 -4.2 185 0 988.3 NA 0.0000 HZ 9999 0 0 0 0
2019/04/07 15:23:00 BASE 6.40 2 7.36 3 -1.2 80 -4.2 186 0 988.4 NA 0.0000 HZ 9000 0 0 0 0
2019/04/07 15:24:00 BASE 6.14 358 7.36 3 -1.2 80 -4.2 187 0 988.4 NA 0.0000 HZ 9000 0 0 0 0
2019/04/07 15:25:00 BASE 5.99 359 7.36 3 -1.2 80 -4.2 189 0 988.4 NA 0.0000 HZ 8000 0 0 0 0
2019/04/07 15:26:00 BASE 6.67 3 7.82 9 -1.2 80 -4.2 190 0 988.4 NA 0.0000 HZ 8000 0 0 0 0
2019/04/07 15:27:00 BASE 6.89 3 7.82 9 -1.2 80 -4.2 191 0 988.4 NA 0.0000 HZ 9000 0 0 0 0
2019/04/07 15:28:00 BASE 6.32 2 7.82 9 -1.2 80 -4.2 192 1 988.4 NA 0.0000 HZ 9000 0 0 0 0
2019/04/07 15:29:00 BASE 6.29 2 7.82 9 -1.2 80 -4.2 191 0 988.4 NA 0.0000 HZ 9000 0 0 0 0
2019/04/07 15:30:00 BASE 6.58 3 7.82 9 -1.2 80 -4.1 191 1 988.4 NA 0.0000 HZ 8000 0 0 0 0
2019/04/07 15:31:00 BASE 6.87 4 7.82 9 -1.2 81 -4.1 190 0 988.4 NA 0.0000 HZ 8000 0 0 0 0
2019/04/07 15:32:00 BASE 7.28 6 8.49 2 -1.2 81 -4.0 191 0 988.4 NA 0.0000 HZ 8000 0 0 0 0
2019/04/07 15:33:00 BASE 7.27 5 8.49 2 -1.1 81 -4.0 192 0 988.4 NA 0.0000 HZ 8000 2330 0 0 0
2019/04/07 15:34:00 BASE 6.57 5 8.49 2 -1.2 81 -4.0 192 0 988.4 NA 0.0000 HZ 8000 21290 0 0 0
2019/04/07 15:35:00 BASE 6.38 8 8.49 2 -1.2 81 -4.0 194 0 988.4 NA 0.0000 HZ 8000 0 0 0 0
2019/04/07 15:36:00 BASE 6.47 3 8.49 2 -1.1 81 -4.0 193 0 988.4 NA 0.0000 HZ 9000 0 0 0 0
2019/04/07 15:37:00 BASE 6.63 359 8.49 2 -1.1 81 -4.0 194 0 988.4 NA 0.0000 HZ 8000 0 0 0 0
2019/04/07 15:38:00 BASE 6.72 3 8.49 2 -1.1 81 -4.0 195 0 988.5 NA 0.0000 HZ 8000 18600 0 0 0
2019/04/07 15:39:00 BASE 6.64 5 8.49 2 -1.1 80 -4.0 194 0 988.5 NA 0.0000 HZ 9000 0 0 0 0
2019/04/07 15:40:00 BASE 6.69 7 8.49 2 -1.1 80 -4.1 194 0 988.5 NA 0.0000 HZ 9000 0 0 0 0
2019/04/07 15:41:00 BASE 6.82 5 8.49 2 -1.1 80 -4.1 194 0 988.5 NA 0.0000 HZ 9000 21460 0 0 0
2019/04/07 15:42:00 BASE 6.70 4 8.28 360 -1.1 80 -4.1 195 0 988.5 NA 0.0000 HZ 9000 0 0 0 0
2019/04/07 15:43:00 BASE 6.83 4 7.82 4 -1.1 80 -4.1 194 0 988.4 NA 0.0000 HZ 9000 0 0 0 0
2019/04/07 15:44:00 BASE 7.01 5 7.87 344 -1.1 80 -4.1 194 0 988.5 NA 0.0000 HZ 8000 17850 0 0 0
2019/04/07 15:45:00 BASE 6.62 4 7.87 344 -1.1 80 -4.1 195 0 988.5 NA 0.0000 HZ 8000 0 0 0 0
2019/04/07 15:46:00 BASE 6.52 4 7.87 344 -1.1 80 -4.0 199 0 988.5 NA 0.0000 HZ 8000 0 0 0 0
2019/04/07 15:47:00 BASE 6.36 0 7.87 344 -1.1 80 -4.0 199 0 988.5 NA 0.0000 HZ 8000 0 0 0 0
2019/04/07 15:48:00 BASE 6.11 355 7.87 344 -1.1 80 -4.0 202 0 988.5 NA 0.0000 HZ 9000 0 0 0 0
2019/04/07 15:49:07 BASE 5.72 357 7.87 344 -1.1 80 -4.1 202 0 988.5 NA 0.0000 HZ 8000 0 0 0 0
2019/04/07 15:50:00 BASE 5.60 360 7.87 344 -1.1 80 -4.1 203 0 988.5 NA 0.0000 HZ 8000 0 0 0 0
2019/04/07 15:51:00 BASE 5.88 358 7.87 344 -1.1 80 -4.1 205 1 988.5 NA 0.0000 HZ 8000 0 0 0 0
2019/04/07 15:52:00 BASE 6.19 359 7.87 344 -1.1 80 -4.1 203 1 988.5 NA 0.0000 HZ 8000 0 0 0 0
2019/04/07 15:53:00 BASE 6.03 359 7.87 344 -1.1 80 -4.1 204 1 988.5 NA 0.0000 HZ 8000 0 0 0 0
2019/04/07 15:54:00 BASE 5.90 356 7.36 360 -1.1 80 -4.1 205 0 988.5 NA 0.0000 HZ 8000 0 0 0 0
2019/04/07 15:55:00 BASE 6.25 354 7.25 347 -1.1 80 -4.1 203 1 988.6 NA 0.0000 HZ 8000 0 0 0 0
2019/04/07 15:56:00 BASE 6.47 353 7.46 4 -1.1 80 -4.1 203 1 988.6 NA 0.0000 HZ 8000 0 0 0 0
2019/04/07 15:57:00 BASE 6.71 359 7.46 4 -1.1 80 -4.1 204 0 988.6 NA 0.0000 HZ 8000 0 0 0 0
2019/04/07 15:58:00 BASE 6.67 1 7.46 4 -1.1 80 -4.1 207 1 988.7 NA 0.0000 HZ 8000 17950 0 0 0
2019/04/07 15:59:00 BASE 6.48 359 7.56 9 -1.1 80 -4.1 210 1 988.7 NA 0.0000 HZ 8000 0 0 0 0
2019/04/07 16:00:05 BASE 6.57 2 7.56 9 -1.1 80 -4.2 213 0 988.7 NA 0.0000 HZ 8000 22050 0 0 0
2019/04/07 16:01:00 BASE 6.67 2 7.67 353 -1.1 80 -4.2 212 0 988.7 NA 0.0000 HZ 8000 0 0 0 0
2019/04/07 16:02:00 BASE 7.10 359 7.82 354 -1.1 80 -4.2 210 1 988.6 NA 0.0000 HZ 8000 2620 0 0 0
2019/04/07 16:03:00 BASE 7.40 0 8.08 3 -1.1 80 -4.2 209 0 988.7 NA 0.0000 HZ 8000 2590 21160 0 0
2019/04/07 16:04:00 BASE 7.21 1 8.08 3 -1.1 80 -4.1 209 0 988.7 NA 0.0000 HZ 9000 23030 0 0 0
2019/04/07 16:05:00 BASE 6.50 2 8.08 3 -1.1 80 -4.1 206 0 988.7 NA 0.0000 HZ 9000 0 0 0 0
2019/04/07 16:06:00 BASE 6.02 3 8.08 3 -1.1 80 -4.1 206 0 988.7 NA 0.0000 HZ 8000 0 0 0 0
2019/04/07 16:07:00 BASE 6.07 356 8.08 3 -1.1 80 -4.1 205 0 988.7 NA 0.0000 HZ 9000 0 0 0 0
2019/04/07 16:08:00 BASE 6.04 351 8.08 3 -1.1 80 -4.1 204 0 988.7 NA 0.0000 HZ 9000 0 0 0 0
2019/04/07 16:09:00 BASE 6.01 353 8.08 3 -1.1 80 -4.2 204 1 988.7 NA 0.0000 HZ 9000 0 0 0 0
2019/04/07 16:10:00 BASE 6.44 350 8.08 3 -1.1 80 -4.2 200 0 988.7 NA 0.0000 HZ 9999 0 0 0 0
2019/04/07 16:11:00 BASE 6.84 355 8.08 3 -1.1 79 -4.2 206 0 988.7 NA 0.0000 HZ 9999 0 0 0 0
2019/04/07 16:12:00 BASE 6.42 1 8.08 3 -1.1 79 -4.3 211 0 988.7 NA 0.0000 HZ 9999 0 0 0 0
2019/04/07 16:13:00 BASE 6.21 358 7.72 1 -1.1 79 -4.3 215 1 988.7 NA 0.0000 HZ 9999 0 0 0 0
2019/04/07 16:14:00 BASE 6.19 1 7.72 1 -1.1 79 -4.3 219 0 988.7 NA 0.0000 HZ 9999 0 0 0 0
2019/04/07 16:15:00 BASE 6.50 2 7.72 1 -1.1 79 -4.3 220 1 988.7 NA 0.0000 HZ 9999 0 0 0 0
2019/04/07 16:16:00 BASE 7.02 359 7.72 1 -1.1 79 -4.3 223 0 988.7 NA 0.0000 HZ 9000 15650 0 0 0
2019/04/07 16:17:00 BASE 7.16 1 7.82 3 -1.2 79 -4.3 224 1 988.8 NA 0.0000 HZ 9000 0 0 0 0
2019/04/07 16:18:00 BASE 7.04 2 7.82 3 -1.2 79 -4.4 225 0 988.8 NA 0.0000 HZ 8000 0 0 0 0
2019/04/07 16:19:00 BASE 6.61 3 7.82 3 -1.2 79 -4.4 226 1 988.9 NA 0.0000 HZ 8000 0 0 0 0
2019/04/07 16:20:00 BASE 6.40 3 7.82 3 -1.2 79 -4.3 222 1 988.9 NA 0.0000 HZ 9000 2530 0 0 0
2019/04/07 16:21:00 BASE 6.58 2 7.82 354 -1.1 79 -4.2 222 0 988.9 NA 0.0000 HZ 9000 2530 0 0 0
2019/04/07 16:22:00 BASE 7.23 4 8.08 8 -1.1 80 -4.2 220 1 988.9 NA 0.0000 HZ 9000 2530 20830 24020 0
2019/04/07 16:23:00 BASE 7.17 6 8.08 8 -1.1 80 -4.1 221 1 988.9 NA 0.0000 HZ 9000 0 0 0 0
2019/04/07 16:24:00 BASE 6.98 4 8.08 8 -1.1 80 -4.1 220 0 988.9 NA 0.0000 HZ 9000 0 0 0 0
2019/04/07 16:25:00 BASE 7.10 2 8.08 8 -1.1 80 -4.2 220 0 988.9 NA 0.0000 HZ 9000 2560 0 0 0
2019/04/07 16:26:00 BASE 6.81 1 8.08 8 -1.1 80 -4.2 221 0 988.9 NA 0.0000 HZ 9000 0 0 0 0
2019/04/07 16:27:00 BASE 6.87 3 8.08 8 -1.1 79 -4.2 219 0 988.9 NA 0.0000 HZ 8000 0 0 0 0
2019/04/07 16:28:00 BASE 7.02 3 8.08 8 -1.1 79 -4.3 218 0 988.9 NA 0.0000 HZ 8000 0 0 0 0
2019/04/07 16:29:00 BASE 7.10 3 8.23 8 -1.1 79 -4.3 217 0 988.9 NA 0.0000 HZ 9000 0 0 0 0
2019/04/07 16:30:00 BASE 7.24 6 8.23 8 -1.1 79 -4.3 213 0 988.9 NA 0.0000 HZ 9000 0 0 0 0
2019/04/07 16:31:00 BASE 7.35 6 8.23 8 -1.1 79 -4.3 213 0 988.9 NA 0.0000 HZ 9000 0 0 0 0
2019/04/07 16:32:00 BASE 7.13 4 8.23 8 -1.1 79 -4.4 214 0 988.9 NA 0.0000 HZ 9999 16270 0 0 0
2019/04/07 16:33:00 BASE 7.40 6 8.59 8 -1.1 79 -4.4 214 1 988.9 NA 0.0000 HZ 9999 0 0 0 0
2019/04/07 16:34:00 BASE 7.88 7 8.59 8 -1.1 79 -4.4 216 0 989.0 NA 0.0000 HZ 9000 0 0 0 0
2019/04/07 16:35:00 BASE 7.53 6 8.59 8 -1.1 78 -4.4 214 0 989.0 NA 0.0000 HZ 8000 0 0 0 0
2019/04/07 16:36:00 BASE 7.47 3 8.59 8 -1.1 78 -4.4 213 1 989.0 NA 0.0000 HZ 9000 20570 0 0 0
2019/04/07 16:37:00 BASE 7.74 3 8.59 8 -1.1 78 -4.4 215 0 989.0 NA 0.0000 HZ 8000 2760 0 0 0
2019/04/07 16:38:00 BASE 7.61 4 8.59 8 -1.1 78 -4.5 217 1 989.0 NA 0.0000 HZ 8000 2760 0 0 0
2019/04/07 16:39:00 BASE 7.49 4 8.59 8 -1.1 78 -4.5 215 0 989.0 NA 0.0000 HZ 9000 0 0 0 0
2019/04/07 16:40:00 BASE 7.60 6 8.59 8 -1.1 78 -4.5 213 0 989.0 NA 0.0000 HZ 9000 0 0 0 0
2019/04/07 16:41:00 BASE 7.68 7 8.59 8 -1.1 78 -4.5 212 1 989.0 NA 0.0000 HZ 9999 0 0 0 0
2019/04/07 16:42:00 BASE 7.71 7 8.59 8 -1.1 77 -4.6 210 0 989.0 NA 0.0000 HZ 9000 0 0 0 0
2019/04/07 16:43:00 BASE 7.63 6 8.49 8 -1.1 77 -4.6 213 0 989.0 NA 0.0000 HZ 9000 14670 0 0 0
2019/04/07 16:44:00 BASE 7.25 4 8.49 8 -1.1 77 -4.6 210 0 989.0 NA 0.0000 HZ 9999 14310 0 0 0
2019/04/07 16:45:00 BASE 6.94 3 8.49 8 -1.1 77 -4.6 208 0 989.0 NA 0.0000 HZ 9000 0 0 0 0
2019/04/07 16:46:00 BASE 7.24 7 8.49 8 -1.1 77 -4.6 206 0 989.0 NA 0.0000 HZ 8000 0 0 0 0
2019/04/07 16:47:00 BASE 7.50 7 8.49 8 -1.1 77 -4.6 205 1 989.1 NA 0.0000 HZ 8000 0 0 0 0
2019/04/07 16:48:00 BASE 7.32 5 8.49 8 -1.1 76 -4.7 208 1 989.1 NA 0.0000 HZ 8000 0 0 0 0
2019/04/07 16:49:00 BASE 7.14 4 8.49 8 -1.1 76 -4.8 208 0 989.1 NA 0.0000 HZ 8000 0 0 0 0
2019/04/07 16:50:00 BASE 6.85 6 8.49 8 -1.1 75 -4.9 207 1 989.1 NA 0.0000 HZ 9000 0 0 0 0
2019/04/07 16:51:00 BASE 6.72 6 8.49 8 -1.1 75 -4.9 203 1 989.1 NA 0.0000 HZ 9000 0 0 0 0
2019/04/07 16:52:00 BASE 7.05 3 8.49 8 -1.1 75 -5.0 199 0 989.1 NA 0.0000 HZ 8000 0 0 0 0
2019/04/07 16:53:00 BASE 7.37 3 8.23 3 -1.1 75 -5.0 198 0 989.1 NA 0.0000 HZ 8000 0 0 0 0
2019/04/07 16:54:00 BASE 7.32 3 8.23 3 -1.1 75 -5.0 196 0 989.1 NA 0.0000 HZ 9000 0 0 0 0
2019/04/07 16:55:00 BASE 7.32 3 8.23 3 -1.0 75 -4.9 195 0 989.1 NA 0.0000 HZ 9000 0 0 0 0
2019/04/07 16:56:00 BASE 7.17 2 7.92 3 -1.1 75 -4.9 195 0 989.1 NA 0.0000 HZ 9000 0 0 0 0
2019/04/07 16:57:00 BASE 6.84 3 7.92 3 -1.1 75 -4.9 194 0 989.1 NA 0.0000 HZ 9000 0 0 0 0
2019/04/07 16:58:00 BASE 6.88 5 7.92 3 -1.1 75 -4.9 194 0 989.1 NA 0.0000 HZ 9999 0 0 0 0
2019/04/07 16:59:00 BASE 7.06 5 7.92 11 -1.1 75 -4.9 195 0 989.1 NA 0.0000 HZ 9000 0 0 0 0
2019/04/07 17:00:00 BASE 6.84 3 7.92 11 -1.1 75 -4.9 196 0 989.1 NA 0.0000 HZ 9000 0 0 0 0
2019/04/07 17:01:00 BASE 6.95 2 7.92 11 -1.1 75 -4.9 198 0 989.1 NA 0.0000 HZ 9000 0 0 0 0
2019/04/07 17:02:00 BASE 7.34 4 7.92 11 -1.1 75 -4.9 198 0 989.1 NA 0.0000 HZ 9000 0 0 0 0
2019/04/07 17:03:00 BASE 7.04 4 7.92 11 -1.1 75 -4.9 199 1 989.1 NA 0.0000 HZ 9000 0 0 0 0
2019/04/07 17:04:00 BASE 7.00 3 7.92 11 -1.1 76 -4.9 199 0 989.1 NA 0.0000 HZ 9000 0 0 0 0
2019/04/07 17:05:00 BASE 7.26 6 7.92 6 -1.1 76 -4.9 197 0 989.1 NA 0.0000 HZ 9000 0 0 0 0
2019/04/07 17:06:00 BASE 7.11 7 7.92 6 -1.1 75 -4.9 196 1 989.1 NA 0.0000 HZ 8000 0 0 0 0
2019/04/07 17:07:00 BASE 6.79 2 7.92 6 -1.1 76 -4.9 195 0 989.1 NA 0.0000 HZ 8000 0 0 0 0
2019/04/07 17:08:00 BASE 6.98 360 7.92 6 -1.1 75 -4.9 194 0 989.1 NA 0.0000 HZ 9000 0 0 0 0
2019/04/07 17:09:00 BASE 7.17 2 7.92 6 -1.1 75 -5.0 195 0 989.1 NA 0.0000 HZ 9000 0 0 0 0
2019/04/07 17:10:00 BASE 6.92 3 7.92 6 -1.1 75 -5.0 199 1 989.2 NA 0.0000 HZ 8000 0 0 0 0
2019/04/07 17:11:00 BASE 6.89 3 7.92 6 -1.1 75 -5.1 202 1 989.2 NA 0.0000 HZ 9000 0 0 0 0
2019/04/07 17:12:00 BASE 6.73 5 7.92 6 -1.1 74 -5.1 205 1 989.2 NA 0.0000 HZ 9000 0 0 0 0
2019/04/07 17:13:00 BASE 6.55 6 7.92 6 -1.1 74 -5.2 211 0 989.2 NA 0.0000 HZ 8000 0 0 0 0
2019/04/07 17:14:00 BASE 6.68 6 7.92 6 -1.1 74 -5.1 213 1 989.2 NA 0.0000 HZ 9000 0 0 0 0
2019/04/07 17:15:00 BASE 7.11 6 8.33 1 -1.1 74 -5.1 213 1 989.2 NA 0.0000 HZ 9000 0 0 0 0
2019/04/07 17:16:00 BASE 7.29 5 8.33 1 -1.1 74 -5.1 212 0 989.2 NA 0.0000 HZ 9000 0 0 0 0
2019/04/07 17:17:00 BASE 6.96 4 8.33 1 -1.1 73 -5.2 210 0 989.2 NA 0.0000 HZ 9000 0 0 0 0
2019/04/07 17:18:00 BASE 6.79 2 8.33 1 -1.1 73 -5.3 210 0 989.3 NA 0.0000 HZ 9000 0 0 0 0
2019/04/07 17:19:00 BASE 6.69 356 8.33 1 -1.1 73 -5.3 213 0 989.4 NA 0.0000 HZ 8000 0 0 0 0
2019/04/07 17:20:00 BASE 6.49 359 8.33 1 -1.0 73 -5.3 216 0 989.4 NA 0.0000 HZ 8000 0 0 0 0
2019/04/07 17:21:00 BASE 6.32 357 8.33 1 -1.0 73 -5.3 219 0 989.4 NA 0.0000 HZ 8000 22210 0 0 0
2019/04/07 17:22:00 BASE 6.47 358 8.33 1 -1.0 73 -5.3 223 0 989.4 NA 0.0000 HZ 9000 24050 0 0 0
2019/04/07 17:23:00 BASE 6.72 0 8.33 1 -1.0 73 -5.3 227 0 989.4 NA 0.0000 HZ 9000 13850 0 0 0
2019/04/07 17:24:00 BASE 6.50 1 8.33 1 -1.1 73 -5.3 231 1 989.4 NA 0.0000 HZ 8000 14930 0 0 0
2019/04/07 17:25:00 BASE 6.50 1 7.72 1 -1.1 73 -5.3 233 0 989.4 NA 0.0000 HZ 8000 0 0 0 0
2019/04/07 17:26:00 BASE 6.72 1 7.41 360 -1.1 73 -5.4 233 0 989.4 NA 0.0000 HZ 8000 0 0 0 0
2019/04/07 17:27:00 BASE 6.75 2 7.41 360 -1.0 73 -5.3 230 0 989.4 NA 0.0000 HZ 8000 13810 20180 22310 0
2019/04/07 17:28:00 BASE 6.81 2 7.41 360 -1.1 73 -5.4 230 0 989.4 NA 0.0000 HZ 8000 0 0 0 0
2019/04/07 17:29:00 BASE 6.52 4 7.41 360 -1.0 73 -5.3 229 0 989.4 NA 0.0000 HZ 8000 0 0 0 0
2019/04/07 17:30:00 BASE 6.49 4 7.41 360 -1.0 73 -5.3 230 0 989.4 NA 0.0000 HZ 8000 0 0 0 0
2019/04/07 17:31:00 BASE 6.70 4 7.61 360 -1.1 73 -5.2 231 0 989.5 NA 0.0000 HZ 8000 0 0 0 0
2019/04/07 17:32:00 BASE 6.45 360 7.61 360 -1.1 74 -5.2 231 0 989.5 NA 0.0000 HZ 8000 0 0 0 0
2019/04/07 17:33:00 BASE 6.36 359 7.61 360 -1.0 74 -5.1 235 1 989.5 NA 0.0000 HZ 9000 0 0 0 0
2019/04/07 17:34:00 BASE 6.40 2 7.61 360 -1.0 74 -5.1 239 0 989.5 NA 0.0000 HZ 9999 0 0 0 0
2019/04/07 17:35:00 BASE 6.24 0 7.61 360 -1.0 74 -5.2 239 0 989.5 NA 0.0000 HZ 9999 0 0 0 0
2019/04/07 17:36:00 BASE 6.26 360 7.61 360 -1.0 73 -5.2 239 0 989.5 NA 0.0000 HZ 9999 0 0 0 0
2019/04/07 17:37:00 BASE 6.08 359 7.61 360 -1.0 73 -5.3 243 0 989.5 NA 0.0000 9999 0 0 0 0
2019/04/07 17:38:00 BASE 6.24 356 7.61 360 -1.0 72 -5.4 247 0 989.5 NA 0.0000 9999 0 0 0 0
2019/04/07 17:39:00 BASE 6.47 359 7.61 360 -1.0 72 -5.4 247 0 989.6 NA 0.0000 9999 0 0 0 0
2019/04/07 17:40:00 BASE 6.56 1 7.61 360 -1.0 71 -5.6 248 0 989.5 NA 0.0000 9999 0 0 0 0
2019/04/07 17:41:00 BASE 6.51 2 7.41 1 -1.1 71 -5.7 253 0 989.6 NA 0.0000 9999 0 0 0 0
2019/04/07 17:42:00 BASE 6.33 0 7.41 1 -1.1 71 -5.7 258 0 989.6 NA 0.0000 9999 0 0 0 0
2019/04/07 17:43:00 BASE 6.34 2 7.41 1 -1.1 70 -5.8 261 0 989.6 NA 0.0000 9999 0 0 0 0
2019/04/07 17:44:00 BASE 6.38 6 7.41 1 -1.0 70 -5.7 259 1 989.6 NA 0.0000 9999 0 0 0 0
2019/04/07 17:45:00 BASE 6.58 6 7.41 1 -1.0 70 -5.7 252 0 989.6 NA 0.0000 9999 0 0 0 0
2019/04/07 17:46:00 BASE 6.29 5 7.41 1 -1.0 70 -5.7 241 0 989.6 NA 0.0000 9999 0 0 0 0
2019/04/07 17:47:00 BASE 6.10 4 7.41 1 -0.9 70 -5.7 237 0 989.6 NA 0.0000 9999 14760 0 0 0
2019/04/07 17:48:00 BASE 6.63 4 7.41 1 -0.9 70 -5.7 218 0 989.6 NA 0.0000 9999 0 0 0 0
2019/04/07 17:49:00 BASE 6.53 4 7.41 355 -0.9 70 -5.7 229 1 989.7 NA 0.0000 9999 0 0 0 0
2019/04/07 17:50:00 BASE 6.29 5 7.41 355 -0.9 70 -5.7 231 1 989.7 NA 0.0000 9999 0 0 0 0
2019/04/07 17:51:00 BASE 6.55 4 7.41 10 -0.9 70 -5.7 230 0 989.7 NA 0.0000 9999 0 0 0 0
2019/04/07 17:52:00 BASE 6.88 5 7.51 8 -0.9 70 -5.7 228 0 989.7 NA 0.0000 9999 0 0 0 0
2019/04/07 17:53:00 BASE 7.06 5 7.77 4 -0.9 70 -5.7 221 0 989.7 NA 0.0000 9999 0 0 0 0
2019/04/07 17:54:00 BASE 7.12 5 7.77 4 -0.9 70 -5.7 217 0 989.7 NA 0.0000 9999 0 0 0 0
2019/04/07 17:55:00 BASE 6.95 5 7.77 4 -0.9 70 -5.8 218 0 989.7 NA 0.0000 9999 0 0 0 0
2019/04/07 17:56:00 BASE 6.94 7 7.77 14 -0.9 70 -5.8 224 0 989.7 NA 0.0000 9999 0 0 0 0
2019/04/07 17:57:00 BASE 7.15 10 7.77 14 -0.9 70 -5.8 220 0 989.7 NA 0.0000 9999 20600 0 0 0
2019/04/07 17:58:00 BASE 7.10 10 7.77 14 -0.9 70 -5.8 230 0 989.7 NA 0.0000 9999 0 0 0 0
2019/04/07 17:59:00 BASE 6.97 9 7.77 14 -0.9 70 -5.7 234 0 989.7 NA 0.0000 9999 0 0 0 0
2019/04/07 18:00:00 BASE 6.77 10 7.77 14 -0.9 70 -5.6 244 0 989.7 NA 0.0000 9999 7320 0 0 0
2019/04/07 18:01:00 BASE 7.02 12 8.28 9 -0.8 70 -5.6 236 0 989.7 NA 0.0000 9999 0 0 0 0
2019/04/07 18:02:00 BASE 7.26 11 8.28 9 -0.8 70 -5.6 226 0 989.7 NA 0.0000 9999 0 0 0 0
2019/04/07 18:03:00 BASE 7.17 10 8.28 9 -0.8 70 -5.6 241 0 989.7 NA 0.0000 9999 0 0 0 0
2019/04/07 18:04:00 BASE 6.98 10 8.28 9 -0.8 70 -5.6 210 1 989.7 NA 0.0000 9999 0 0 0 0
2019/04/07 18:05:00 BASE 7.01 10 8.28 9 -0.7 70 -5.5 177 0 989.7 NA 0.0000 9999 0 0 0 0
2019/04/07 18:06:00 BASE 7.24 10 8.28 9 -0.7 70 -5.5 156 0 989.7 NA 0.0000 9999 0 0 0 0
2019/04/07 18:07:00 BASE 7.40 12 8.28 9 -0.8 71 -5.4 146 0 989.8 NA 0.0000 9999 0 0 0 0
2019/04/07 18:08:00 BASE 7.26 13 8.28 9 -0.8 71 -5.4 139 0 989.8 NA 0.0000 9999 0 0 0 0
2019/04/07 18:09:00 BASE 7.28 12 8.28 9 -0.8 71 -5.4 134 0 989.8 NA 0.0000 9999 0 0 0 0
2019/04/07 18:10:00 BASE 7.49 10 8.28 9 -0.8 71 -5.4 131 0 989.8 NA 0.0000 9999 0 0 0 0
2019/04/07 18:11:00 BASE 7.33 10 7.97 14 -0.8 71 -5.4 128 1 989.8 NA 0.0000 9999 0 0 0 0
2019/04/07 18:12:00 BASE 6.96 13 7.97 14 -0.8 71 -5.4 124 0 989.8 NA 0.0000 9000 0 0 0 0
2019/04/07 18:13:00 BASE 6.99 12 7.97 14 -0.9 72 -5.4 121 0 989.8 NA 0.0000 9999 0 0 0 0
2019/04/07 18:14:00 BASE 7.31 10 8.28 360 -0.9 72 -5.3 118 0 989.8 NA 0.0000 9999 0 0 0 0
2019/04/07 18:15:00 BASE 7.18 9 8.28 360 -0.9 72 -5.3 115 0 989.8 NA 0.0000 9999 0 0 0 0
2019/04/07 18:16:00 BASE 6.98 11 8.28 360 -0.9 72 -5.3 111 0 989.8 NA 0.0000 9999 0 0 0 0
2019/04/07 18:17:00 BASE 6.66 13 8.28 360 -0.9 72 -5.3 108 1 989.8 NA 0.0000 9999 0 0 0 0
2019/04/07 18:18:00 BASE 6.59 15 8.28 360 -0.9 72 -5.3 105 0 989.8 NA 0.0000 9999 7280 0 0 0
2019/04/07 18:19:00 BASE 6.53 11 8.28 360 -0.9 72 -5.3 102 0 989.8 NA 0.0000 9999 7220 0 0 0
2019/04/07 18:20:00 BASE 6.32 11 8.28 360 -0.9 72 -5.4 100 0 989.8 NA 0.0000 9999 0 0 0 0
2019/04/07 18:21:00 BASE 6.39 13 8.28 360 -0.9 72 -5.4 97 0 989.8 NA 0.0000 9999 0 0 0 0
2019/04/07 18:22:00 BASE 6.39 14 8.28 360 -0.9 72 -5.4 95 0 989.8 NA 0.0000 9999 0 0 0 0
2019/04/07 18:23:00 BASE 6.33 15 8.28 360 -0.9 72 -5.3 93 1 989.8 NA 0.0000 9999 0 0 0 0
2019/04/07 18:24:00 BASE 6.19 13 7.72 14 -0.9 72 -5.3 91 0 989.8 NA 0.0000 9999 0 0 0 0
2019/04/07 18:25:00 BASE 6.26 12 7.72 14 -0.9 73 -5.2 89 0 989.8 NA 0.0000 9999 7320 0 0 0
2019/04/07 18:26:00 BASE 6.44 14 7.72 14 -0.9 73 -5.1 87 0 989.9 NA 0.0000 9999 7450 0 0 0
2019/04/07 18:27:00 BASE 6.48 15 7.72 14 -0.9 74 -5.0 86 0 989.9 NA 0.0000 9999 7480 0 0 0
2019/04/07 18:28:00 BASE 6.55 14 7.51 9 -0.9 74 -5.0 85 1 989.9 NA 0.0000 9999 7550 0 0 0
2019/04/07 18:29:00 BASE 6.68 13 7.51 9 -0.9 75 -4.9 84 0 989.9 NA 0.0000 9999 7250 0 0 0
2019/04/07 18:30:00 BASE 6.38 13 7.51 9 -0.9 75 -4.8 83 0 989.9 NA 0.0000 9999 0 0 0 0
2019/04/07 18:31:00 BASE 6.37 12 7.51 9 -0.9 75 -4.8 82 0 989.9 NA 0.0000 9999 7480 0 0 0
2019/04/07 18:32:00 BASE 6.85 11 7.51 9 -0.9 75 -4.9 81 0 989.9 NA 0.0000 9999 7120 0 0 0
2019/04/07 18:33:00 BASE 6.90 10 7.51 12 -1.0 74 -4.9 81 0 989.9 NA 0.0000 9999 7480 20870 22770 0
2019/04/07 18:34:00 BASE 6.83 11 7.51 12 -1.0 74 -5.0 82 0 990.0 NA 0.0000 9999 7190 0 0 0
2019/04/07 18:35:00 BASE 6.89 11 7.56 6 -1.0 74 -5.0 82 0 990.0 NA 0.0000 9999 7250 0 0 0
2019/04/07 18:36:00 BASE 6.92 9 7.56 6 -1.0 74 -5.0 83 0 990.1 NA 0.0000 9999 6990 0 0 0
2019/04/07 18:37:00 BASE 6.96 9 7.56 6 -1.0 74 -5.1 84 0 990.1 NA 0.0000 9999 6990 0 0 0
2019/04/07 18:38:00 BASE 6.96 8 7.56 6 -1.0 74 -5.1 84 0 990.1 NA 0.0000 9999 7020 0 0 0
2019/04/07 18:39:00 BASE 6.98 8 7.56 6 -1.0 73 -5.2 85 1 990.1 NA 0.0000 9999 6860 0 0 0
2019/04/07 18:40:00 BASE 7.08 8 7.56 6 -1.0 73 -5.3 85 1 990.1 NA 0.0000 9999 6890 0 0 0
2019/04/07 18:41:00 BASE 7.05 8 7.56 6 -1.0 72 -5.4 86 0 990.1 NA 0.0000 9999 6860 0 0 0
2019/04/07 18:42:00 BASE 7.06 8 7.72 12 -1.0 72 -5.4 86 0 990.1 NA 0.0000 9999 6960 0 0 0
2019/04/07 18:43:00 BASE 7.10 6 7.87 5 -1.0 72 -5.4 86 0 990.1 NA 0.0000 9999 7020 0 0 0
2019/04/07 18:44:00 BASE 7.09 5 7.87 5 -1.0 72 -5.4 87 1 990.2 NA 0.0000 9999 7250 0 0 0
2019/04/07 18:45:00 BASE 6.90 6 7.87 5 -1.0 72 -5.4 88 1 990.2 NA 0.0000 9999 6960 0 0 0
2019/04/07 18:46:00 BASE 6.76 5 7.87 5 -1.0 72 -5.4 88 0 990.2 NA 0.0000 9999 7090 0 0 0
2019/04/07 18:47:00 BASE 6.67 7 7.87 5 -1.1 72 -5.4 89 0 990.2 NA 0.0000 9999 7220 0 0 0
2019/04/07 18:48:00 BASE 6.60 7 7.87 5 -1.0 72 -5.4 89 1 990.2 NA 0.0000 9999 7250 0 0 0
2019/04/07 18:49:00 BASE 6.68 6 7.87 5 -1.0 72 -5.4 90 1 990.2 NA 0.0000 9999 7190 0 0 0
2019/04/07 18:50:00 BASE 6.73 7 7.87 5 -1.0 72 -5.4 91 0 990.2 NA 0.0000 9999 7190 0 0 0
2019/04/07 18:51:00 BASE 6.75 5 7.87 5 -1.0 72 -5.4 92 0 990.2 NA 0.0000 9999 7190 0 0 0
2019/04/07 18:52:00 BASE 6.64 5 7.87 5 -1.0 72 -5.4 92 0 990.3 NA 0.0000 9999 7280 0 0 0
2019/04/07 18:53:00 BASE 6.46 7 7.51 3 -1.0 72 -5.4 92 1 990.3 NA 0.0000 9999 7280 0 0 0
2019/04/07 18:54:00 BASE 6.39 8 7.25 354 -1.0 72 -5.3 91 1 990.3 NA 0.0000 9999 7250 19190 0 0
2019/04/07 18:55:00 BASE 6.44 7 7.25 354 -1.0 73 -5.3 91 0 990.3 NA 0.0000 9999 7250 0 0 0
2019/04/07 18:56:00 BASE 6.39 5 7.25 354 -1.0 73 -5.2 90 1 990.3 NA 0.0000 9999 7350 0 0 0
2019/04/07 18:57:00 BASE 6.27 5 7.25 354 -0.9 73 -5.2 89 1 990.3 NA 0.0000 9999 7350 0 0 0
2019/04/07 18:58:00 BASE 6.40 6 7.25 354 -0.9 73 -5.2 89 0 990.3 NA 0.0000 9999 2990 7380 0 0
2019/04/07 18:59:00 BASE 6.50 7 7.25 354 -1.0 73 -5.3 89 0 990.3 NA 0.0000 9999 3080 7350 23660 0
2019/04/07 19:00:00 BASE 6.39 8 7.25 354 -1.0 72 -5.3 88 0 990.3 NA 0.0000 9999 2950 7450 0 0
2019/04/07 19:01:00 BASE 6.44 8 7.15 11 -1.0 72 -5.4 87 0 990.4 NA 0.0000 9999 7280 0 0 0
2019/04/07 19:02:00 BASE 6.38 7 7.15 11 -1.0 72 -5.3 85 0 990.4 NA 0.0000 9999 2920 7150 0 0
2019/04/07 19:03:00 BASE 6.32 6 7.15 11 -1.0 72 -5.3 83 0 990.4 NA 0.0000 9999 7120 0 0 0
2019/04/07 19:04:00 BASE 6.31 6 7.15 11 -0.9 72 -5.3 82 0 990.4 NA 0.0000 9999 3510 7220 0 0
2019/04/07 19:05:00 BASE 6.35 6 7.46 10 -0.9 73 -5.2 82 0 990.4 NA 0.0000 9999 3580 7220 0 0
2019/04/07 19:06:00 BASE 6.48 5 7.46 10 -0.9 73 -5.2 82 1 990.4 NA 0.0000 9999 3150 7280 0 0
2019/04/07 19:07:00 BASE 6.83 5 7.82 1 -0.9 73 -5.1 82 1 990.4 NA 0.0000 9999 2850 0 0 0
2019/04/07 19:08:00 BASE 7.09 4 7.82 1 -0.9 73 -5.2 82 0 990.4 NA 0.0000 9999 2760 0 0 0
2019/04/07 19:09:00 BASE 6.96 3 7.82 1 -1.0 73 -5.1 82 0 990.4 NA 0.0000 9999 2720 0 0 0
2019/04/07 19:10:00 BASE 6.51 2 7.82 1 -1.0 73 -5.2 81 0 990.4 NA 0.0000 9999 2920 7350 0 0
2019/04/07 19:11:00 BASE 6.41 3 7.82 1 -1.0 73 -5.1 80 0 990.4 NA 0.0000 9999 7250 0 0 0
2019/04/07 19:12:00 BASE 6.61 2 7.82 1 -1.0 73 -5.2 80 0 990.4 NA 0.0000 9999 7320 0 0 0
2019/04/07 19:13:00 BASE 6.39 355 7.82 1 -1.0 73 -5.2 79 1 990.4 NA 0.0000 9999 3020 7250 23820 0
2019/04/07 19:14:00 BASE 6.33 358 7.82 1 -1.1 74 -5.2 79 1 990.4 NA 0.0000 9999 2620 0 0 0
2019/04/07 19:15:00 BASE 6.60 6 7.82 1 -1.1 74 -5.1 79 1 990.4 NA 0.0000 9999 2590 0 0 0
2019/04/07 19:16:00 BASE 6.35 360 7.82 1 -1.1 74 -5.1 78 1 990.4 NA 0.0000 9999 2690 0 0 0
2019/04/07 19:17:00 BASE 6.22 353 7.77 354 -1.1 75 -5.0 78 1 990.5 NA 0.0000 9999 1800 7120 0 0
2019/04/07 19:18:00 BASE 6.18 346 7.46 7 -1.1 75 -4.9 77 0 990.5 NA 0.0000 9999 1970 7190 0 0
2019/04/07 19:19:00 BASE 5.39 343 7.46 7 -1.1 76 -4.9 76 0 990.5 NA 0.0000 9999 7190 0 0 0
2019/04/07 19:20:00 BASE 5.01 345 7.31 2 -1.1 76 -4.8 75 0 990.5 NA 0.0000 9999 6920 0 0 0
2019/04/07 19:21:00 BASE 5.44 351 7.31 2 -1.0 76 -4.8 73 0 990.5 NA 0.0000 9999 6960 0 0 0
2019/04/07 19:22:00 BASE 5.67 360 7.31 2 -1.0 75 -4.8 71 1 990.5 NA 0.0000 9999 2850 6990 0 0
2019/04/07 19:23:00 BASE 5.40 356 7.31 2 -1.0 75 -4.8 69 0 990.5 NA 0.0000 9999 2920 3450 0 0
2019/04/07 19:24:00 BASE 5.27 343 7.25 2 -1.0 75 -4.9 67 0 990.5 NA 0.0000 9999 2950 3710 0 0
2019/04/07 19:25:00 BASE 4.95 341 7.15 350 -1.0 75 -4.9 64 0 990.5 NA 0.0000 9999 2230 3020 0 0
2019/04/07 19:26:00 BASE 4.96 351 7.15 350 -1.0 75 -4.9 60 1 990.5 NA 0.0000 9999 2070 0 0 0
2019/04/07 19:27:00 BASE 5.56 355 7.05 322 -1.0 75 -4.9 57 1 990.6 NA 0.0000 9999 2170 0 0 0
2019/04/07 19:28:00 BASE 5.85 355 6.53 352 -1.0 75 -4.9 54 0 990.6 NA 0.0000 9999 2200 0 0 0
2019/04/07 19:29:00 BASE 6.02 358 6.53 360 -1.0 75 -4.9 51 0 990.7 NA 0.0000 9999 3020 0 0 0
2019/04/07 19:30:00 BASE 6.06 357 6.53 360 -1.1 75 -5.0 48 0 990.7 NA 0.0000 9999 1970 0 0 0
2019/04/07 19:31:00 BASE 5.99 351 6.79 349 -1.1 75 -5.0 46 1 990.7 NA 0.0000 9999 2820 0 0 0
2019/04/07 19:32:00 BASE 6.06 351 7.05 353 -1.1 75 -4.9 44 0 990.7 NA 0.0000 9999 3020 0 0 0
2019/04/07 19:33:00 BASE 6.34 2 7.05 353 -1.1 75 -4.9 43 0 990.7 NA 0.0000 9999 2790 0 0 0
2019/04/07 19:34:00 BASE 6.47 4 7.05 353 -1.1 76 -4.9 41 0 990.7 NA 0.0000 9999 2890 0 0 0
2019/04/07 19:35:00 BASE 6.67 359 7.51 360 -1.1 76 -4.9 40 1 990.7 NA 0.0000 9999 2850 0 0 0
2019/04/07 19:36:00 BASE 6.84 3 7.51 360 -1.2 76 -4.9 38 1 990.7 NA 0.0000 9999 2850 0 0 0
2019/04/07 19:37:00 BASE 6.80 1 7.51 360 -1.2 76 -4.9 37 1 990.7 NA 0.0000 9999 2990 0 0 0
2019/04/07 19:38:00 BASE 6.84 3 7.51 360 -1.2 76 -4.9 36 0 990.7 NA 0.0000 9999 2820 3900 0 0
2019/04/07 19:39:00 BASE 6.65 7 7.51 360 -1.2 76 -4.9 35 0 990.7 NA 0.0000 9999 2820 4200 0 0
2019/04/07 19:40:00 BASE 6.67 8 7.51 360 -1.2 76 -4.9 35 0 990.7 NA 0.0000 9999 2490 3940 0 0
2019/04/07 19:41:00 BASE 6.64 7 7.51 360 -1.3 77 -4.8 34 0 990.8 NA 0.0000 9999 2460 0 0 0
2019/04/07 19:42:00 BASE 5.60 357 7.51 360 -1.3 77 -4.8 34 0 990.8 NA 0.0000 9999 2530 0 0 0
2019/04/07 19:43:00 BASE 5.57 358 7.51 360 -1.2 77 -4.8 34 1 990.8 NA 0.0000 9999 2530 0 0 0
2019/04/07 19:44:00 BASE 5.40 4 7.51 360 -1.2 77 -4.8 34 0 990.8 NA 0.0000 9999 2620 3580 0 0
2019/04/07 19:45:00 BASE 4.55 356 7.51 360 -1.2 77 -4.8 34 0 990.8 NA 0.0000 9999 2460 0 0 0
2019/04/07 19:46:00 BASE 4.59 357 7.51 360 -1.2 77 -4.8 34 1 990.8 NA 0.0000 9999 2560 0 0 0
2019/04/07 19:47:00 BASE 5.29 356 7.51 360 -1.2 77 -4.8 34 1 990.8 NA 0.0000 9999 2590 0 0 0
2019/04/07 19:48:00 BASE 6.00 355 7.51 360 -1.2 77 -4.7 34 0 990.8 NA 0.0000 9999 2560 0 0 0
2019/04/07 19:49:00 BASE 5.74 343 7.46 321 -1.1 77 -4.7 34 1 990.8 NA 0.0000 9999 2590 0 0 0
2019/04/07 19:50:00 BASE 5.64 315 7.46 321 -1.1 77 -4.6 34 0 990.9 NA 0.0000 9999 2660 3220 7050 0
2019/04/07 19:51:00 BASE 5.20 310 7.46 321 -1.1 77 -4.6 33 0 990.9 NA 0.0000 9999 2660 0 0 0
2019/04/07 19:52:00 BASE 4.38 325 7.46 321 -1.1 77 -4.6 33 0 990.9 NA 0.0000 9999 2660 0 0 0
2019/04/07 19:53:00 BASE 4.42 336 7.46 321 -1.0 77 -4.6 32 0 990.9 NA 0.0000 9999 2690 0 0 0
2019/04/07 19:54:01 BASE 4.56 340 7.46 321 -1.0 77 -4.6 31 1 990.9 NA 0.0000 9999 2690 0 0 0
2019/04/07 19:55:00 BASE 3.97 333 7.46 321 -1.0 77 -4.5 31 0 990.9 NA 0.0000 9999 2660 0 0 0
2019/04/07 19:56:00 BASE 3.06 309 7.46 321 -1.0 77 -4.5 31 0 990.9 NA 0.0000 9999 2660 0 0 0
2019/04/07 19:57:00 BASE 2.79 297 7.46 321 -1.0 77 -4.5 31 1 990.9 NA 0.0000 9999 2690 0 0 0
2019/04/07 19:58:00 BASE 3.14 311 7.46 321 -1.0 78 -4.4 31 0 990.9 NA 0.0000 9999 2720 0 0 0
2019/04/07 19:59:00 BASE 3.33 307 6.84 299 -1.0 78 -4.4 31 0 990.9 NA 0.0000 9999 2720 3610 0 0
2019/04/07 20:00:01 BASE 3.08 290 5.71 304 -1.0 78 -4.3 31 1 991.0 NA 0.0000 9999 2760 3840 6860 0
2019/04/07 20:01:01 BASE 3.02 281 5.25 342 -1.0 78 -4.3 31 1 991.0 NA 0.0000 9999 3770 0 0 0
2019/04/07 20:02:01 BASE 3.41 266 5.25 342 -1.0 78 -4.3 30 0 991.0 NA 0.0000 9999 5540 0 0 0
2019/04/07 20:03:01 BASE 3.88 248 5.45 225 -1.0 78 -4.4 30 0 991.0 NA 0.0000 9999 3640 0 0 0
2019/04/07 20:04:01 BASE 4.67 240 5.81 237 -1.0 77 -4.5 30 0 991.0 NA 0.0000 9999 3670 5410 0 0
2019/04/07 20:05:01 BASE 5.74 245 7.61 238 -0.9 77 -4.5 29 0 991.0 NA 0.0000 9999 3610 4100 0 0
2019/04/07 20:06:01 BASE 6.36 251 7.72 259 -0.9 77 -4.5 29 0 991.0 NA 0.0000 9999 3640 0 0 0
2019/04/07 20:07:01 BASE 6.85 253 8.49 245 -0.9 76 -4.6 29 0 991.0 NA 0.0000 9999 3740 0 0 0
2019/04/07 20:08:01 BASE 7.00 250 8.49 245 -0.9 77 -4.5 29 0 991.0 NA 0.0000 9999 3640 0 0 0
2019/04/07 20:09:01 BASE 6.29 252 8.49 245 -0.9 77 -4.4 29 0 991.0 NA 0.0000 9999 3540 0 0 0
2019/04/07 20:10:01 BASE 6.61 251 8.49 245 -1.0 78 -4.4 29 1 991.0 NA 0.0000 9999 3480 0 0 0
2019/04/07 20:11:01 BASE 7.77 248 9.05 246 -1.0 78 -4.3 28 0 991.0 NA 0.0000 9999 3380 0 0 0
2019/04/07 20:12:01 BASE 8.04 251 9.05 246 -1.0 78 -4.3 27 0 991.0 NA 0.0000 9999 3350 0 0 0
2019/04/07 20:13:01 BASE 8.14 253 9.05 246 -1.0 78 -4.3 26 0 991.1 NA 0.0000 9999 3350 0 0 0
2019/04/07 20:14:01 BASE 8.42 253 9.11 249 -1.0 78 -4.3 25 1 991.1 NA 0.0000 9999 2820 3280 0 0
2019/04/07 20:15:01 BASE 8.21 254 9.11 249 -1.0 78 -4.3 24 1 991.1 NA 0.0000 9999 2760 0 0 0
2019/04/07 20:16:01 BASE 7.80 253 9.11 249 -1.0 78 -4.4 23 0 991.2 NA 0.0000 9999 2760 0 0 0
2019/04/07 20:17:01 BASE 7.72 252 9.11 249 -1.0 78 -4.4 22 1 991.2 NA 0.0000 9999 2720 0 0 0
2019/04/07 20:18:01 BASE 8.21 254 9.47 262 -1.0 78 -4.4 21 0 991.2 NA 0.0000 9999 2760 0 0 0
2019/04/07 20:19:01 BASE 8.53 257 10.24 255 -1.0 78 -4.4 20 0 991.2 NA 0.0000 9999 2720 0 0 0
2019/04/07 20:20:01 BASE 8.90 254 10.24 255 -1.0 78 -4.4 19 0 991.2 NA 0.0000 9999 2720 0 0 0
2019/04/07 20:21:01 BASE 9.40 251 10.85 247 -1.0 78 -4.4 18 0 991.2 NA 0.0000 9000 2720 0 0 0
2019/04/07 20:22:01 BASE 9.35 249 10.85 247 -1.1 77 -4.5 17 0 991.3 NA 0.0000 UP 6000 2760 0 0 0
2019/04/07 20:23:01 BASE 9.06 245 10.85 247 -1.1 77 -4.6 17 0 991.3 NA 0.0000 UP 6000 2890 0 0 0
2019/04/07 20:24:01 BASE 8.38 245 10.85 247 -1.1 77 -4.7 16 1 991.3 NA 0.0000 UP 8000 2920 0 0 0
2019/04/07 20:25:01 BASE 7.46 246 10.85 247 -1.2 77 -4.7 16 0 991.3 NA 0.0000 UP 9000 3310 0 0 0
2019/04/07 20:26:01 BASE 7.86 247 10.85 247 -1.2 77 -4.7 16 0 991.3 NA 0.0000 UP 9000 3250 0 0 0
2019/04/07 20:27:01 BASE 8.85 252 10.85 247 -1.2 77 -4.7 15 0 991.3 NA 0.0000 UP 9999 2850 0 0 0
2019/04/07 20:28:01 BASE 8.95 253 10.85 247 -1.2 77 -4.7 15 0 991.3 NA 0.0000 UP 9999 2760 0 0 0
2019/04/07 20:29:01 BASE 8.52 250 10.85 247 -1.1 77 -4.7 14 0 991.3 NA 0.0000 UP 9999 2760 0 0 0
2019/04/07 20:30:01 BASE 8.24 252 10.85 247 -1.1 77 -4.6 14 0 991.3 NA 0.0000 UP 9999 2760 0 0 0
2019/04/07 20:31:01 BASE 8.18 256 10.24 248 -1.1 77 -4.6 13 0 991.3 NA 0.0000 UP 9999 2760 0 0 0
2019/04/07 20:32:01 BASE 8.63 258 10.24 257 -1.1 77 -4.6 13 0 991.4 NA 0.0000 UP 9999 2720 0 0 0
2019/04/07 20:33:01 BASE 8.67 262 10.24 257 -1.1 77 -4.6 13 0 991.4 NA 0.0000 UP 9999 2560 0 0 0
2019/04/07 20:34:01 BASE 7.96 263 10.24 257 -1.1 77 -4.7 13 0 991.4 NA 0.0000 UP 9999 2690 0 0 0
2019/04/07 20:35:01 BASE 8.07 262 10.80 256 -1.1 77 -4.7 13 0 991.4 NA 0.0000 UP 9999 2690 0 0 0
2019/04/07 20:36:01 BASE 8.74 257 10.80 256 -1.1 76 -4.7 12 0 991.4 NA 0.0000 9999 1250 2690 0 0
2019/04/07 20:37:01 BASE 8.74 254 10.80 256 -1.1 76 -4.8 12 1 991.4 NA 0.0000 9999 1410 0 0 0
2019/04/07 20:38:01 BASE 9.10 253 10.80 256 -1.1 76 -4.9 12 1 991.4 NA 0.0000 9999 1410 0 0 0
2019/04/07 20:39:01 BASE 9.51 250 10.80 256 -1.1 75 -4.9 11 0 991.4 NA 0.0000 9999 2560 0 0 0
2019/04/07 20:40:01 BASE 9.16 252 10.80 256 -1.1 75 -4.9 11 0 991.4 NA 0.0000 9999 2690 0 0 0
2019/04/07 20:41:01 BASE 9.48 253 10.80 256 -1.1 75 -5.0 11 0 991.4 NA 0.0000 9999 2690 0 0 0
2019/04/07 20:42:01 BASE 9.77 252 10.80 256 -1.1 75 -5.0 10 0 991.4 NA 0.0000 9999 2660 0 0 0
2019/04/07 20:43:01 BASE 9.61 251 10.80 256 -1.1 75 -5.0 10 0 991.4 NA 0.0000 9999 2620 0 0 0
2019/04/07 20:44:01 BASE 9.23 249 10.80 256 -1.1 75 -4.9 10 0 991.5 NA 0.0000 9999 2590 0 0 0
2019/04/07 20:45:01 BASE 9.05 249 10.75 256 -1.1 75 -4.9 9 0 991.5 NA 0.0000 9999 2590 0 0 0
2019/04/07 20:46:01 BASE 9.39 249 10.75 256 -1.1 76 -4.9 9 0 991.5 NA 0.0000 9999 2590 0 0 0
2019/04/07 20:47:01 BASE 9.52 247 10.75 256 -1.1 76 -4.9 9 0 991.5 NA 0.0000 9999 2690 0 0 0
2019/04/07 20:48:01 BASE 9.18 247 10.75 256 -1.2 75 -5.0 9 0 991.5 NA 0.0000 9999 2720 4300 0 0
2019/04/07 20:49:01 BASE 9.18 248 10.75 256 -1.2 75 -5.0 8 0 991.5 NA 0.0000 9999 2760 4590 0 0
2019/04/07 20:50:01 BASE 9.68 251 10.85 252 -1.2 75 -5.1 8 0 991.5 NA 0.0000 9999 2820 0 0 0
2019/04/07 20:51:01 BASE 10.12 252 10.91 248 -1.1 74 -5.2 8 0 991.5 NA 0.0000 9999 2850 0 0 0
2019/04/07 20:52:01 BASE 9.99 250 10.91 248 -1.1 74 -5.2 7 0 991.5 NA 0.0000 9999 2820 0 0 0
2019/04/07 20:53:01 BASE 9.14 248 10.91 248 -1.1 74 -5.2 7 1 991.5 NA 0.0000 9999 2790 0 0 0
2019/04/07 20:54:01 BASE 8.85 246 10.91 248 -1.1 74 -5.1 6 0 991.6 NA 0.0000 9999 2820 0 0 0
2019/04/07 20:55:01 BASE 8.66 248 10.91 248 -1.1 74 -5.1 6 0 991.6 NA 0.0000 9999 2790 0 0 0
2019/04/07 20:56:01 BASE 9.04 252 11.73 252 -1.1 75 -5.0 6 0 991.6 NA 0.0000 9999 1480 0 0 0
2019/04/07 20:57:01 BASE 10.20 254 11.73 252 -1.1 75 -4.9 6 5 991.6 NA 0.0000 9999 3220 0 0 0
2019/04/07 20:58:01 BASE 10.13 254 11.73 252 -1.1 76 -4.9 6 0 991.6 NA 0.0000 9999 2820 0 0 0
2019/04/07 20:59:01 BASE 9.04 253 11.73 252 -1.1 76 -4.9 6 1 991.6 NA 0.0000 9999 2850 0 0 0
2019/04/07 21:00:01 BASE 8.00 254 11.73 252 -1.2 76 -4.9 6 0 991.6 NA 0.0000 9999 2850 0 0 0
2019/04/07 21:01:01 BASE 8.74 256 11.73 252 -1.2 76 -4.8 6 4 991.6 NA 0.0000 9999 2790 0 0 0
2019/04/07 21:02:01 BASE 9.71 253 11.73 252 -1.2 76 -4.8 6 1 991.6 NA 0.0000 9999 3220 3970 0 0
2019/04/07 21:03:01 BASE 8.83 254 11.73 252 -1.2 77 -4.8 6 0 991.6 NA 0.0000 9999 3080 0 0 0
2019/04/07 21:04:00 BASE 8.49 255 11.73 252 -1.2 77 -4.8 6 0 991.6 NA 0.0000 9999 3410 0 0 0
2019/04/07 21:05:01 BASE 9.07 254 11.73 252 -1.2 77 -4.7 6 0 991.6 NA 0.0000 9999 3450 0 0 0
2019/04/07 21:06:01 BASE 9.30 257 11.32 251 -1.2 77 -4.6 6 0 991.6 NA 0.0000 9999 3480 0 0 0
2019/04/07 21:07:01 BASE 8.60 256 10.91 257 -1.2 78 -4.6 5 0 991.6 NA 0.0000 9999 3510 0 0 0
2019/04/07 21:08:01 BASE 7.52 256 10.91 257 -1.2 78 -4.5 5 0 991.7 NA 0.0000 9999 3580 0 0 0
2019/04/07 21:09:01 BASE 7.67 258 10.91 257 -1.2 78 -4.5 5 0 991.7 NA 0.0000 9999 1080 0 0 0
2019/04/07 21:10:01 BASE 7.72 257 10.91 257 -1.2 79 -4.5 5 1 991.7 NA 0.0000 9999 3740 0 0 0
2019/04/07 21:11:00 BASE 7.76 255 10.34 250 -1.2 79 -4.5 4 0 991.7 NA 0.0000 9999 2030 0 0 0
2019/04/07 21:12:00 BASE 8.60 256 10.19 256 -1.3 79 -4.5 4 5 991.7 NA 0.0000 9999 3870 0 0 0
2019/04/07 21:13:00 BASE 8.49 256 10.19 256 -1.3 78 -4.6 4 0 991.7 NA 0.0000 9999 0 0 0 3670
2019/04/07 21:14:01 BASE 7.69 254 10.03 260 -1.3 78 -4.6 4 0 991.7 NA 0.0000 9999 1250 0 0 0
2019/04/07 21:15:01 BASE 6.83 253 9.98 248 -1.3 78 -4.7 3 0 991.7 NA 0.0000 9999 1440 3350 0 0
2019/04/07 21:16:01 BASE 6.33 255 9.62 260 -1.3 78 -4.7 3 0 991.7 NA 0.0000 9999 3510 0 0 0
2019/04/07 21:17:00 BASE 6.59 257 9.62 260 -1.4 78 -4.7 3 1 991.8 NA 0.0000 9999 2430 0 0 0
2019/04/07 21:18:00 BASE 6.52 258 9.62 260 -1.4 78 -4.7 3 1 991.8 NA 0.0000 9999 2170 3250 4070 0
2019/04/07 21:19:00 BASE 6.38 263 9.62 260 -1.4 79 -4.6 3 0 991.8 NA 0.0000 9999 2330 0 0 0
2019/04/07 21:20:00 BASE 5.81 267 9.62 260 -1.4 79 -4.6 3 1 991.8 NA 0.0000 9999 2070 3080 0 0
2019/04/07 21:21:01 BASE 5.38 269 9.62 260 -1.4 79 -4.5 2 0 991.8 NA 0.0000 9999 2170 3450 0 0
2019/04/07 21:22:01 BASE 6.14 261 8.64 253 -1.4 79 -4.5 2 1 991.8 NA 0.0000 9999 3770 4400 0 0
2019/04/07 21:23:01 BASE 6.67 255 8.49 243 -1.3 80 -4.4 2 1 991.8 NA 0.0000 9999 2300 4460 0 0
2019/04/07 21:24:00 BASE 5.59 263 8.08 255 -1.3 80 -4.3 2 0 991.8 NA 0.0000 9999 2260 0 0 0
2019/04/07 21:25:00 BASE 5.47 262 8.08 255 -1.3 81 -4.2 2 0 991.9 NA 0.0000 9999 2260 3900 0 0
2019/04/07 21:26:00 BASE 6.15 252 8.08 255 -1.3 81 -4.2 2 0 992.0 NA 0.0000 9999 3970 0 0 0
2019/04/07 21:27:00 BASE 5.52 250 8.08 255 -1.3 81 -4.2 1 0 992.0 NA 0.0000 9999 1570 0 0 0
2019/04/07 21:28:00 BASE 4.91 250 8.08 255 -1.4 81 -4.2 1 0 992.0 NA 0.0000 9999 2330 0 0 0
2019/04/07 21:29:00 BASE 4.07 254 8.08 255 -1.4 81 -4.2 1 1 992.0 NA 0.0000 9999 2300 0 0 0
2019/04/07 21:30:00 BASE 3.55 269 8.08 255 -1.4 81 -4.2 1 0 992.0 NA 0.0000 9999 2490 0 0 0
2019/04/07 21:31:00 BASE 4.19 280 8.08 255 -1.4 81 -4.2 1 0 992.0 NA 0.0000 9999 3610 0 0 0
2019/04/07 21:32:00 BASE 4.63 274 7.41 254 -1.3 81 -4.1 1 1 992.0 NA 0.0000 9999 3480 0 0 0
2019/04/07 21:33:00 BASE 3.96 268 7.41 254 -1.3 82 -4.1 1 0 992.0 NA 0.0000 UP 9999 3180 0 0 0
2019/04/07 21:34:00 BASE 3.80 267 7.41 254 -1.3 82 -4.0 1 0 992.0 NA 0.0000 UP 9999 2330 3250 0 0
2019/04/07 21:35:00 BASE 3.69 274 6.38 247 -1.3 82 -4.0 1 1 992.0 NA 0.0000 UP 9999 2430 0 0 0
2019/04/07 21:36:00 BASE 3.55 279 5.86 251 -1.3 82 -4.0 1 0 992.0 NA 0.0000 UP 9999 2460 0 0 0
2019/04/07 21:37:00 BASE 3.48 277 5.71 276 -1.3 82 -4.0 0 0 992.0 NA 0.0000 UP 9999 2460 3310 0 0
2019/04/07 21:38:00 BASE 3.71 272 5.71 276 -1.3 82 -4.0 0 0 992.0 NA 0.0000 UP 9999 3180 0 0 0
2019/04/07 21:39:00 BASE 5.11 276 6.69 287 -1.3 82 -4.0 0 1 992.0 NA 0.0000 UP 9999 2590 3310 0 0
2019/04/07 21:40:00 BASE 6.06 272 7.41 262 -1.3 82 -3.9 0 0 992.1 NA 0.0000 UP 9999 2360 2990 0 0
2019/04/07 21:41:00 BASE 6.52 261 7.82 259 -1.3 82 -3.9 0 1 992.0 NA 0.0000 UP 9999 2300 0 0 0
2019/04/07 21:42:00 BASE 6.57 260 7.82 259 -1.2 82 -4.0 0 1 992.0 NA 0.0000 UP 9999 2300 0 0 0
2019/04/07 21:43:00 BASE 6.53 260 9.57 255 -1.2 81 -4.0 0 0 992.1 NA 0.0000 9999 2230 0 0 0
2019/04/07 21:44:00 BASE 7.30 261 9.57 255 -1.2 81 -4.1 0 0 992.1 NA 0.0000 9999 2300 0 0 0
2019/04/07 21:45:00 BASE 8.82 262 10.65 262 -1.2 81 -4.1 0 0 992.1 NA 0.0000 9999 2300 0 0 0
2019/04/07 21:46:00 BASE 8.67 263 10.65 262 -1.2 81 -4.1 0 3 992.1 NA 0.0000 7000 0 0 0 2990
2019/04/07 21:47:00 BASE 8.01 260 10.65 262 -1.2 81 -4.1 0 0 992.1 NA 0.0000 -SN 7000 2170 0 0 0
2019/04/07 21:48:00 BASE 8.55 262 10.65 262 -1.2 81 -4.0 0 0 992.1 NA 0.0000 -SN 9999 1710 0 0 0
2019/04/07 21:49:00 BASE 8.94 264 11.88 259 -1.2 82 -3.9 0 1 992.1 NA 0.0000 -SN 9999 1800 0 0 0
2019/04/07 21:50:00 BASE 9.69 263 13.07 263 -1.3 83 -3.8 0 0 992.1 NA 0.0000 -SN 9999 2100 0 0 0
2019/04/07 21:51:00 BASE 10.71 268 13.68 274 -1.3 84 -3.7 0 0 992.1 NA 0.0000 -SN 9999 2070 0 0 0
2019/04/07 21:52:00 BASE 11.47 274 14.92 271 -1.3 84 -3.6 0 2 992.1 NA 0.0000 -SN 9999 2230 3810 0 0
2019/04/07 21:53:00 BASE 10.58 270 14.92 271 -1.3 85 -3.6 0 0 992.1 NA 0.0000 -SN 9999 3640 4330 0 0
2019/04/07 21:54:00 BASE 9.43 267 14.92 271 -1.4 85 -3.6 0 0 992.1 NA 0.0000 -SN 9999 3220 3840 0 0
2019/04/07 21:55:00 BASE 9.35 272 14.92 271 -1.4 85 -3.6 0 0 992.1 NA 0.0000 -SN 9999 4130 0 0 0
2019/04/07 21:56:00 BASE 9.60 273 14.92 271 -1.4 85 -3.6 0 0 992.1 NA 0.0000 -SN 9999 2360 3450 4270 0
2019/04/07 21:57:00 BASE 9.94 272 14.92 271 -1.4 85 -3.6 0 0 992.1 NA 0.0000 9999 2530 4100 0 0
2019/04/07 21:58:00 BASE 10.06 274 14.92 271 -1.4 85 -3.6 0 0 992.1 NA 0.0000 9999 3350 3940 4590 0
2019/04/07 21:59:00 BASE 9.68 272 14.92 271 -1.4 85 -3.6 0 4 992.1 NA 0.0000 9999 3120 0 0 0
2019/04/07 22:00:00 BASE 8.42 264 14.92 271 -1.4 85 -3.6 0 0 992.2 NA 0.0000 9999 2950 3610 4170 0
2019/04/07 22:01:00 BASE 7.78 261 14.92 271 -1.4 85 -3.7 0 0 992.2 NA 0.0000 9999 2360 3250 0 0
2019/04/07 22:02:00 BASE 8.21 265 12.81 279 -1.4 84 -3.7 0 0 992.2 NA 0.0000 9999 2360 3900 0 0
2019/04/07 22:03:00 BASE 9.22 266 14.25 253 -1.4 84 -3.7 0 0 992.2 NA 0.0000 9999 2690 0 0 0
2019/04/07 22:04:00 BASE 10.49 257 14.25 253 -1.4 84 -3.7 0 0 992.2 NA 0.0000 9999 3840 0 0 0
2019/04/07 22:05:00 BASE 10.94 251 14.25 253 -1.4 84 -3.7 0 0 992.2 NA 0.0000 9999 3250 0 0 0
2019/04/07 22:06:00 BASE 10.00 256 14.25 253 -1.4 84 -3.7 0 1 992.2 NA 0.0000 9999 3050 3840 0 0
2019/04/07 22:07:00 BASE 9.30 261 14.25 253 -1.4 84 -3.7 0 0 992.2 NA 0.0000 9999 2820 0 0 0
2019/04/07 22:08:00 BASE 9.13 263 14.25 253 -1.4 84 -3.7 0 2 992.2 NA 0.0000 9999 2790 0 0 0
2019/04/07 22:09:00 BASE 8.60 263 14.25 253 -1.4 84 -3.7 0 4 992.2 NA 0.0000 9999 3050 0 0 0
2019/04/07 22:10:00 BASE 8.38 263 14.25 253 -1.4 84 -3.7 0 0 992.2 NA 0.0000 9999 3080 0 0 0
2019/04/07 22:11:00 BASE 8.67 262 14.25 253 -1.4 84 -3.7 0 0 992.2 NA 0.0000 9999 3220 4100 0 0
2019/04/07 22:12:00 BASE 9.46 261 14.25 253 -1.4 84 -3.7 0 0 992.2 NA 0.0000 9999 3480 4100 0 0
2019/04/07 22:13:00 BASE 9.91 261 12.35 250 -1.4 84 -3.8 0 0 992.2 NA 0.0000 9999 3350 4200 0 0
2019/04/07 22:14:00 BASE 10.00 258 11.88 251 -1.4 84 -3.8 0 0 992.2 NA 0.0000 9999 3350 0 0 0
2019/04/07 22:15:00 BASE 9.32 257 11.63 257 -1.4 84 -3.8 0 0 992.2 NA 0.0000 9999 3540 0 0 0
2019/04/07 22:16:00 BASE 7.42 263 11.63 257 -1.4 84 -3.8 0 2 992.2 NA 0.0000 9999 3640 0 0 0
2019/04/07 22:17:00 BASE 7.02 268 11.47 261 -1.4 84 -3.8 0 1 992.2 NA 0.0000 9999 4400 4820 0 0
2019/04/07 22:18:00 BASE 7.74 272 11.47 261 -1.4 84 -3.8 0 1 992.2 NA 0.0000 9999 4890 5510 0 0
2019/04/07 22:19:00 BASE 7.63 274 11.47 261 -1.4 84 -3.7 0 0 992.2 NA 0.0000 9999 4890 5480 0 0
2019/04/07 22:20:00 BASE 6.64 269 11.47 261 -1.3 84 -3.7 0 1 992.2 NA 0.0000 9999 4890 0 0 0
2019/04/07 22:21:00 BASE 5.47 268 11.47 261 -1.3 84 -3.6 0 0 992.2 NA 0.0000 9999 4920 0 0 0
2019/04/07 22:22:00 BASE 6.18 275 11.47 261 -1.3 85 -3.6 0 0 992.2 NA 0.0000 9999 4820 0 0 0
2019/04/07 22:23:00 BASE 7.23 278 11.47 261 -1.3 85 -3.5 0 0 992.2 NA 0.0000 9999 4000 0 0 0
2019/04/07 22:24:00 BASE 7.42 276 10.19 254 -1.3 85 -3.5 0 0 992.2 NA 0.0000 9999 3970 0 0 0
2019/04/07 22:25:00 BASE 7.84 278 9.57 276 -1.3 85 -3.5 0 0 992.2 NA 0.0000 9999 3970 0 0 0
2019/04/07 22:26:00 BASE 8.25 278 9.67 272 -1.3 85 -3.5 0 1 992.2 NA 0.0000 9999 4040 0 0 0
2019/04/07 22:27:00 BASE 7.58 277 9.67 272 -1.3 85 -3.5 0 0 992.3 NA 0.0000 9999 4070 0 0 0
2019/04/07 22:28:00 BASE 7.35 274 9.67 272 -1.3 85 -3.5 0 0 992.3 NA 0.0000 9999 4100 0 0 0
2019/04/07 22:29:00 BASE 7.65 270 9.67 272 -1.2 85 -3.4 0 0 992.2 NA 0.0000 9999 4130 0 0 0
2019/04/07 22:30:00 BASE 8.08 275 10.34 279 -1.2 85 -3.4 0 0 992.3 NA 0.0000 9999 4170 0 0 0
2019/04/07 22:31:00 BASE 9.20 280 10.65 275 -1.2 85 -3.5 0 0 992.3 NA 0.0000 9999 2360 4270 0 0
2019/04/07 22:32:00 BASE 8.66 274 10.65 275 -1.2 84 -3.5 0 0 992.3 NA 0.0000 9999 4330 0 0 0
2019/04/07 22:33:00 BASE 7.81 268 11.11 257 -1.2 84 -3.6 0 0 992.3 NA 0.0000 9999 4400 0 0 0
2019/04/07 22:34:00 BASE 7.85 265 11.11 257 -1.2 83 -3.7 0 0 992.3 NA 0.0000 9999 4430 0 0 0
2019/04/07 22:35:00 BASE 7.90 264 11.63 257 -1.2 82 -3.8 0 0 992.3 NA 0.0000 9999 4530 0 0 0
2019/04/07 22:36:00 BASE 8.11 268 11.63 257 -1.2 81 -4.0 0 0 992.3 NA 0.0000 9999 4530 0 0 0
2019/04/07 22:37:00 BASE 8.11 267 11.63 257 -1.2 80 -4.3 0 0 992.3 NA 0.0000 9999 4530 0 0 0
2019/04/07 22:38:00 BASE 8.94 266 11.99 266 -1.2 78 -4.6 0 0 992.3 NA 0.0000 9999 4590 0 0 0
2019/04/07 22:39:00 BASE 9.12 267 11.99 266 -1.2 75 -5.0 0 0 992.3 NA 0.0000 9999 4630 0 0 0
2019/04/07 22:40:00 BASE 8.79 264 11.99 266 -1.2 73 -5.5 0 0 992.3 NA 0.0000 9999 4630 6100 0 0
2019/04/07 22:41:00 BASE 9.38 258 11.99 266 -1.2 71 -5.8 0 2 992.3 NA 0.0000 9999 5910 0 0 0
2019/04/07 22:42:00 BASE 9.38 258 11.99 266 -1.2 69 -6.1 0 0 992.3 NA 0.0000 9999 5540 0 0 0
2019/04/07 22:43:00 BASE 8.90 259 11.99 266 -1.2 68 -6.3 0 0 992.3 NA 0.0000 9999 5770 0 0 0
2019/04/07 22:44:00 BASE 9.55 256 12.81 254 -1.2 67 -6.4 0 0 992.3 NA 0.0000 9999 4790 5910 0 0
2019/04/07 22:45:00 BASE 10.26 256 12.81 254 -1.2 67 -6.5 0 0 992.3 NA 0.0000 9999 4820 0 0 0
2019/04/07 22:46:00 BASE 9.90 254 12.81 254 -1.2 67 -6.6 0 3 992.3 NA 0.0000 9999 4820 0 0 0
2019/04/07 22:47:00 BASE 9.29 260 12.81 254 -1.2 67 -6.6 0 0 992.4 NA 0.0000 9999 4920 0 0 0
2019/04/07 22:48:01 BASE 8.93 265 12.81 254 -1.2 67 -6.5 0 0 992.4 NA 0.0000 9999 5050 0 0 0
2019/04/07 22:49:01 BASE 9.12 264 12.81 254 -1.2 67 -6.5 0 1 992.4 NA 0.0000 9999 5120 0 0 0
2019/04/07 22:50:01 BASE 8.97 260 12.81 254 -1.2 67 -6.5 0 1 992.4 NA 0.0000 9999 5150 0 0 0
2019/04/07 22:51:01 BASE 8.24 258 12.81 254 -1.2 67 -6.4 0 1 992.4 NA 0.0000 9999 5450 0 0 0
2019/04/07 22:52:01 BASE 8.04 261 12.81 254 -1.2 68 -6.4 0 0 992.4 NA 0.0000 9999 5220 0 0 0
2019/04/07 22:53:01 BASE 8.12 258 12.81 254 -1.1 68 -6.3 0 0 992.4 NA 0.0000 9999 5150 0 0 0
2019/04/07 22:54:01 BASE 8.62 257 11.88 266 -1.1 68 -6.3 0 0 992.4 NA 0.0000 9999 5450 0 0 0
2019/04/07 22:55:01 BASE 7.87 260 11.88 266 -1.1 68 -6.3 0 0 992.4 NA 0.0000 9999 5320 0 0 0
2019/04/07 22:56:01 BASE 7.41 260 11.88 266 -1.1 68 -6.2 0 1 992.4 NA 0.0000 9999 5280 0 0 0
2019/04/07 22:57:01 BASE 8.86 260 11.88 266 -1.1 69 -6.1 0 0 992.4 NA 0.0000 9999 3180 5350 0 0
2019/04/07 22:58:01 BASE 10.08 255 12.66 249 -1.1 69 -6.1 0 0 992.4 NA 0.0000 9999 3450 5120 0 0
2019/04/07 22:59:01 BASE 10.52 253 12.66 249 -1.1 69 -6.1 0 0 992.4 NA 0.0000 9999 3280 0 0 0
2019/04/07 23:00:01 BASE 10.42 255 12.66 249 -1.1 69 -6.1 0 0 992.4 NA 0.0000 9999 3180 5510 0 0
2019/04/07 23:01:01 BASE 11.43 253 13.32 252 -1.1 69 -6.2 0 0 992.4 NA 0.0000 9999 3080 5540 0 0
2019/04/07 23:02:01 BASE 11.92 252 13.32 252 -1.1 68 -6.3 0 0 992.4 NA 0.0000 9999 5450 0 0 0
2019/04/07 23:03:01 BASE 11.32 251 13.32 252 -1.2 68 -6.4 0 0 992.5 NA 0.0000 9999 5480 0 0 0
2019/04/07 23:04:01 BASE 11.06 254 13.32 252 -1.2 68 -6.4 0 0 992.5 NA 0.0000 9999 5180 0 0 0
2019/04/07 23:05:01 BASE 10.88 258 13.32 252 -1.2 68 -6.4 0 3 992.5 NA 0.0000 9999 5280 0 0 0
2019/04/07 23:06:01 BASE 9.10 258 13.32 252 -1.2 68 -6.4 0 0 992.6 NA 0.0000 9999 5320 0 0 0
2019/04/07 23:07:01 BASE 8.18 256 13.32 252 -1.2 68 -6.3 0 0 992.6 NA 0.0000 9999 5320 0 0 0
2019/04/07 23:08:01 BASE 9.45 254 13.32 252 -1.2 68 -6.2 0 0 992.5 NA 0.0000 9999 3050 5350 0 0
2019/04/07 23:09:01 BASE 10.00 254 13.32 252 -1.2 69 -6.2 0 0 992.5 NA 0.0000 9999 5350 0 0 0
2019/04/07 23:10:01 BASE 10.31 253 13.32 252 -1.1 69 -6.1 0 0 992.5 NA 0.0000 9999 5450 0 0 0
2019/04/07 23:11:01 BASE 10.50 253 12.45 251 -1.1 69 -6.1 0 0 992.5 NA 0.0000 9999 5510 0 0 0
2019/04/07 23:12:01 BASE 10.14 257 12.45 251 -1.1 69 -6.0 0 0 992.5 NA 0.0000 9999 4820 0 0 0
2019/04/07 23:13:01 BASE 9.35 260 12.19 250 -1.1 69 -6.0 0 0 992.5 NA 0.0000 9999 4690 0 0 0
2019/04/07 23:14:01 BASE 9.22 264 12.19 250 -1.1 70 -6.0 0 0 992.5 NA 0.0000 9999 4690 5640 0 0
2019/04/07 23:15:01 BASE 10.11 263 12.24 262 -1.1 70 -5.9 0 0 992.5 NA 0.0000 9999 4690 0 0 0
2019/04/07 23:16:01 BASE 10.24 258 12.55 253 -1.1 70 -5.9 0 0 992.6 NA 0.0000 9999 4630 0 0 0
2019/04/07 23:17:01 BASE 10.57 254 12.60 246 -1.1 70 -5.9 0 0 992.6 NA 0.0000 9999 4490 0 0 0
2019/04/07 23:18:01 BASE 10.20 254 12.60 246 -1.1 70 -5.9 0 1 992.6 NA 0.0000 9999 4530 0 0 0
2019/04/07 23:19:01 BASE 10.47 257 12.60 246 -1.1 70 -5.9 0 0 992.6 NA 0.0000 9999 4460 0 0 0
2019/04/07 23:20:01 BASE 11.62 257 12.60 246 -1.1 70 -5.9 0 0 992.6 NA 0.0000 9999 4460 0 0 0
2019/04/07 23:21:01 BASE 10.94 255 12.60 246 -1.1 70 -5.9 0 13 992.6 NA 0.0000 9999 4360 0 0 0
2019/04/07 23:22:01 BASE 10.27 256 12.60 246 -1.1 69 -6.0 0 0 992.6 NA 0.0000 9999 4400 0 0 0
2019/04/07 23:23:01 BASE 10.24 256 12.60 246 -1.1 69 -6.0 0 0 992.6 NA 0.0000 9999 4360 0 0 0
2019/04/07 23:24:01 BASE 10.24 255 12.60 246 -1.1 69 -6.1 0 0 992.6 NA 0.0000 9999 4200 0 0 0
2019/04/07 23:25:01 BASE 10.27 254 12.60 246 -1.1 69 -6.0 0 0 992.7 NA 0.0000 9999 4070 0 0 0
2019/04/07 23:26:01 BASE 10.55 254 12.60 246 -1.1 69 -6.0 0 0 992.7 NA 0.0000 9999 4170 0 0 0
2019/04/07 23:27:01 BASE 10.09 254 12.30 256 -1.1 69 -6.0 0 0 992.7 NA 0.0000 9999 2950 3810 0 0
2019/04/07 23:28:01 BASE 9.84 253 12.30 256 -1.1 70 -5.9 0 0 992.7 NA 0.0000 9999 2950 0 0 0
2019/04/07 23:29:01 BASE 9.56 256 12.14 265 -1.1 70 -5.9 0 3 992.7 NA 0.0000 9999 3080 3940 0 0
2019/04/07 23:30:01 BASE 9.29 261 12.14 265 -1.1 70 -5.8 0 0 992.7 NA 0.0000 9999 3020 3810 0 0
2019/04/07 23:31:01 BASE 10.22 258 12.81 248 -1.1 71 -5.7 0 0 992.7 NA 0.0000 9999 3220 0 0 0
2019/04/07 23:32:01 BASE 11.35 254 13.17 253 -1.1 72 -5.5 0 0 992.7 NA 0.0000 9999 3080 0 0 0
2019/04/07 23:33:01 BASE 12.02 255 13.17 259 -1.1 73 -5.4 0 0 992.7 NA 0.0000 9999 2720 0 0 0
2019/04/07 23:34:01 BASE 12.19 256 13.38 259 -1.1 74 -5.3 0 0 992.7 NA 0.0000 9999 2890 3480 0 0
2019/04/07 23:35:01 BASE 11.95 253 13.38 259 -1.2 74 -5.1 0 0 992.7 NA 0.0000 9999 2950 0 0 0
2019/04/07 23:36:01 BASE 11.44 249 13.38 259 -1.2 75 -5.1 0 0 992.8 NA 0.0000 9999 2890 3480 0 0
2019/04/07 23:37:01 BASE 11.28 249 13.38 259 -1.3 76 -5.0 0 0 992.8 NA 0.0000 9999 3050 0 0 0
2019/04/07 23:38:01 BASE 11.13 252 13.38 259 -1.3 77 -4.9 0 0 992.8 NA 0.0000 9999 3510 0 0 0
2019/04/07 23:39:01 BASE 11.53 248 13.38 259 -1.4 77 -4.9 0 0 992.8 NA 0.0000 9999 2950 0 0 0
2019/04/07 23:40:01 BASE 11.74 246 13.38 259 -1.4 78 -4.8 0 0 992.8 NA 0.0000 UP 9999 2950 4100 0 0
2019/04/07 23:41:01 BASE 11.02 249 13.38 259 -1.5 78 -4.8 0 0 992.8 NA 0.0000 UP 9999 4100 0 0 0
2019/04/07 23:42:01 BASE 9.80 252 13.38 259 -1.5 79 -4.7 0 0 992.9 NA 0.0000 UP 9999 4200 0 0 0
2019/04/07 23:43:01 BASE 9.35 252 13.38 259 -1.6 79 -4.7 0 0 992.9 NA 0.0000 UP 9999 2950 0 0 0
2019/04/07 23:44:01 BASE 9.17 255 13.27 239 -1.6 79 -4.7 0 0 992.9 NA 0.0000 UP 9999 4460 0 0 0
2019/04/07 23:45:01 BASE 8.65 267 13.27 239 -1.6 80 -4.6 0 0 992.9 NA 0.0000 UP 9999 4590 0 0 0
2019/04/07 23:46:01 BASE 8.58 276 13.27 239 -1.6 80 -4.6 0 0 992.9 NA 0.0000 UP 9999 4590 0 0 0
2019/04/07 23:47:01 BASE 7.55 277 13.27 239 -1.5 80 -4.5 0 0 992.9 NA 0.0000 UP 9999 0 0 0 4790
2019/04/07 23:48:01 BASE 7.21 276 13.27 239 -1.5 80 -4.6 0 0 992.9 NA 0.0000 UP 9999 4040 0 0 0
2019/04/07 23:49:01 BASE 7.79 273 12.45 251 -1.5 80 -4.6 0 0 992.9 NA 0.0000 UP 9999 3050 0 0 0
2019/04/07 23:50:01 BASE 7.98 269 12.09 252 -1.5 79 -4.6 0 1 992.9 NA 0.0000 UP 9999 4330 0 0 0
2019/04/07 23:51:01 BASE 8.94 269 11.11 263 -1.4 79 -4.6 0 0 992.9 NA 0.0000 UP 9999 4200 0 0 0
2019/04/07 23:52:01 BASE 9.51 271 11.11 263 -1.4 79 -4.6 0 0 992.9 NA 0.0000 UP 9999 3900 0 0 0
2019/04/07 23:53:01 BASE 9.29 270 11.11 263 -1.4 79 -4.6 0 0 992.8 NA 0.0000 UP 9000 3810 0 0 0
2019/04/07 23:54:01 BASE 9.22 269 11.11 263 -1.4 79 -4.5 0 0 992.9 NA 0.0000 UP 7000 0 0 0 4040
2019/04/07 23:55:01 BASE 8.79 271 11.11 263 -1.4 80 -4.4 0 0 992.8 NA 0.0000 UP 9000 2950 0 0 0
2019/04/07 23:56:01 BASE 9.14 273 11.47 277 -1.4 80 -4.3 0 0 992.9 NA 0.0000 UP 9999 0 0 0 4690
2019/04/07 23:57:01 BASE 9.27 271 11.47 277 -1.4 81 -4.2 0 0 992.9 NA 0.0000 UP 9999 4950 0 0 0
2019/04/07 23:58:01 BASE 8.41 272 11.47 277 -1.4 82 -4.1 0 1 992.9 NA 0.0000 UP 9999 0 0 0 5020
2019/04/07 23:59:01 BASE 8.35 276 11.47 277 -1.4 82 -4.0 0 0 992.9 NA 0.0000 UP 9999 4950 0 0 0